<?xml version="1.0" encoding="UTF-8" standalone="no" ?>
<gpx xmlns="http://www.topografix.com/GPX/1/1" xmlns:xsi="http://www.w3.org/2001/XMLSchema-instance" xsi:schemaLocation="http://www.topografix.com/GPX/1/1 http://www.topografix.com/GPX/1/1/gpx.xsd" version="1.1" creator="VisuGPX - https://www.visugpx.com">
  <metadata>
    <name>Jura_Baume les messieurs, départ sur la crête, Belvédère de Suchot et des Roches.</name>
  </metadata>
  <trk>
    <name><![CDATA[15-JUIL-22 04:52:33 PM]]></name>
    <extensions>
      <line xmlns="http://www.topografix.com/GPX/gpx_style/0/2">
        <color>0000FF</color>
        <width>4</width>
      </line>
    </extensions>
    <trkseg>
      <trkpt lat="46.71202" lon="5.63809">
        <ele>301.99</ele>
        <time>2022-07-14T13:20:15Z</time>
      </trkpt>
      <trkpt lat="46.71204" lon="5.63813">
        <ele>301.99</ele>
        <time>2022-07-14T13:20:32Z</time>
      </trkpt>
      <trkpt lat="46.71203" lon="5.63804">
        <ele>304.88</ele>
        <time>2022-07-14T14:35:22Z</time>
      </trkpt>
      <trkpt lat="46.71203" lon="5.63798">
        <ele>304.39</ele>
        <time>2022-07-14T14:35:23Z</time>
      </trkpt>
      <trkpt lat="46.71198" lon="5.63797">
        <ele>304.88</ele>
        <time>2022-07-14T14:35:44Z</time>
      </trkpt>
      <trkpt lat="46.71209" lon="5.63802">
        <ele>301.51</ele>
        <time>2022-07-14T14:36:03Z</time>
      </trkpt>
      <trkpt lat="46.71209" lon="5.63802">
        <ele>301.99</ele>
        <time>2022-07-14T14:36:04Z</time>
      </trkpt>
      <trkpt lat="46.71201" lon="5.63797">
        <ele>299.59</ele>
        <time>2022-07-14T14:36:32Z</time>
      </trkpt>
      <trkpt lat="46.71206" lon="5.63814">
        <ele>299.59</ele>
        <time>2022-07-14T14:37:12Z</time>
      </trkpt>
      <trkpt lat="46.71213" lon="5.63822">
        <ele>299.59</ele>
        <time>2022-07-14T14:37:48Z</time>
      </trkpt>
      <trkpt lat="46.71208" lon="5.63806">
        <ele>299.59</ele>
        <time>2022-07-14T14:38:27Z</time>
      </trkpt>
      <trkpt lat="46.71206" lon="5.63807">
        <ele>299.11</ele>
        <time>2022-07-14T14:38:57Z</time>
      </trkpt>
      <trkpt lat="46.71213" lon="5.63812">
        <ele>299.59</ele>
        <time>2022-07-14T14:39:28Z</time>
      </trkpt>
      <trkpt lat="46.71239" lon="5.63846">
        <ele>299.11</ele>
        <time>2022-07-14T14:39:59Z</time>
      </trkpt>
      <trkpt lat="46.71228" lon="5.63828">
        <ele>299.59</ele>
        <time>2022-07-14T14:40:29Z</time>
      </trkpt>
      <trkpt lat="46.71217" lon="5.6382">
        <ele>299.11</ele>
        <time>2022-07-14T14:40:59Z</time>
      </trkpt>
      <trkpt lat="46.71205" lon="5.63804">
        <ele>298.63</ele>
        <time>2022-07-14T14:41:28Z</time>
      </trkpt>
      <trkpt lat="46.712" lon="5.63799">
        <ele>299.11</ele>
        <time>2022-07-14T14:42:02Z</time>
      </trkpt>
      <trkpt lat="46.71197" lon="5.63797">
        <ele>299.11</ele>
        <time>2022-07-14T14:42:37Z</time>
      </trkpt>
      <trkpt lat="46.7119" lon="5.63794">
        <ele>299.11</ele>
        <time>2022-07-14T14:43:07Z</time>
      </trkpt>
      <trkpt lat="46.71194" lon="5.63801">
        <ele>299.11</ele>
        <time>2022-07-14T14:43:36Z</time>
      </trkpt>
      <trkpt lat="46.71198" lon="5.63804">
        <ele>299.11</ele>
        <time>2022-07-14T14:44:13Z</time>
      </trkpt>
      <trkpt lat="46.712" lon="5.63804">
        <ele>297.18</ele>
        <time>2022-07-14T14:44:20Z</time>
      </trkpt>
      <trkpt lat="46.712" lon="5.63805">
        <ele>297.18</ele>
        <time>2022-07-14T14:44:21Z</time>
      </trkpt>
      <trkpt lat="46.71201" lon="5.63805">
        <ele>297.67</ele>
        <time>2022-07-14T14:44:27Z</time>
      </trkpt>
      <trkpt lat="46.71199" lon="5.63806">
        <ele>301.99</ele>
        <time>2022-07-14T16:42:21Z</time>
      </trkpt>
      <trkpt lat="46.712" lon="5.63809">
        <ele>301.99</ele>
        <time>2022-07-14T16:42:22Z</time>
      </trkpt>
      <trkpt lat="46.71208" lon="5.6381">
        <ele>302.47</ele>
        <time>2022-07-14T16:42:43Z</time>
      </trkpt>
      <trkpt lat="46.71205" lon="5.63802">
        <ele>301.99</ele>
        <time>2022-07-14T16:43:16Z</time>
      </trkpt>
      <trkpt lat="46.71206" lon="5.63804">
        <ele>301.99</ele>
        <time>2022-07-14T16:43:53Z</time>
      </trkpt>
      <trkpt lat="46.71202" lon="5.6381">
        <ele>301.51</ele>
        <time>2022-07-14T16:44:35Z</time>
      </trkpt>
      <trkpt lat="46.71206" lon="5.63804">
        <ele>265.46</ele>
        <time>2022-07-15T08:26:59Z</time>
      </trkpt>
      <trkpt lat="46.71169" lon="5.6382">
        <ele>265.46</ele>
        <time>2022-07-15T08:27:00Z</time>
      </trkpt>
      <trkpt lat="46.71177" lon="5.63814">
        <ele>265.46</ele>
        <time>2022-07-15T08:27:23Z</time>
      </trkpt>
      <trkpt lat="46.71218" lon="5.63812">
        <ele>269.31</ele>
        <time>2022-07-15T08:27:36Z</time>
      </trkpt>
      <trkpt lat="46.71218" lon="5.63813">
        <ele>273.15</ele>
        <time>2022-07-15T08:27:38Z</time>
      </trkpt>
      <trkpt lat="46.71218" lon="5.63813">
        <ele>277.48</ele>
        <time>2022-07-15T08:27:41Z</time>
      </trkpt>
      <trkpt lat="46.71217" lon="5.63812">
        <ele>279.4</ele>
        <time>2022-07-15T08:27:43Z</time>
      </trkpt>
      <trkpt lat="46.71216" lon="5.63811">
        <ele>282.77</ele>
        <time>2022-07-15T08:27:45Z</time>
      </trkpt>
      <trkpt lat="46.71215" lon="5.6381">
        <ele>287.09</ele>
        <time>2022-07-15T08:27:49Z</time>
      </trkpt>
      <trkpt lat="46.71215" lon="5.63809">
        <ele>290.46</ele>
        <time>2022-07-15T08:27:52Z</time>
      </trkpt>
      <trkpt lat="46.71215" lon="5.63809">
        <ele>290.94</ele>
        <time>2022-07-15T08:27:53Z</time>
      </trkpt>
      <trkpt lat="46.71214" lon="5.63809">
        <ele>293.82</ele>
        <time>2022-07-15T08:27:56Z</time>
      </trkpt>
      <trkpt lat="46.71213" lon="5.63808">
        <ele>297.18</ele>
        <time>2022-07-15T08:28:00Z</time>
      </trkpt>
      <trkpt lat="46.71213" lon="5.63808">
        <ele>301.03</ele>
        <time>2022-07-15T08:28:05Z</time>
      </trkpt>
      <trkpt lat="46.71212" lon="5.63807">
        <ele>301.03</ele>
        <time>2022-07-15T08:28:06Z</time>
      </trkpt>
      <trkpt lat="46.71212" lon="5.63807">
        <ele>302.95</ele>
        <time>2022-07-15T08:28:09Z</time>
      </trkpt>
      <trkpt lat="46.71211" lon="5.63807">
        <ele>305.84</ele>
        <time>2022-07-15T08:28:15Z</time>
      </trkpt>
      <trkpt lat="46.71211" lon="5.63804">
        <ele>308.24</ele>
        <time>2022-07-15T08:28:22Z</time>
      </trkpt>
      <trkpt lat="46.71209" lon="5.63803">
        <ele>311.6</ele>
        <time>2022-07-15T08:28:40Z</time>
      </trkpt>
      <trkpt lat="46.71209" lon="5.63806">
        <ele>314.97</ele>
        <time>2022-07-15T08:28:51Z</time>
      </trkpt>
      <trkpt lat="46.71209" lon="5.63808">
        <ele>316.41</ele>
        <time>2022-07-15T08:29:19Z</time>
      </trkpt>
      <trkpt lat="46.71213" lon="5.63805">
        <ele>316.89</ele>
        <time>2022-07-15T08:29:33Z</time>
      </trkpt>
      <trkpt lat="46.71204" lon="5.63819">
        <ele>318.33</ele>
        <time>2022-07-15T08:29:45Z</time>
      </trkpt>
      <trkpt lat="46.71204" lon="5.6382">
        <ele>317.85</ele>
        <time>2022-07-15T08:29:46Z</time>
      </trkpt>
      <trkpt lat="46.71201" lon="5.63831">
        <ele>318.33</ele>
        <time>2022-07-15T08:29:56Z</time>
      </trkpt>
      <trkpt lat="46.71199" lon="5.63831">
        <ele>318.33</ele>
        <time>2022-07-15T08:30:03Z</time>
      </trkpt>
      <trkpt lat="46.71191" lon="5.63855">
        <ele>317.85</ele>
        <time>2022-07-15T08:30:18Z</time>
      </trkpt>
      <trkpt lat="46.71185" lon="5.63871">
        <ele>318.33</ele>
        <time>2022-07-15T08:30:27Z</time>
      </trkpt>
      <trkpt lat="46.71175" lon="5.63895">
        <ele>318.33</ele>
        <time>2022-07-15T08:30:41Z</time>
      </trkpt>
      <trkpt lat="46.71174" lon="5.63896">
        <ele>317.85</ele>
        <time>2022-07-15T08:30:42Z</time>
      </trkpt>
      <trkpt lat="46.71172" lon="5.63904">
        <ele>318.33</ele>
        <time>2022-07-15T08:30:48Z</time>
      </trkpt>
      <trkpt lat="46.71169" lon="5.6392">
        <ele>318.81</ele>
        <time>2022-07-15T08:30:56Z</time>
      </trkpt>
      <trkpt lat="46.71171" lon="5.63938">
        <ele>318.33</ele>
        <time>2022-07-15T08:31:06Z</time>
      </trkpt>
      <trkpt lat="46.71171" lon="5.63952">
        <ele>318.33</ele>
        <time>2022-07-15T08:31:14Z</time>
      </trkpt>
      <trkpt lat="46.71171" lon="5.63954">
        <ele>318.81</ele>
        <time>2022-07-15T08:31:15Z</time>
      </trkpt>
      <trkpt lat="46.71173" lon="5.63967">
        <ele>318.33</ele>
        <time>2022-07-15T08:31:31Z</time>
      </trkpt>
      <trkpt lat="46.71172" lon="5.63968">
        <ele>318.33</ele>
        <time>2022-07-15T08:31:32Z</time>
      </trkpt>
      <trkpt lat="46.71177" lon="5.63989">
        <ele>319.3</ele>
        <time>2022-07-15T08:31:45Z</time>
      </trkpt>
      <trkpt lat="46.71181" lon="5.64011">
        <ele>318.81</ele>
        <time>2022-07-15T08:31:58Z</time>
      </trkpt>
      <trkpt lat="46.71182" lon="5.64016">
        <ele>318.81</ele>
        <time>2022-07-15T08:32:01Z</time>
      </trkpt>
      <trkpt lat="46.71192" lon="5.64038">
        <ele>318.81</ele>
        <time>2022-07-15T08:32:14Z</time>
      </trkpt>
      <trkpt lat="46.71202" lon="5.64047">
        <ele>319.3</ele>
        <time>2022-07-15T08:32:24Z</time>
      </trkpt>
      <trkpt lat="46.71203" lon="5.64071">
        <ele>320.26</ele>
        <time>2022-07-15T08:32:38Z</time>
      </trkpt>
      <trkpt lat="46.71198" lon="5.64107">
        <ele>320.74</ele>
        <time>2022-07-15T08:32:55Z</time>
      </trkpt>
      <trkpt lat="46.71198" lon="5.64135">
        <ele>321.7</ele>
        <time>2022-07-15T08:33:11Z</time>
      </trkpt>
      <trkpt lat="46.71194" lon="5.64152">
        <ele>322.18</ele>
        <time>2022-07-15T08:33:22Z</time>
      </trkpt>
      <trkpt lat="46.71194" lon="5.64175">
        <ele>323.14</ele>
        <time>2022-07-15T08:33:34Z</time>
      </trkpt>
      <trkpt lat="46.71194" lon="5.64179">
        <ele>323.14</ele>
        <time>2022-07-15T08:33:37Z</time>
      </trkpt>
      <trkpt lat="46.71195" lon="5.64185">
        <ele>323.14</ele>
        <time>2022-07-15T08:33:43Z</time>
      </trkpt>
      <trkpt lat="46.71196" lon="5.64209">
        <ele>323.14</ele>
        <time>2022-07-15T08:33:56Z</time>
      </trkpt>
      <trkpt lat="46.71195" lon="5.64231">
        <ele>323.62</ele>
        <time>2022-07-15T08:34:11Z</time>
      </trkpt>
      <trkpt lat="46.71194" lon="5.64232">
        <ele>324.1</ele>
        <time>2022-07-15T08:34:20Z</time>
      </trkpt>
      <trkpt lat="46.71195" lon="5.64239">
        <ele>323.62</ele>
        <time>2022-07-15T08:34:33Z</time>
      </trkpt>
      <trkpt lat="46.71194" lon="5.64244">
        <ele>324.1</ele>
        <time>2022-07-15T08:34:36Z</time>
      </trkpt>
      <trkpt lat="46.71191" lon="5.6427">
        <ele>324.58</ele>
        <time>2022-07-15T08:34:49Z</time>
      </trkpt>
      <trkpt lat="46.71189" lon="5.64287">
        <ele>325.06</ele>
        <time>2022-07-15T08:34:59Z</time>
      </trkpt>
      <trkpt lat="46.71185" lon="5.64315">
        <ele>326.02</ele>
        <time>2022-07-15T08:35:15Z</time>
      </trkpt>
      <trkpt lat="46.71175" lon="5.64341">
        <ele>327.47</ele>
        <time>2022-07-15T08:35:31Z</time>
      </trkpt>
      <trkpt lat="46.7117" lon="5.64357">
        <ele>327.47</ele>
        <time>2022-07-15T08:35:39Z</time>
      </trkpt>
      <trkpt lat="46.71157" lon="5.64382">
        <ele>327.95</ele>
        <time>2022-07-15T08:35:55Z</time>
      </trkpt>
      <trkpt lat="46.71147" lon="5.64403">
        <ele>328.91</ele>
        <time>2022-07-15T08:36:09Z</time>
      </trkpt>
      <trkpt lat="46.71138" lon="5.64425">
        <ele>329.87</ele>
        <time>2022-07-15T08:36:23Z</time>
      </trkpt>
      <trkpt lat="46.71137" lon="5.64425">
        <ele>329.39</ele>
        <time>2022-07-15T08:36:24Z</time>
      </trkpt>
      <trkpt lat="46.71133" lon="5.6443">
        <ele>330.83</ele>
        <time>2022-07-15T08:36:31Z</time>
      </trkpt>
      <trkpt lat="46.71122" lon="5.6445">
        <ele>332.27</ele>
        <time>2022-07-15T08:36:46Z</time>
      </trkpt>
      <trkpt lat="46.71121" lon="5.64451">
        <ele>332.27</ele>
        <time>2022-07-15T08:36:47Z</time>
      </trkpt>
      <trkpt lat="46.71117" lon="5.64464">
        <ele>333.23</ele>
        <time>2022-07-15T08:36:59Z</time>
      </trkpt>
      <trkpt lat="46.71107" lon="5.64488">
        <ele>335.16</ele>
        <time>2022-07-15T08:37:15Z</time>
      </trkpt>
      <trkpt lat="46.71102" lon="5.64495">
        <ele>335.16</ele>
        <time>2022-07-15T08:37:20Z</time>
      </trkpt>
      <trkpt lat="46.71089" lon="5.64512">
        <ele>337.08</ele>
        <time>2022-07-15T08:37:34Z</time>
      </trkpt>
      <trkpt lat="46.71082" lon="5.64528">
        <ele>338.52</ele>
        <time>2022-07-15T08:37:46Z</time>
      </trkpt>
      <trkpt lat="46.71077" lon="5.64541">
        <ele>339.96</ele>
        <time>2022-07-15T08:37:56Z</time>
      </trkpt>
      <trkpt lat="46.71069" lon="5.64563">
        <ele>342.37</ele>
        <time>2022-07-15T08:38:12Z</time>
      </trkpt>
      <trkpt lat="46.71058" lon="5.6459">
        <ele>342.85</ele>
        <time>2022-07-15T08:38:30Z</time>
      </trkpt>
      <trkpt lat="46.71055" lon="5.646">
        <ele>343.81</ele>
        <time>2022-07-15T08:38:38Z</time>
      </trkpt>
      <trkpt lat="46.71055" lon="5.64602">
        <ele>343.81</ele>
        <time>2022-07-15T08:38:39Z</time>
      </trkpt>
      <trkpt lat="46.71054" lon="5.64603">
        <ele>343.81</ele>
        <time>2022-07-15T08:38:40Z</time>
      </trkpt>
      <trkpt lat="46.71054" lon="5.6461">
        <ele>344.29</ele>
        <time>2022-07-15T08:38:46Z</time>
      </trkpt>
      <trkpt lat="46.71058" lon="5.64613">
        <ele>344.29</ele>
        <time>2022-07-15T08:38:59Z</time>
      </trkpt>
      <trkpt lat="46.71058" lon="5.64617">
        <ele>344.77</ele>
        <time>2022-07-15T08:39:03Z</time>
      </trkpt>
      <trkpt lat="46.7106" lon="5.64628">
        <ele>346.21</ele>
        <time>2022-07-15T08:39:16Z</time>
      </trkpt>
      <trkpt lat="46.71059" lon="5.64626">
        <ele>346.69</ele>
        <time>2022-07-15T08:39:30Z</time>
      </trkpt>
      <trkpt lat="46.71059" lon="5.64627">
        <ele>347.17</ele>
        <time>2022-07-15T08:39:38Z</time>
      </trkpt>
      <trkpt lat="46.71057" lon="5.64622">
        <ele>346.69</ele>
        <time>2022-07-15T08:39:47Z</time>
      </trkpt>
      <trkpt lat="46.71064" lon="5.64622">
        <ele>346.69</ele>
        <time>2022-07-15T08:40:01Z</time>
      </trkpt>
      <trkpt lat="46.71064" lon="5.64623">
        <ele>346.69</ele>
        <time>2022-07-15T08:40:22Z</time>
      </trkpt>
      <trkpt lat="46.71056" lon="5.64624">
        <ele>345.25</ele>
        <time>2022-07-15T08:40:43Z</time>
      </trkpt>
      <trkpt lat="46.71053" lon="5.64632">
        <ele>346.69</ele>
        <time>2022-07-15T08:40:50Z</time>
      </trkpt>
      <trkpt lat="46.7105" lon="5.64646">
        <ele>348.62</ele>
        <time>2022-07-15T08:41:02Z</time>
      </trkpt>
      <trkpt lat="46.71056" lon="5.64651">
        <ele>349.58</ele>
        <time>2022-07-15T08:41:19Z</time>
      </trkpt>
      <trkpt lat="46.71057" lon="5.64652">
        <ele>348.62</ele>
        <time>2022-07-15T08:41:39Z</time>
      </trkpt>
      <trkpt lat="46.71059" lon="5.64661">
        <ele>349.58</ele>
        <time>2022-07-15T08:41:56Z</time>
      </trkpt>
      <trkpt lat="46.71053" lon="5.64674">
        <ele>349.58</ele>
        <time>2022-07-15T08:42:15Z</time>
      </trkpt>
      <trkpt lat="46.71053" lon="5.64675">
        <ele>349.58</ele>
        <time>2022-07-15T08:42:30Z</time>
      </trkpt>
      <trkpt lat="46.71055" lon="5.64675">
        <ele>349.1</ele>
        <time>2022-07-15T08:42:43Z</time>
      </trkpt>
      <trkpt lat="46.71054" lon="5.6468">
        <ele>349.58</ele>
        <time>2022-07-15T08:42:48Z</time>
      </trkpt>
      <trkpt lat="46.7105" lon="5.64696">
        <ele>350.54</ele>
        <time>2022-07-15T08:42:57Z</time>
      </trkpt>
      <trkpt lat="46.7105" lon="5.64701">
        <ele>351.02</ele>
        <time>2022-07-15T08:43:02Z</time>
      </trkpt>
      <trkpt lat="46.71047" lon="5.64709">
        <ele>352.46</ele>
        <time>2022-07-15T08:43:15Z</time>
      </trkpt>
      <trkpt lat="46.71046" lon="5.64711">
        <ele>352.46</ele>
        <time>2022-07-15T08:43:29Z</time>
      </trkpt>
      <trkpt lat="46.71042" lon="5.64735">
        <ele>355.83</ele>
        <time>2022-07-15T08:43:45Z</time>
      </trkpt>
      <trkpt lat="46.71041" lon="5.64744">
        <ele>355.83</ele>
        <time>2022-07-15T08:43:59Z</time>
      </trkpt>
      <trkpt lat="46.71036" lon="5.64757">
        <ele>357.75</ele>
        <time>2022-07-15T08:44:15Z</time>
      </trkpt>
      <trkpt lat="46.71028" lon="5.64765">
        <ele>358.71</ele>
        <time>2022-07-15T08:44:31Z</time>
      </trkpt>
      <trkpt lat="46.71023" lon="5.64774">
        <ele>359.67</ele>
        <time>2022-07-15T08:44:49Z</time>
      </trkpt>
      <trkpt lat="46.71024" lon="5.64777">
        <ele>359.19</ele>
        <time>2022-07-15T08:45:16Z</time>
      </trkpt>
      <trkpt lat="46.71024" lon="5.64779">
        <ele>359.67</ele>
        <time>2022-07-15T08:45:17Z</time>
      </trkpt>
      <trkpt lat="46.71024" lon="5.64781">
        <ele>360.15</ele>
        <time>2022-07-15T08:45:18Z</time>
      </trkpt>
      <trkpt lat="46.71019" lon="5.6479">
        <ele>361.11</ele>
        <time>2022-07-15T08:45:26Z</time>
      </trkpt>
      <trkpt lat="46.71017" lon="5.64791">
        <ele>361.11</ele>
        <time>2022-07-15T08:45:27Z</time>
      </trkpt>
      <trkpt lat="46.71004" lon="5.64801">
        <ele>363.04</ele>
        <time>2022-07-15T08:45:41Z</time>
      </trkpt>
      <trkpt lat="46.70994" lon="5.64802">
        <ele>363.52</ele>
        <time>2022-07-15T08:45:58Z</time>
      </trkpt>
      <trkpt lat="46.7099" lon="5.64805">
        <ele>364.48</ele>
        <time>2022-07-15T08:46:06Z</time>
      </trkpt>
      <trkpt lat="46.70989" lon="5.64805">
        <ele>364.96</ele>
        <time>2022-07-15T08:46:07Z</time>
      </trkpt>
      <trkpt lat="46.70984" lon="5.64808">
        <ele>365.44</ele>
        <time>2022-07-15T08:46:13Z</time>
      </trkpt>
      <trkpt lat="46.70973" lon="5.64817">
        <ele>366.88</ele>
        <time>2022-07-15T08:46:26Z</time>
      </trkpt>
      <trkpt lat="46.70983" lon="5.64819">
        <ele>366.88</ele>
        <time>2022-07-15T08:46:40Z</time>
      </trkpt>
      <trkpt lat="46.70987" lon="5.6482">
        <ele>367.36</ele>
        <time>2022-07-15T08:46:43Z</time>
      </trkpt>
      <trkpt lat="46.7099" lon="5.64824">
        <ele>367.36</ele>
        <time>2022-07-15T08:46:56Z</time>
      </trkpt>
      <trkpt lat="46.70988" lon="5.64824">
        <ele>367.36</ele>
        <time>2022-07-15T08:47:08Z</time>
      </trkpt>
      <trkpt lat="46.70988" lon="5.64825">
        <ele>367.36</ele>
        <time>2022-07-15T08:47:09Z</time>
      </trkpt>
      <trkpt lat="46.70969" lon="5.64821">
        <ele>365.92</ele>
        <time>2022-07-15T08:47:21Z</time>
      </trkpt>
      <trkpt lat="46.70952" lon="5.64827">
        <ele>364</ele>
        <time>2022-07-15T08:47:39Z</time>
      </trkpt>
      <trkpt lat="46.70943" lon="5.64831">
        <ele>363.52</ele>
        <time>2022-07-15T08:47:50Z</time>
      </trkpt>
      <trkpt lat="46.7094" lon="5.64834">
        <ele>363.04</ele>
        <time>2022-07-15T08:47:53Z</time>
      </trkpt>
      <trkpt lat="46.70938" lon="5.64836">
        <ele>362.07</ele>
        <time>2022-07-15T08:47:54Z</time>
      </trkpt>
      <trkpt lat="46.70937" lon="5.64837">
        <ele>362.07</ele>
        <time>2022-07-15T08:47:55Z</time>
      </trkpt>
      <trkpt lat="46.70936" lon="5.64838">
        <ele>361.59</ele>
        <time>2022-07-15T08:47:56Z</time>
      </trkpt>
      <trkpt lat="46.70935" lon="5.6484">
        <ele>361.59</ele>
        <time>2022-07-15T08:47:57Z</time>
      </trkpt>
      <trkpt lat="46.70934" lon="5.64841">
        <ele>362.07</ele>
        <time>2022-07-15T08:47:58Z</time>
      </trkpt>
      <trkpt lat="46.70932" lon="5.64843">
        <ele>362.07</ele>
        <time>2022-07-15T08:47:59Z</time>
      </trkpt>
      <trkpt lat="46.7093" lon="5.64844">
        <ele>361.59</ele>
        <time>2022-07-15T08:48:00Z</time>
      </trkpt>
      <trkpt lat="46.70912" lon="5.64859">
        <ele>360.15</ele>
        <time>2022-07-15T08:48:15Z</time>
      </trkpt>
      <trkpt lat="46.7089" lon="5.64868">
        <ele>358.23</ele>
        <time>2022-07-15T08:48:33Z</time>
      </trkpt>
      <trkpt lat="46.70887" lon="5.6487">
        <ele>357.75</ele>
        <time>2022-07-15T08:48:35Z</time>
      </trkpt>
      <trkpt lat="46.70886" lon="5.64869">
        <ele>357.75</ele>
        <time>2022-07-15T08:48:36Z</time>
      </trkpt>
      <trkpt lat="46.70885" lon="5.64868">
        <ele>357.27</ele>
        <time>2022-07-15T08:48:37Z</time>
      </trkpt>
      <trkpt lat="46.70884" lon="5.64868">
        <ele>357.75</ele>
        <time>2022-07-15T08:48:38Z</time>
      </trkpt>
      <trkpt lat="46.70882" lon="5.64868">
        <ele>357.75</ele>
        <time>2022-07-15T08:48:39Z</time>
      </trkpt>
      <trkpt lat="46.70874" lon="5.64878">
        <ele>357.27</ele>
        <time>2022-07-15T08:48:53Z</time>
      </trkpt>
      <trkpt lat="46.7087" lon="5.64884">
        <ele>356.31</ele>
        <time>2022-07-15T08:49:09Z</time>
      </trkpt>
      <trkpt lat="46.70867" lon="5.64894">
        <ele>355.34</ele>
        <time>2022-07-15T08:49:17Z</time>
      </trkpt>
      <trkpt lat="46.70866" lon="5.64896">
        <ele>355.34</ele>
        <time>2022-07-15T08:49:18Z</time>
      </trkpt>
      <trkpt lat="46.70865" lon="5.64898">
        <ele>355.34</ele>
        <time>2022-07-15T08:49:19Z</time>
      </trkpt>
      <trkpt lat="46.70863" lon="5.649">
        <ele>355.34</ele>
        <time>2022-07-15T08:49:20Z</time>
      </trkpt>
      <trkpt lat="46.70862" lon="5.64902">
        <ele>354.86</ele>
        <time>2022-07-15T08:49:21Z</time>
      </trkpt>
      <trkpt lat="46.70861" lon="5.64905">
        <ele>354.86</ele>
        <time>2022-07-15T08:49:22Z</time>
      </trkpt>
      <trkpt lat="46.7086" lon="5.64908">
        <ele>354.38</ele>
        <time>2022-07-15T08:49:23Z</time>
      </trkpt>
      <trkpt lat="46.70858" lon="5.6491">
        <ele>354.38</ele>
        <time>2022-07-15T08:49:24Z</time>
      </trkpt>
      <trkpt lat="46.70857" lon="5.64912">
        <ele>354.38</ele>
        <time>2022-07-15T08:49:25Z</time>
      </trkpt>
      <trkpt lat="46.70844" lon="5.6493">
        <ele>351.98</ele>
        <time>2022-07-15T08:49:40Z</time>
      </trkpt>
      <trkpt lat="46.70836" lon="5.64931">
        <ele>350.54</ele>
        <time>2022-07-15T08:49:49Z</time>
      </trkpt>
      <trkpt lat="46.70835" lon="5.64932">
        <ele>350.06</ele>
        <time>2022-07-15T08:49:50Z</time>
      </trkpt>
      <trkpt lat="46.7082" lon="5.64936">
        <ele>350.54</ele>
        <time>2022-07-15T08:50:01Z</time>
      </trkpt>
      <trkpt lat="46.70816" lon="5.64939">
        <ele>351.5</ele>
        <time>2022-07-15T08:50:11Z</time>
      </trkpt>
      <trkpt lat="46.70816" lon="5.64941">
        <ele>351.5</ele>
        <time>2022-07-15T08:50:12Z</time>
      </trkpt>
      <trkpt lat="46.70826" lon="5.6495">
        <ele>352.94</ele>
        <time>2022-07-15T08:50:24Z</time>
      </trkpt>
      <trkpt lat="46.7083" lon="5.64949">
        <ele>354.86</ele>
        <time>2022-07-15T08:50:40Z</time>
      </trkpt>
      <trkpt lat="46.70834" lon="5.64947">
        <ele>356.79</ele>
        <time>2022-07-15T08:50:48Z</time>
      </trkpt>
      <trkpt lat="46.70843" lon="5.64945">
        <ele>359.67</ele>
        <time>2022-07-15T08:51:05Z</time>
      </trkpt>
      <trkpt lat="46.70842" lon="5.64957">
        <ele>361.59</ele>
        <time>2022-07-15T08:51:15Z</time>
      </trkpt>
      <trkpt lat="46.70839" lon="5.64969">
        <ele>364</ele>
        <time>2022-07-15T08:51:27Z</time>
      </trkpt>
      <trkpt lat="46.70841" lon="5.64974">
        <ele>364.96</ele>
        <time>2022-07-15T08:51:30Z</time>
      </trkpt>
      <trkpt lat="46.70839" lon="5.64993">
        <ele>366.88</ele>
        <time>2022-07-15T08:51:44Z</time>
      </trkpt>
      <trkpt lat="46.70834" lon="5.65002">
        <ele>368.8</ele>
        <time>2022-07-15T08:51:52Z</time>
      </trkpt>
      <trkpt lat="46.70834" lon="5.65004">
        <ele>368.32</ele>
        <time>2022-07-15T08:51:53Z</time>
      </trkpt>
      <trkpt lat="46.70833" lon="5.65013">
        <ele>369.28</ele>
        <time>2022-07-15T08:52:05Z</time>
      </trkpt>
      <trkpt lat="46.70833" lon="5.65014">
        <ele>369.28</ele>
        <time>2022-07-15T08:52:23Z</time>
      </trkpt>
      <trkpt lat="46.70833" lon="5.65016">
        <ele>369.76</ele>
        <time>2022-07-15T08:52:24Z</time>
      </trkpt>
      <trkpt lat="46.70835" lon="5.65036">
        <ele>372.17</ele>
        <time>2022-07-15T08:52:40Z</time>
      </trkpt>
      <trkpt lat="46.70842" lon="5.65039">
        <ele>371.69</ele>
        <time>2022-07-15T08:53:00Z</time>
      </trkpt>
      <trkpt lat="46.70836" lon="5.65051">
        <ele>372.17</ele>
        <time>2022-07-15T08:53:15Z</time>
      </trkpt>
      <trkpt lat="46.7083" lon="5.65071">
        <ele>373.61</ele>
        <time>2022-07-15T08:53:32Z</time>
      </trkpt>
      <trkpt lat="46.70822" lon="5.65095">
        <ele>373.61</ele>
        <time>2022-07-15T08:53:47Z</time>
      </trkpt>
      <trkpt lat="46.70819" lon="5.65117">
        <ele>374.09</ele>
        <time>2022-07-15T08:54:01Z</time>
      </trkpt>
      <trkpt lat="46.70818" lon="5.6512">
        <ele>374.09</ele>
        <time>2022-07-15T08:54:03Z</time>
      </trkpt>
      <trkpt lat="46.70812" lon="5.65147">
        <ele>375.53</ele>
        <time>2022-07-15T08:54:22Z</time>
      </trkpt>
      <trkpt lat="46.70807" lon="5.65166">
        <ele>376.49</ele>
        <time>2022-07-15T08:54:38Z</time>
      </trkpt>
      <trkpt lat="46.70795" lon="5.65163">
        <ele>376.49</ele>
        <time>2022-07-15T08:54:56Z</time>
      </trkpt>
      <trkpt lat="46.70792" lon="5.65179">
        <ele>379.86</ele>
        <time>2022-07-15T08:55:11Z</time>
      </trkpt>
      <trkpt lat="46.70791" lon="5.65195">
        <ele>382.26</ele>
        <time>2022-07-15T08:55:29Z</time>
      </trkpt>
      <trkpt lat="46.70794" lon="5.65221">
        <ele>385.63</ele>
        <time>2022-07-15T08:55:46Z</time>
      </trkpt>
      <trkpt lat="46.70798" lon="5.6524">
        <ele>387.55</ele>
        <time>2022-07-15T08:56:03Z</time>
      </trkpt>
      <trkpt lat="46.70803" lon="5.65262">
        <ele>389.47</ele>
        <time>2022-07-15T08:56:17Z</time>
      </trkpt>
      <trkpt lat="46.70809" lon="5.65274">
        <ele>392.36</ele>
        <time>2022-07-15T08:56:33Z</time>
      </trkpt>
      <trkpt lat="46.70815" lon="5.65289">
        <ele>393.32</ele>
        <time>2022-07-15T08:56:51Z</time>
      </trkpt>
      <trkpt lat="46.70818" lon="5.65305">
        <ele>395.72</ele>
        <time>2022-07-15T08:57:06Z</time>
      </trkpt>
      <trkpt lat="46.70821" lon="5.65332">
        <ele>397.16</ele>
        <time>2022-07-15T08:57:24Z</time>
      </trkpt>
      <trkpt lat="46.70824" lon="5.65347">
        <ele>399.57</ele>
        <time>2022-07-15T08:57:39Z</time>
      </trkpt>
      <trkpt lat="46.70827" lon="5.65369">
        <ele>400.05</ele>
        <time>2022-07-15T08:57:56Z</time>
      </trkpt>
      <trkpt lat="46.70832" lon="5.65391">
        <ele>403.41</ele>
        <time>2022-07-15T08:58:16Z</time>
      </trkpt>
      <trkpt lat="46.70837" lon="5.65413">
        <ele>405.81</ele>
        <time>2022-07-15T08:58:34Z</time>
      </trkpt>
      <trkpt lat="46.70842" lon="5.65438">
        <ele>408.22</ele>
        <time>2022-07-15T08:58:54Z</time>
      </trkpt>
      <trkpt lat="46.70843" lon="5.65458">
        <ele>410.62</ele>
        <time>2022-07-15T08:59:10Z</time>
      </trkpt>
      <trkpt lat="46.70845" lon="5.6548">
        <ele>413.5</ele>
        <time>2022-07-15T08:59:28Z</time>
      </trkpt>
      <trkpt lat="46.70851" lon="5.65495">
        <ele>416.87</ele>
        <time>2022-07-15T08:59:46Z</time>
      </trkpt>
      <trkpt lat="46.7086" lon="5.65507">
        <ele>419.75</ele>
        <time>2022-07-15T09:00:06Z</time>
      </trkpt>
      <trkpt lat="46.70865" lon="5.65528">
        <ele>422.16</ele>
        <time>2022-07-15T09:00:20Z</time>
      </trkpt>
      <trkpt lat="46.70871" lon="5.65547">
        <ele>425.04</ele>
        <time>2022-07-15T09:00:39Z</time>
      </trkpt>
      <trkpt lat="46.70875" lon="5.65566">
        <ele>428.89</ele>
        <time>2022-07-15T09:00:57Z</time>
      </trkpt>
      <trkpt lat="46.70876" lon="5.65579">
        <ele>430.81</ele>
        <time>2022-07-15T09:01:13Z</time>
      </trkpt>
      <trkpt lat="46.70881" lon="5.65597">
        <ele>433.21</ele>
        <time>2022-07-15T09:01:27Z</time>
      </trkpt>
      <trkpt lat="46.70883" lon="5.65616">
        <ele>436.58</ele>
        <time>2022-07-15T09:01:42Z</time>
      </trkpt>
      <trkpt lat="46.70886" lon="5.65631">
        <ele>438.98</ele>
        <time>2022-07-15T09:01:57Z</time>
      </trkpt>
      <trkpt lat="46.70886" lon="5.65648">
        <ele>439.94</ele>
        <time>2022-07-15T09:02:14Z</time>
      </trkpt>
      <trkpt lat="46.70882" lon="5.65667">
        <ele>443.31</ele>
        <time>2022-07-15T09:02:30Z</time>
      </trkpt>
      <trkpt lat="46.70878" lon="5.65679">
        <ele>445.23</ele>
        <time>2022-07-15T09:02:45Z</time>
      </trkpt>
      <trkpt lat="46.70874" lon="5.65704">
        <ele>447.63</ele>
        <time>2022-07-15T09:03:01Z</time>
      </trkpt>
      <trkpt lat="46.70867" lon="5.65722">
        <ele>450.52</ele>
        <time>2022-07-15T09:03:20Z</time>
      </trkpt>
      <trkpt lat="46.7086" lon="5.6574">
        <ele>452.92</ele>
        <time>2022-07-15T09:03:38Z</time>
      </trkpt>
      <trkpt lat="46.70855" lon="5.65759">
        <ele>455.8</ele>
        <time>2022-07-15T09:03:58Z</time>
      </trkpt>
      <trkpt lat="46.70848" lon="5.65775">
        <ele>458.21</ele>
        <time>2022-07-15T09:04:18Z</time>
      </trkpt>
      <trkpt lat="46.70838" lon="5.65794">
        <ele>460.13</ele>
        <time>2022-07-15T09:04:36Z</time>
      </trkpt>
      <trkpt lat="46.70834" lon="5.65808">
        <ele>463.49</ele>
        <time>2022-07-15T09:04:53Z</time>
      </trkpt>
      <trkpt lat="46.70825" lon="5.65824">
        <ele>465.9</ele>
        <time>2022-07-15T09:05:12Z</time>
      </trkpt>
      <trkpt lat="46.7081" lon="5.65838">
        <ele>469.26</ele>
        <time>2022-07-15T09:05:32Z</time>
      </trkpt>
      <trkpt lat="46.70805" lon="5.65852">
        <ele>471.66</ele>
        <time>2022-07-15T09:05:51Z</time>
      </trkpt>
      <trkpt lat="46.70795" lon="5.65863">
        <ele>475.03</ele>
        <time>2022-07-15T09:06:06Z</time>
      </trkpt>
      <trkpt lat="46.70784" lon="5.65876">
        <ele>478.39</ele>
        <time>2022-07-15T09:06:25Z</time>
      </trkpt>
      <trkpt lat="46.7077" lon="5.65881">
        <ele>480.8</ele>
        <time>2022-07-15T09:06:44Z</time>
      </trkpt>
      <trkpt lat="46.70757" lon="5.65882">
        <ele>483.68</ele>
        <time>2022-07-15T09:07:02Z</time>
      </trkpt>
      <trkpt lat="46.70745" lon="5.65886">
        <ele>487.53</ele>
        <time>2022-07-15T09:07:20Z</time>
      </trkpt>
      <trkpt lat="46.70741" lon="5.65884">
        <ele>487.53</ele>
        <time>2022-07-15T09:07:25Z</time>
      </trkpt>
      <trkpt lat="46.70719" lon="5.65875">
        <ele>490.41</ele>
        <time>2022-07-15T09:07:45Z</time>
      </trkpt>
      <trkpt lat="46.70718" lon="5.65884">
        <ele>491.85</ele>
        <time>2022-07-15T09:08:08Z</time>
      </trkpt>
      <trkpt lat="46.70717" lon="5.65882">
        <ele>492.33</ele>
        <time>2022-07-15T09:08:36Z</time>
      </trkpt>
      <trkpt lat="46.70713" lon="5.65882">
        <ele>492.81</ele>
        <time>2022-07-15T09:09:07Z</time>
      </trkpt>
      <trkpt lat="46.70707" lon="5.65887">
        <ele>494.74</ele>
        <time>2022-07-15T09:09:22Z</time>
      </trkpt>
      <trkpt lat="46.707" lon="5.65885">
        <ele>498.1</ele>
        <time>2022-07-15T09:09:34Z</time>
      </trkpt>
      <trkpt lat="46.70694" lon="5.65884">
        <ele>499.06</ele>
        <time>2022-07-15T09:09:41Z</time>
      </trkpt>
      <trkpt lat="46.70687" lon="5.65888">
        <ele>500.98</ele>
        <time>2022-07-15T09:09:51Z</time>
      </trkpt>
      <trkpt lat="46.70686" lon="5.65888">
        <ele>500.02</ele>
        <time>2022-07-15T09:09:52Z</time>
      </trkpt>
      <trkpt lat="46.70671" lon="5.65894">
        <ele>501.95</ele>
        <time>2022-07-15T09:10:06Z</time>
      </trkpt>
      <trkpt lat="46.70657" lon="5.65905">
        <ele>503.39</ele>
        <time>2022-07-15T09:10:19Z</time>
      </trkpt>
      <trkpt lat="46.70654" lon="5.65908">
        <ele>503.87</ele>
        <time>2022-07-15T09:10:24Z</time>
      </trkpt>
      <trkpt lat="46.70654" lon="5.6591">
        <ele>503.39</ele>
        <time>2022-07-15T09:10:25Z</time>
      </trkpt>
      <trkpt lat="46.70649" lon="5.65916">
        <ele>504.83</ele>
        <time>2022-07-15T09:10:35Z</time>
      </trkpt>
      <trkpt lat="46.70646" lon="5.65908">
        <ele>504.83</ele>
        <time>2022-07-15T09:10:44Z</time>
      </trkpt>
      <trkpt lat="46.70646" lon="5.65907">
        <ele>505.31</ele>
        <time>2022-07-15T09:10:45Z</time>
      </trkpt>
      <trkpt lat="46.70645" lon="5.65904">
        <ele>505.31</ele>
        <time>2022-07-15T09:10:46Z</time>
      </trkpt>
      <trkpt lat="46.70642" lon="5.65883">
        <ele>506.27</ele>
        <time>2022-07-15T09:10:59Z</time>
      </trkpt>
      <trkpt lat="46.70642" lon="5.65874">
        <ele>506.27</ele>
        <time>2022-07-15T09:11:05Z</time>
      </trkpt>
      <trkpt lat="46.70642" lon="5.65872">
        <ele>506.75</ele>
        <time>2022-07-15T09:11:06Z</time>
      </trkpt>
      <trkpt lat="46.70642" lon="5.65869">
        <ele>506.27</ele>
        <time>2022-07-15T09:11:07Z</time>
      </trkpt>
      <trkpt lat="46.70643" lon="5.65868">
        <ele>506.27</ele>
        <time>2022-07-15T09:11:08Z</time>
      </trkpt>
      <trkpt lat="46.70643" lon="5.65866">
        <ele>506.75</ele>
        <time>2022-07-15T09:11:09Z</time>
      </trkpt>
      <trkpt lat="46.70643" lon="5.65853">
        <ele>506.27</ele>
        <time>2022-07-15T09:11:24Z</time>
      </trkpt>
      <trkpt lat="46.70642" lon="5.65854">
        <ele>506.27</ele>
        <time>2022-07-15T09:11:25Z</time>
      </trkpt>
      <trkpt lat="46.70641" lon="5.65855">
        <ele>506.27</ele>
        <time>2022-07-15T09:11:26Z</time>
      </trkpt>
      <trkpt lat="46.7063" lon="5.65856">
        <ele>506.27</ele>
        <time>2022-07-15T09:11:37Z</time>
      </trkpt>
      <trkpt lat="46.70618" lon="5.65823">
        <ele>506.27</ele>
        <time>2022-07-15T09:11:55Z</time>
      </trkpt>
      <trkpt lat="46.70614" lon="5.65812">
        <ele>505.79</ele>
        <time>2022-07-15T09:12:03Z</time>
      </trkpt>
      <trkpt lat="46.70608" lon="5.65791">
        <ele>506.27</ele>
        <time>2022-07-15T09:12:18Z</time>
      </trkpt>
      <trkpt lat="46.70607" lon="5.65789">
        <ele>505.79</ele>
        <time>2022-07-15T09:12:19Z</time>
      </trkpt>
      <trkpt lat="46.70606" lon="5.65788">
        <ele>506.27</ele>
        <time>2022-07-15T09:12:20Z</time>
      </trkpt>
      <trkpt lat="46.70597" lon="5.65772">
        <ele>507.23</ele>
        <time>2022-07-15T09:12:33Z</time>
      </trkpt>
      <trkpt lat="46.70597" lon="5.65771">
        <ele>507.23</ele>
        <time>2022-07-15T09:12:34Z</time>
      </trkpt>
      <trkpt lat="46.70582" lon="5.65752">
        <ele>508.19</ele>
        <time>2022-07-15T09:12:50Z</time>
      </trkpt>
      <trkpt lat="46.70567" lon="5.65741">
        <ele>510.6</ele>
        <time>2022-07-15T09:13:07Z</time>
      </trkpt>
      <trkpt lat="46.70565" lon="5.65735">
        <ele>510.6</ele>
        <time>2022-07-15T09:13:12Z</time>
      </trkpt>
      <trkpt lat="46.70563" lon="5.65734">
        <ele>510.6</ele>
        <time>2022-07-15T09:13:13Z</time>
      </trkpt>
      <trkpt lat="46.70543" lon="5.6572">
        <ele>510.12</ele>
        <time>2022-07-15T09:13:28Z</time>
      </trkpt>
      <trkpt lat="46.70527" lon="5.65713">
        <ele>510.12</ele>
        <time>2022-07-15T09:13:45Z</time>
      </trkpt>
      <trkpt lat="46.70519" lon="5.6571">
        <ele>509.64</ele>
        <time>2022-07-15T09:14:01Z</time>
      </trkpt>
      <trkpt lat="46.7051" lon="5.657">
        <ele>512.04</ele>
        <time>2022-07-15T09:14:18Z</time>
      </trkpt>
      <trkpt lat="46.70503" lon="5.65677">
        <ele>511.56</ele>
        <time>2022-07-15T09:14:36Z</time>
      </trkpt>
      <trkpt lat="46.70497" lon="5.65647">
        <ele>511.08</ele>
        <time>2022-07-15T09:14:53Z</time>
      </trkpt>
      <trkpt lat="46.70499" lon="5.65627">
        <ele>511.08</ele>
        <time>2022-07-15T09:15:08Z</time>
      </trkpt>
      <trkpt lat="46.70495" lon="5.65606">
        <ele>511.08</ele>
        <time>2022-07-15T09:15:22Z</time>
      </trkpt>
      <trkpt lat="46.70484" lon="5.65582">
        <ele>510.6</ele>
        <time>2022-07-15T09:15:35Z</time>
      </trkpt>
      <trkpt lat="46.70468" lon="5.65567">
        <ele>510.6</ele>
        <time>2022-07-15T09:15:50Z</time>
      </trkpt>
      <trkpt lat="46.70462" lon="5.6556">
        <ele>510.6</ele>
        <time>2022-07-15T09:15:54Z</time>
      </trkpt>
      <trkpt lat="46.7046" lon="5.65557">
        <ele>511.56</ele>
        <time>2022-07-15T09:15:56Z</time>
      </trkpt>
      <trkpt lat="46.70451" lon="5.6553">
        <ele>511.08</ele>
        <time>2022-07-15T09:16:14Z</time>
      </trkpt>
      <trkpt lat="46.70441" lon="5.6549">
        <ele>509.64</ele>
        <time>2022-07-15T09:16:32Z</time>
      </trkpt>
      <trkpt lat="46.70439" lon="5.65477">
        <ele>508.19</ele>
        <time>2022-07-15T09:16:41Z</time>
      </trkpt>
      <trkpt lat="46.70437" lon="5.65457">
        <ele>507.23</ele>
        <time>2022-07-15T09:16:54Z</time>
      </trkpt>
      <trkpt lat="46.70433" lon="5.65426">
        <ele>506.75</ele>
        <time>2022-07-15T09:17:12Z</time>
      </trkpt>
      <trkpt lat="46.70442" lon="5.65399">
        <ele>507.23</ele>
        <time>2022-07-15T09:17:22Z</time>
      </trkpt>
      <trkpt lat="46.70449" lon="5.65358">
        <ele>507.23</ele>
        <time>2022-07-15T09:17:41Z</time>
      </trkpt>
      <trkpt lat="46.70452" lon="5.65337">
        <ele>507.71</ele>
        <time>2022-07-15T09:18:00Z</time>
      </trkpt>
      <trkpt lat="46.70442" lon="5.65313">
        <ele>508.19</ele>
        <time>2022-07-15T09:18:19Z</time>
      </trkpt>
      <trkpt lat="46.7044" lon="5.65309">
        <ele>507.71</ele>
        <time>2022-07-15T09:18:22Z</time>
      </trkpt>
      <trkpt lat="46.70429" lon="5.65278">
        <ele>509.16</ele>
        <time>2022-07-15T09:18:38Z</time>
      </trkpt>
      <trkpt lat="46.70428" lon="5.65254">
        <ele>510.6</ele>
        <time>2022-07-15T09:18:56Z</time>
      </trkpt>
      <trkpt lat="46.70429" lon="5.65236">
        <ele>511.56</ele>
        <time>2022-07-15T09:19:12Z</time>
      </trkpt>
      <trkpt lat="46.7043" lon="5.65233">
        <ele>511.56</ele>
        <time>2022-07-15T09:19:46Z</time>
      </trkpt>
      <trkpt lat="46.70427" lon="5.65236">
        <ele>512.04</ele>
        <time>2022-07-15T09:19:58Z</time>
      </trkpt>
      <trkpt lat="46.70432" lon="5.65235">
        <ele>511.56</ele>
        <time>2022-07-15T09:20:15Z</time>
      </trkpt>
      <trkpt lat="46.70434" lon="5.65233">
        <ele>512.52</ele>
        <time>2022-07-15T09:20:37Z</time>
      </trkpt>
      <trkpt lat="46.70434" lon="5.65234">
        <ele>511.08</ele>
        <time>2022-07-15T09:21:03Z</time>
      </trkpt>
      <trkpt lat="46.70432" lon="5.65237">
        <ele>511.56</ele>
        <time>2022-07-15T09:21:14Z</time>
      </trkpt>
      <trkpt lat="46.7043" lon="5.65253">
        <ele>509.64</ele>
        <time>2022-07-15T09:21:31Z</time>
      </trkpt>
      <trkpt lat="46.70427" lon="5.6526">
        <ele>509.64</ele>
        <time>2022-07-15T09:21:51Z</time>
      </trkpt>
      <trkpt lat="46.70429" lon="5.65267">
        <ele>510.12</ele>
        <time>2022-07-15T09:22:15Z</time>
      </trkpt>
      <trkpt lat="46.70427" lon="5.65272">
        <ele>510.12</ele>
        <time>2022-07-15T09:22:38Z</time>
      </trkpt>
      <trkpt lat="46.7042" lon="5.65287">
        <ele>512.04</ele>
        <time>2022-07-15T09:22:53Z</time>
      </trkpt>
      <trkpt lat="46.70414" lon="5.65299">
        <ele>513</ele>
        <time>2022-07-15T09:23:08Z</time>
      </trkpt>
      <trkpt lat="46.70403" lon="5.653">
        <ele>513.96</ele>
        <time>2022-07-15T09:23:25Z</time>
      </trkpt>
      <trkpt lat="46.70393" lon="5.65308">
        <ele>513.96</ele>
        <time>2022-07-15T09:23:44Z</time>
      </trkpt>
      <trkpt lat="46.70387" lon="5.65312">
        <ele>513</ele>
        <time>2022-07-15T09:23:58Z</time>
      </trkpt>
      <trkpt lat="46.70386" lon="5.6531">
        <ele>513.48</ele>
        <time>2022-07-15T09:24:20Z</time>
      </trkpt>
      <trkpt lat="46.70388" lon="5.65318">
        <ele>513.96</ele>
        <time>2022-07-15T09:24:26Z</time>
      </trkpt>
      <trkpt lat="46.7038" lon="5.65329">
        <ele>512.52</ele>
        <time>2022-07-15T09:24:42Z</time>
      </trkpt>
      <trkpt lat="46.70372" lon="5.65345">
        <ele>511.56</ele>
        <time>2022-07-15T09:24:56Z</time>
      </trkpt>
      <trkpt lat="46.70362" lon="5.65368">
        <ele>512.04</ele>
        <time>2022-07-15T09:25:13Z</time>
      </trkpt>
      <trkpt lat="46.70354" lon="5.65382">
        <ele>511.56</ele>
        <time>2022-07-15T09:25:32Z</time>
      </trkpt>
      <trkpt lat="46.70338" lon="5.65393">
        <ele>513.48</ele>
        <time>2022-07-15T09:25:47Z</time>
      </trkpt>
      <trkpt lat="46.70326" lon="5.65406">
        <ele>513.48</ele>
        <time>2022-07-15T09:26:01Z</time>
      </trkpt>
      <trkpt lat="46.70315" lon="5.65425">
        <ele>514.92</ele>
        <time>2022-07-15T09:26:15Z</time>
      </trkpt>
      <trkpt lat="46.70309" lon="5.65431">
        <ele>514.92</ele>
        <time>2022-07-15T09:26:22Z</time>
      </trkpt>
      <trkpt lat="46.70304" lon="5.65441">
        <ele>515.4</ele>
        <time>2022-07-15T09:26:30Z</time>
      </trkpt>
      <trkpt lat="46.70298" lon="5.65464">
        <ele>513.96</ele>
        <time>2022-07-15T09:26:44Z</time>
      </trkpt>
      <trkpt lat="46.7029" lon="5.65473">
        <ele>514.44</ele>
        <time>2022-07-15T09:26:56Z</time>
      </trkpt>
      <trkpt lat="46.70281" lon="5.6548">
        <ele>514.92</ele>
        <time>2022-07-15T09:27:04Z</time>
      </trkpt>
      <trkpt lat="46.70268" lon="5.65489">
        <ele>516.37</ele>
        <time>2022-07-15T09:27:18Z</time>
      </trkpt>
      <trkpt lat="46.70256" lon="5.65493">
        <ele>517.33</ele>
        <time>2022-07-15T09:27:31Z</time>
      </trkpt>
      <trkpt lat="46.70248" lon="5.65499">
        <ele>517.81</ele>
        <time>2022-07-15T09:27:43Z</time>
      </trkpt>
      <trkpt lat="46.70242" lon="5.65516">
        <ele>516.37</ele>
        <time>2022-07-15T09:27:56Z</time>
      </trkpt>
      <trkpt lat="46.70242" lon="5.65517">
        <ele>515.88</ele>
        <time>2022-07-15T09:27:57Z</time>
      </trkpt>
      <trkpt lat="46.70237" lon="5.65539">
        <ele>514.92</ele>
        <time>2022-07-15T09:28:11Z</time>
      </trkpt>
      <trkpt lat="46.70226" lon="5.65558">
        <ele>515.88</ele>
        <time>2022-07-15T09:28:28Z</time>
      </trkpt>
      <trkpt lat="46.70215" lon="5.65573">
        <ele>516.85</ele>
        <time>2022-07-15T09:28:43Z</time>
      </trkpt>
      <trkpt lat="46.7021" lon="5.65587">
        <ele>517.33</ele>
        <time>2022-07-15T09:28:57Z</time>
      </trkpt>
      <trkpt lat="46.70208" lon="5.6559">
        <ele>518.77</ele>
        <time>2022-07-15T09:29:00Z</time>
      </trkpt>
      <trkpt lat="46.70202" lon="5.65609">
        <ele>518.29</ele>
        <time>2022-07-15T09:29:19Z</time>
      </trkpt>
      <trkpt lat="46.70199" lon="5.65618">
        <ele>517.81</ele>
        <time>2022-07-15T09:29:23Z</time>
      </trkpt>
      <trkpt lat="46.70193" lon="5.65624">
        <ele>517.81</ele>
        <time>2022-07-15T09:29:40Z</time>
      </trkpt>
      <trkpt lat="46.70187" lon="5.65634">
        <ele>516.85</ele>
        <time>2022-07-15T09:30:00Z</time>
      </trkpt>
      <trkpt lat="46.70183" lon="5.65631">
        <ele>516.85</ele>
        <time>2022-07-15T09:30:23Z</time>
      </trkpt>
      <trkpt lat="46.70191" lon="5.65638">
        <ele>517.81</ele>
        <time>2022-07-15T09:30:39Z</time>
      </trkpt>
      <trkpt lat="46.7019" lon="5.65643">
        <ele>517.81</ele>
        <time>2022-07-15T09:31:02Z</time>
      </trkpt>
      <trkpt lat="46.70191" lon="5.65645">
        <ele>517.81</ele>
        <time>2022-07-15T09:31:36Z</time>
      </trkpt>
      <trkpt lat="46.70191" lon="5.6564">
        <ele>517.81</ele>
        <time>2022-07-15T09:32:06Z</time>
      </trkpt>
      <trkpt lat="46.70191" lon="5.65641">
        <ele>517.81</ele>
        <time>2022-07-15T09:32:38Z</time>
      </trkpt>
      <trkpt lat="46.70191" lon="5.6564">
        <ele>517.81</ele>
        <time>2022-07-15T09:33:03Z</time>
      </trkpt>
      <trkpt lat="46.70193" lon="5.65639">
        <ele>517.33</ele>
        <time>2022-07-15T09:33:28Z</time>
      </trkpt>
      <trkpt lat="46.70189" lon="5.6565">
        <ele>517.33</ele>
        <time>2022-07-15T09:33:52Z</time>
      </trkpt>
      <trkpt lat="46.70188" lon="5.65659">
        <ele>517.33</ele>
        <time>2022-07-15T09:34:01Z</time>
      </trkpt>
      <trkpt lat="46.7018" lon="5.65672">
        <ele>516.85</ele>
        <time>2022-07-15T09:34:16Z</time>
      </trkpt>
      <trkpt lat="46.70169" lon="5.65677">
        <ele>518.29</ele>
        <time>2022-07-15T09:34:32Z</time>
      </trkpt>
      <trkpt lat="46.70159" lon="5.65684">
        <ele>518.77</ele>
        <time>2022-07-15T09:34:46Z</time>
      </trkpt>
      <trkpt lat="46.70148" lon="5.65687">
        <ele>521.17</ele>
        <time>2022-07-15T09:35:01Z</time>
      </trkpt>
      <trkpt lat="46.70142" lon="5.65696">
        <ele>522.61</ele>
        <time>2022-07-15T09:35:14Z</time>
      </trkpt>
      <trkpt lat="46.70131" lon="5.65703">
        <ele>524.06</ele>
        <time>2022-07-15T09:35:27Z</time>
      </trkpt>
      <trkpt lat="46.70129" lon="5.65711">
        <ele>524.06</ele>
        <time>2022-07-15T09:35:34Z</time>
      </trkpt>
      <trkpt lat="46.70126" lon="5.65718">
        <ele>524.06</ele>
        <time>2022-07-15T09:35:39Z</time>
      </trkpt>
      <trkpt lat="46.70113" lon="5.6573">
        <ele>525.02</ele>
        <time>2022-07-15T09:35:55Z</time>
      </trkpt>
      <trkpt lat="46.70108" lon="5.65732">
        <ele>525.02</ele>
        <time>2022-07-15T09:36:10Z</time>
      </trkpt>
      <trkpt lat="46.70105" lon="5.65731">
        <ele>525.02</ele>
        <time>2022-07-15T09:36:37Z</time>
      </trkpt>
      <trkpt lat="46.70106" lon="5.65738">
        <ele>524.06</ele>
        <time>2022-07-15T09:36:50Z</time>
      </trkpt>
      <trkpt lat="46.701" lon="5.65753">
        <ele>524.54</ele>
        <time>2022-07-15T09:37:01Z</time>
      </trkpt>
      <trkpt lat="46.70099" lon="5.65756">
        <ele>524.54</ele>
        <time>2022-07-15T09:37:04Z</time>
      </trkpt>
      <trkpt lat="46.70087" lon="5.65759">
        <ele>525.02</ele>
        <time>2022-07-15T09:37:15Z</time>
      </trkpt>
      <trkpt lat="46.70078" lon="5.65761">
        <ele>525.02</ele>
        <time>2022-07-15T09:37:24Z</time>
      </trkpt>
      <trkpt lat="46.70067" lon="5.65765">
        <ele>524.54</ele>
        <time>2022-07-15T09:37:33Z</time>
      </trkpt>
      <trkpt lat="46.70053" lon="5.65777">
        <ele>523.58</ele>
        <time>2022-07-15T09:37:47Z</time>
      </trkpt>
      <trkpt lat="46.70039" lon="5.65788">
        <ele>522.13</ele>
        <time>2022-07-15T09:38:01Z</time>
      </trkpt>
      <trkpt lat="46.70038" lon="5.65789">
        <ele>522.61</ele>
        <time>2022-07-15T09:38:02Z</time>
      </trkpt>
      <trkpt lat="46.70029" lon="5.65801">
        <ele>522.13</ele>
        <time>2022-07-15T09:38:14Z</time>
      </trkpt>
      <trkpt lat="46.70027" lon="5.65805">
        <ele>521.65</ele>
        <time>2022-07-15T09:38:18Z</time>
      </trkpt>
      <trkpt lat="46.70023" lon="5.65815">
        <ele>522.13</ele>
        <time>2022-07-15T09:38:25Z</time>
      </trkpt>
      <trkpt lat="46.70012" lon="5.65823">
        <ele>521.17</ele>
        <time>2022-07-15T09:38:38Z</time>
      </trkpt>
      <trkpt lat="46.70003" lon="5.65832">
        <ele>521.65</ele>
        <time>2022-07-15T09:38:50Z</time>
      </trkpt>
      <trkpt lat="46.69994" lon="5.65834">
        <ele>521.17</ele>
        <time>2022-07-15T09:38:57Z</time>
      </trkpt>
      <trkpt lat="46.69981" lon="5.65836">
        <ele>519.25</ele>
        <time>2022-07-15T09:39:09Z</time>
      </trkpt>
      <trkpt lat="46.69982" lon="5.65839">
        <ele>519.25</ele>
        <time>2022-07-15T09:39:23Z</time>
      </trkpt>
      <trkpt lat="46.6998" lon="5.65835">
        <ele>519.25</ele>
        <time>2022-07-15T09:39:48Z</time>
      </trkpt>
      <trkpt lat="46.69981" lon="5.65837">
        <ele>519.73</ele>
        <time>2022-07-15T09:40:25Z</time>
      </trkpt>
      <trkpt lat="46.69981" lon="5.6584">
        <ele>520.21</ele>
        <time>2022-07-15T09:40:43Z</time>
      </trkpt>
      <trkpt lat="46.69982" lon="5.65846">
        <ele>520.21</ele>
        <time>2022-07-15T09:40:47Z</time>
      </trkpt>
      <trkpt lat="46.69983" lon="5.65869">
        <ele>521.17</ele>
        <time>2022-07-15T09:41:03Z</time>
      </trkpt>
      <trkpt lat="46.69983" lon="5.6587">
        <ele>521.17</ele>
        <time>2022-07-15T09:41:04Z</time>
      </trkpt>
      <trkpt lat="46.69978" lon="5.65887">
        <ele>520.21</ele>
        <time>2022-07-15T09:41:17Z</time>
      </trkpt>
      <trkpt lat="46.69973" lon="5.65899">
        <ele>520.69</ele>
        <time>2022-07-15T09:41:28Z</time>
      </trkpt>
      <trkpt lat="46.69962" lon="5.65911">
        <ele>520.21</ele>
        <time>2022-07-15T09:41:42Z</time>
      </trkpt>
      <trkpt lat="46.69961" lon="5.6592">
        <ele>520.69</ele>
        <time>2022-07-15T09:41:48Z</time>
      </trkpt>
      <trkpt lat="46.69957" lon="5.65936">
        <ele>520.21</ele>
        <time>2022-07-15T09:42:00Z</time>
      </trkpt>
      <trkpt lat="46.69955" lon="5.65938">
        <ele>520.21</ele>
        <time>2022-07-15T09:42:02Z</time>
      </trkpt>
      <trkpt lat="46.69947" lon="5.65961">
        <ele>518.77</ele>
        <time>2022-07-15T09:42:16Z</time>
      </trkpt>
      <trkpt lat="46.69946" lon="5.65967">
        <ele>518.77</ele>
        <time>2022-07-15T09:42:23Z</time>
      </trkpt>
      <trkpt lat="46.69943" lon="5.65979">
        <ele>517.33</ele>
        <time>2022-07-15T09:42:32Z</time>
      </trkpt>
      <trkpt lat="46.69942" lon="5.6599">
        <ele>517.81</ele>
        <time>2022-07-15T09:42:38Z</time>
      </trkpt>
      <trkpt lat="46.69932" lon="5.66006">
        <ele>516.85</ele>
        <time>2022-07-15T09:42:52Z</time>
      </trkpt>
      <trkpt lat="46.69918" lon="5.6601">
        <ele>516.37</ele>
        <time>2022-07-15T09:43:07Z</time>
      </trkpt>
      <trkpt lat="46.69903" lon="5.66012">
        <ele>518.29</ele>
        <time>2022-07-15T09:43:23Z</time>
      </trkpt>
      <trkpt lat="46.6989" lon="5.66021">
        <ele>518.77</ele>
        <time>2022-07-15T09:43:40Z</time>
      </trkpt>
      <trkpt lat="46.6988" lon="5.66034">
        <ele>518.77</ele>
        <time>2022-07-15T09:43:54Z</time>
      </trkpt>
      <trkpt lat="46.69881" lon="5.66041">
        <ele>518.77</ele>
        <time>2022-07-15T09:44:15Z</time>
      </trkpt>
      <trkpt lat="46.69869" lon="5.66045">
        <ele>518.29</ele>
        <time>2022-07-15T09:44:34Z</time>
      </trkpt>
      <trkpt lat="46.69859" lon="5.66054">
        <ele>516.85</ele>
        <time>2022-07-15T09:44:45Z</time>
      </trkpt>
      <trkpt lat="46.69848" lon="5.66056">
        <ele>516.85</ele>
        <time>2022-07-15T09:44:57Z</time>
      </trkpt>
      <trkpt lat="46.69841" lon="5.66057">
        <ele>515.4</ele>
        <time>2022-07-15T09:45:05Z</time>
      </trkpt>
      <trkpt lat="46.6983" lon="5.66063">
        <ele>515.4</ele>
        <time>2022-07-15T09:45:17Z</time>
      </trkpt>
      <trkpt lat="46.69818" lon="5.6607">
        <ele>515.4</ele>
        <time>2022-07-15T09:45:30Z</time>
      </trkpt>
      <trkpt lat="46.69809" lon="5.66076">
        <ele>515.88</ele>
        <time>2022-07-15T09:45:43Z</time>
      </trkpt>
      <trkpt lat="46.69799" lon="5.66079">
        <ele>516.37</ele>
        <time>2022-07-15T09:45:56Z</time>
      </trkpt>
      <trkpt lat="46.69793" lon="5.66079">
        <ele>515.88</ele>
        <time>2022-07-15T09:46:02Z</time>
      </trkpt>
      <trkpt lat="46.69785" lon="5.66081">
        <ele>515.4</ele>
        <time>2022-07-15T09:46:08Z</time>
      </trkpt>
      <trkpt lat="46.69776" lon="5.66082">
        <ele>515.4</ele>
        <time>2022-07-15T09:46:14Z</time>
      </trkpt>
      <trkpt lat="46.69765" lon="5.66079">
        <ele>516.37</ele>
        <time>2022-07-15T09:46:23Z</time>
      </trkpt>
      <trkpt lat="46.69757" lon="5.66066">
        <ele>519.25</ele>
        <time>2022-07-15T09:46:37Z</time>
      </trkpt>
      <trkpt lat="46.69749" lon="5.66055">
        <ele>519.73</ele>
        <time>2022-07-15T09:46:51Z</time>
      </trkpt>
      <trkpt lat="46.69745" lon="5.66043">
        <ele>521.65</ele>
        <time>2022-07-15T09:47:05Z</time>
      </trkpt>
      <trkpt lat="46.69738" lon="5.6603">
        <ele>522.13</ele>
        <time>2022-07-15T09:47:20Z</time>
      </trkpt>
      <trkpt lat="46.69737" lon="5.66018">
        <ele>522.61</ele>
        <time>2022-07-15T09:47:33Z</time>
      </trkpt>
      <trkpt lat="46.69728" lon="5.66017">
        <ele>522.13</ele>
        <time>2022-07-15T09:47:49Z</time>
      </trkpt>
      <trkpt lat="46.69721" lon="5.66011">
        <ele>521.65</ele>
        <time>2022-07-15T09:47:58Z</time>
      </trkpt>
      <trkpt lat="46.69711" lon="5.66003">
        <ele>521.17</ele>
        <time>2022-07-15T09:48:10Z</time>
      </trkpt>
      <trkpt lat="46.69694" lon="5.66001">
        <ele>520.21</ele>
        <time>2022-07-15T09:48:26Z</time>
      </trkpt>
      <trkpt lat="46.69684" lon="5.66002">
        <ele>520.69</ele>
        <time>2022-07-15T09:48:38Z</time>
      </trkpt>
      <trkpt lat="46.69682" lon="5.66003">
        <ele>520.69</ele>
        <time>2022-07-15T09:48:43Z</time>
      </trkpt>
      <trkpt lat="46.69664" lon="5.66005">
        <ele>519.25</ele>
        <time>2022-07-15T09:48:58Z</time>
      </trkpt>
      <trkpt lat="46.69652" lon="5.66006">
        <ele>518.29</ele>
        <time>2022-07-15T09:49:09Z</time>
      </trkpt>
      <trkpt lat="46.69644" lon="5.66004">
        <ele>517.81</ele>
        <time>2022-07-15T09:49:23Z</time>
      </trkpt>
      <trkpt lat="46.69637" lon="5.66003">
        <ele>517.81</ele>
        <time>2022-07-15T09:49:28Z</time>
      </trkpt>
      <trkpt lat="46.69622" lon="5.66004">
        <ele>516.85</ele>
        <time>2022-07-15T09:49:44Z</time>
      </trkpt>
      <trkpt lat="46.6962" lon="5.66006">
        <ele>515.88</ele>
        <time>2022-07-15T09:49:58Z</time>
      </trkpt>
      <trkpt lat="46.69603" lon="5.66002">
        <ele>516.37</ele>
        <time>2022-07-15T09:50:15Z</time>
      </trkpt>
      <trkpt lat="46.69592" lon="5.66006">
        <ele>516.85</ele>
        <time>2022-07-15T09:50:24Z</time>
      </trkpt>
      <trkpt lat="46.69587" lon="5.66004">
        <ele>515.88</ele>
        <time>2022-07-15T09:50:31Z</time>
      </trkpt>
      <trkpt lat="46.69578" lon="5.65991">
        <ele>515.4</ele>
        <time>2022-07-15T09:50:43Z</time>
      </trkpt>
      <trkpt lat="46.69568" lon="5.6597">
        <ele>515.4</ele>
        <time>2022-07-15T09:50:58Z</time>
      </trkpt>
      <trkpt lat="46.69563" lon="5.6595">
        <ele>515.88</ele>
        <time>2022-07-15T09:51:11Z</time>
      </trkpt>
      <trkpt lat="46.69562" lon="5.65948">
        <ele>516.85</ele>
        <time>2022-07-15T09:51:12Z</time>
      </trkpt>
      <trkpt lat="46.69559" lon="5.65928">
        <ele>517.81</ele>
        <time>2022-07-15T09:51:28Z</time>
      </trkpt>
      <trkpt lat="46.69553" lon="5.65907">
        <ele>519.73</ele>
        <time>2022-07-15T09:51:45Z</time>
      </trkpt>
      <trkpt lat="46.69549" lon="5.65888">
        <ele>522.61</ele>
        <time>2022-07-15T09:52:00Z</time>
      </trkpt>
      <trkpt lat="46.69545" lon="5.65883">
        <ele>522.61</ele>
        <time>2022-07-15T09:52:08Z</time>
      </trkpt>
      <trkpt lat="46.69546" lon="5.65865">
        <ele>523.09</ele>
        <time>2022-07-15T09:52:22Z</time>
      </trkpt>
      <trkpt lat="46.69545" lon="5.65863">
        <ele>523.09</ele>
        <time>2022-07-15T09:52:24Z</time>
      </trkpt>
      <trkpt lat="46.69545" lon="5.65855">
        <ele>523.58</ele>
        <time>2022-07-15T09:52:30Z</time>
      </trkpt>
      <trkpt lat="46.69546" lon="5.65853">
        <ele>523.58</ele>
        <time>2022-07-15T09:52:31Z</time>
      </trkpt>
      <trkpt lat="46.69548" lon="5.65834">
        <ele>524.06</ele>
        <time>2022-07-15T09:52:46Z</time>
      </trkpt>
      <trkpt lat="46.69548" lon="5.65822">
        <ele>523.09</ele>
        <time>2022-07-15T09:52:57Z</time>
      </trkpt>
      <trkpt lat="46.69547" lon="5.65806">
        <ele>523.09</ele>
        <time>2022-07-15T09:53:12Z</time>
      </trkpt>
      <trkpt lat="46.69547" lon="5.65803">
        <ele>523.09</ele>
        <time>2022-07-15T09:53:14Z</time>
      </trkpt>
      <trkpt lat="46.69546" lon="5.65785">
        <ele>522.61</ele>
        <time>2022-07-15T09:53:28Z</time>
      </trkpt>
      <trkpt lat="46.69546" lon="5.65783">
        <ele>522.13</ele>
        <time>2022-07-15T09:53:29Z</time>
      </trkpt>
      <trkpt lat="46.69547" lon="5.65779">
        <ele>522.61</ele>
        <time>2022-07-15T09:53:31Z</time>
      </trkpt>
      <trkpt lat="46.69548" lon="5.65776">
        <ele>522.61</ele>
        <time>2022-07-15T09:53:32Z</time>
      </trkpt>
      <trkpt lat="46.69548" lon="5.65774">
        <ele>522.61</ele>
        <time>2022-07-15T09:53:33Z</time>
      </trkpt>
      <trkpt lat="46.69549" lon="5.65772">
        <ele>522.13</ele>
        <time>2022-07-15T09:53:34Z</time>
      </trkpt>
      <trkpt lat="46.6955" lon="5.65771">
        <ele>522.13</ele>
        <time>2022-07-15T09:53:35Z</time>
      </trkpt>
      <trkpt lat="46.69553" lon="5.65758">
        <ele>521.17</ele>
        <time>2022-07-15T09:53:44Z</time>
      </trkpt>
      <trkpt lat="46.69549" lon="5.65735">
        <ele>521.17</ele>
        <time>2022-07-15T09:53:57Z</time>
      </trkpt>
      <trkpt lat="46.69549" lon="5.65729">
        <ele>521.17</ele>
        <time>2022-07-15T09:54:00Z</time>
      </trkpt>
      <trkpt lat="46.69551" lon="5.65719">
        <ele>520.69</ele>
        <time>2022-07-15T09:54:08Z</time>
      </trkpt>
      <trkpt lat="46.69549" lon="5.65696">
        <ele>519.73</ele>
        <time>2022-07-15T09:54:23Z</time>
      </trkpt>
      <trkpt lat="46.69547" lon="5.65693">
        <ele>519.25</ele>
        <time>2022-07-15T09:54:26Z</time>
      </trkpt>
      <trkpt lat="46.69547" lon="5.65691">
        <ele>518.77</ele>
        <time>2022-07-15T09:54:27Z</time>
      </trkpt>
      <trkpt lat="46.6954" lon="5.65667">
        <ele>519.25</ele>
        <time>2022-07-15T09:54:45Z</time>
      </trkpt>
      <trkpt lat="46.69541" lon="5.65664">
        <ele>519.25</ele>
        <time>2022-07-15T09:54:47Z</time>
      </trkpt>
      <trkpt lat="46.69541" lon="5.65661">
        <ele>518.77</ele>
        <time>2022-07-15T09:54:48Z</time>
      </trkpt>
      <trkpt lat="46.69542" lon="5.65659">
        <ele>519.25</ele>
        <time>2022-07-15T09:54:49Z</time>
      </trkpt>
      <trkpt lat="46.69542" lon="5.65657">
        <ele>519.25</ele>
        <time>2022-07-15T09:54:50Z</time>
      </trkpt>
      <trkpt lat="46.69543" lon="5.65654">
        <ele>519.25</ele>
        <time>2022-07-15T09:54:51Z</time>
      </trkpt>
      <trkpt lat="46.6955" lon="5.65627">
        <ele>518.29</ele>
        <time>2022-07-15T09:55:05Z</time>
      </trkpt>
      <trkpt lat="46.69552" lon="5.65611">
        <ele>517.33</ele>
        <time>2022-07-15T09:55:16Z</time>
      </trkpt>
      <trkpt lat="46.69553" lon="5.65609">
        <ele>517.33</ele>
        <time>2022-07-15T09:55:17Z</time>
      </trkpt>
      <trkpt lat="46.6956" lon="5.6559">
        <ele>516.37</ele>
        <time>2022-07-15T09:55:31Z</time>
      </trkpt>
      <trkpt lat="46.6957" lon="5.6557">
        <ele>516.85</ele>
        <time>2022-07-15T09:55:47Z</time>
      </trkpt>
      <trkpt lat="46.69571" lon="5.65546">
        <ele>514.92</ele>
        <time>2022-07-15T09:56:02Z</time>
      </trkpt>
      <trkpt lat="46.6957" lon="5.65534">
        <ele>513.96</ele>
        <time>2022-07-15T09:56:10Z</time>
      </trkpt>
      <trkpt lat="46.69568" lon="5.65518">
        <ele>513</ele>
        <time>2022-07-15T09:56:22Z</time>
      </trkpt>
      <trkpt lat="46.69565" lon="5.65501">
        <ele>512.52</ele>
        <time>2022-07-15T09:56:36Z</time>
      </trkpt>
      <trkpt lat="46.69564" lon="5.65481">
        <ele>513.48</ele>
        <time>2022-07-15T09:56:47Z</time>
      </trkpt>
      <trkpt lat="46.69562" lon="5.65474">
        <ele>513.48</ele>
        <time>2022-07-15T09:56:52Z</time>
      </trkpt>
      <trkpt lat="46.69562" lon="5.65456">
        <ele>513.96</ele>
        <time>2022-07-15T09:57:05Z</time>
      </trkpt>
      <trkpt lat="46.69561" lon="5.65445">
        <ele>513.96</ele>
        <time>2022-07-15T09:57:21Z</time>
      </trkpt>
      <trkpt lat="46.6956" lon="5.65445">
        <ele>513.96</ele>
        <time>2022-07-15T09:57:42Z</time>
      </trkpt>
      <trkpt lat="46.69555" lon="5.65424">
        <ele>513</ele>
        <time>2022-07-15T09:57:56Z</time>
      </trkpt>
      <trkpt lat="46.69556" lon="5.65403">
        <ele>513</ele>
        <time>2022-07-15T09:58:11Z</time>
      </trkpt>
      <trkpt lat="46.69557" lon="5.65401">
        <ele>512.52</ele>
        <time>2022-07-15T09:58:12Z</time>
      </trkpt>
      <trkpt lat="46.69558" lon="5.654">
        <ele>512.04</ele>
        <time>2022-07-15T09:58:13Z</time>
      </trkpt>
      <trkpt lat="46.6956" lon="5.65387">
        <ele>513.48</ele>
        <time>2022-07-15T09:58:26Z</time>
      </trkpt>
      <trkpt lat="46.69568" lon="5.65368">
        <ele>515.88</ele>
        <time>2022-07-15T09:58:41Z</time>
      </trkpt>
      <trkpt lat="46.69575" lon="5.65357">
        <ele>515.88</ele>
        <time>2022-07-15T09:58:53Z</time>
      </trkpt>
      <trkpt lat="46.69573" lon="5.65351">
        <ele>515.88</ele>
        <time>2022-07-15T09:59:07Z</time>
      </trkpt>
      <trkpt lat="46.69569" lon="5.65335">
        <ele>515.88</ele>
        <time>2022-07-15T09:59:18Z</time>
      </trkpt>
      <trkpt lat="46.69571" lon="5.65328">
        <ele>515.88</ele>
        <time>2022-07-15T09:59:31Z</time>
      </trkpt>
      <trkpt lat="46.69575" lon="5.65316">
        <ele>515.88</ele>
        <time>2022-07-15T09:59:46Z</time>
      </trkpt>
      <trkpt lat="46.69577" lon="5.65301">
        <ele>514.92</ele>
        <time>2022-07-15T09:59:55Z</time>
      </trkpt>
      <trkpt lat="46.69581" lon="5.65278">
        <ele>514.44</ele>
        <time>2022-07-15T10:00:09Z</time>
      </trkpt>
      <trkpt lat="46.69581" lon="5.65266">
        <ele>514.92</ele>
        <time>2022-07-15T10:00:26Z</time>
      </trkpt>
      <trkpt lat="46.69579" lon="5.65261">
        <ele>514.92</ele>
        <time>2022-07-15T10:00:43Z</time>
      </trkpt>
      <trkpt lat="46.69566" lon="5.6525">
        <ele>515.4</ele>
        <time>2022-07-15T10:00:56Z</time>
      </trkpt>
      <trkpt lat="46.69556" lon="5.65241">
        <ele>515.4</ele>
        <time>2022-07-15T10:01:05Z</time>
      </trkpt>
      <trkpt lat="46.6955" lon="5.65235">
        <ele>515.4</ele>
        <time>2022-07-15T10:01:10Z</time>
      </trkpt>
      <trkpt lat="46.69534" lon="5.6522">
        <ele>514.92</ele>
        <time>2022-07-15T10:01:25Z</time>
      </trkpt>
      <trkpt lat="46.69531" lon="5.65214">
        <ele>514.44</ele>
        <time>2022-07-15T10:01:33Z</time>
      </trkpt>
      <trkpt lat="46.69523" lon="5.65196">
        <ele>514.92</ele>
        <time>2022-07-15T10:01:48Z</time>
      </trkpt>
      <trkpt lat="46.69515" lon="5.65174">
        <ele>515.88</ele>
        <time>2022-07-15T10:02:03Z</time>
      </trkpt>
      <trkpt lat="46.69508" lon="5.65159">
        <ele>515.88</ele>
        <time>2022-07-15T10:02:13Z</time>
      </trkpt>
      <trkpt lat="46.6949" lon="5.65146">
        <ele>515.88</ele>
        <time>2022-07-15T10:02:26Z</time>
      </trkpt>
      <trkpt lat="46.69478" lon="5.65139">
        <ele>515.88</ele>
        <time>2022-07-15T10:02:36Z</time>
      </trkpt>
      <trkpt lat="46.69475" lon="5.65129">
        <ele>515.4</ele>
        <time>2022-07-15T10:02:44Z</time>
      </trkpt>
      <trkpt lat="46.69473" lon="5.65127">
        <ele>515.4</ele>
        <time>2022-07-15T10:02:46Z</time>
      </trkpt>
      <trkpt lat="46.69474" lon="5.65102">
        <ele>515.4</ele>
        <time>2022-07-15T10:03:01Z</time>
      </trkpt>
      <trkpt lat="46.69467" lon="5.65078">
        <ele>515.88</ele>
        <time>2022-07-15T10:03:14Z</time>
      </trkpt>
      <trkpt lat="46.69456" lon="5.65052">
        <ele>515.88</ele>
        <time>2022-07-15T10:03:30Z</time>
      </trkpt>
      <trkpt lat="46.69449" lon="5.65035">
        <ele>514.92</ele>
        <time>2022-07-15T10:03:43Z</time>
      </trkpt>
      <trkpt lat="46.69445" lon="5.6503">
        <ele>514.92</ele>
        <time>2022-07-15T10:03:47Z</time>
      </trkpt>
      <trkpt lat="46.69426" lon="5.65015">
        <ele>514.44</ele>
        <time>2022-07-15T10:04:04Z</time>
      </trkpt>
      <trkpt lat="46.6942" lon="5.65007">
        <ele>513.48</ele>
        <time>2022-07-15T10:04:11Z</time>
      </trkpt>
      <trkpt lat="46.69415" lon="5.65004">
        <ele>513</ele>
        <time>2022-07-15T10:04:15Z</time>
      </trkpt>
      <trkpt lat="46.69403" lon="5.64993">
        <ele>512.52</ele>
        <time>2022-07-15T10:04:27Z</time>
      </trkpt>
      <trkpt lat="46.69389" lon="5.64978">
        <ele>513</ele>
        <time>2022-07-15T10:04:40Z</time>
      </trkpt>
      <trkpt lat="46.69367" lon="5.64961">
        <ele>512.04</ele>
        <time>2022-07-15T10:04:57Z</time>
      </trkpt>
      <trkpt lat="46.69353" lon="5.64946">
        <ele>512.04</ele>
        <time>2022-07-15T10:05:10Z</time>
      </trkpt>
      <trkpt lat="46.69342" lon="5.64937">
        <ele>512.04</ele>
        <time>2022-07-15T10:05:22Z</time>
      </trkpt>
      <trkpt lat="46.69329" lon="5.64925">
        <ele>512.04</ele>
        <time>2022-07-15T10:05:36Z</time>
      </trkpt>
      <trkpt lat="46.69319" lon="5.64916">
        <ele>513</ele>
        <time>2022-07-15T10:05:47Z</time>
      </trkpt>
      <trkpt lat="46.69315" lon="5.64913">
        <ele>512.52</ele>
        <time>2022-07-15T10:05:50Z</time>
      </trkpt>
      <trkpt lat="46.69307" lon="5.64897">
        <ele>513.96</ele>
        <time>2022-07-15T10:06:02Z</time>
      </trkpt>
      <trkpt lat="46.69299" lon="5.64889">
        <ele>513.96</ele>
        <time>2022-07-15T10:06:08Z</time>
      </trkpt>
      <trkpt lat="46.69286" lon="5.64872">
        <ele>513.96</ele>
        <time>2022-07-15T10:06:24Z</time>
      </trkpt>
      <trkpt lat="46.69286" lon="5.64871">
        <ele>514.44</ele>
        <time>2022-07-15T10:06:25Z</time>
      </trkpt>
      <trkpt lat="46.69256" lon="5.64867">
        <ele>513.96</ele>
        <time>2022-07-15T10:06:43Z</time>
      </trkpt>
      <trkpt lat="46.69255" lon="5.64867">
        <ele>513.96</ele>
        <time>2022-07-15T10:06:44Z</time>
      </trkpt>
      <trkpt lat="46.6924" lon="5.64862">
        <ele>514.44</ele>
        <time>2022-07-15T10:06:55Z</time>
      </trkpt>
      <trkpt lat="46.69226" lon="5.64852">
        <ele>515.88</ele>
        <time>2022-07-15T10:07:11Z</time>
      </trkpt>
      <trkpt lat="46.69209" lon="5.64832">
        <ele>516.85</ele>
        <time>2022-07-15T10:07:25Z</time>
      </trkpt>
      <trkpt lat="46.69193" lon="5.64813">
        <ele>516.85</ele>
        <time>2022-07-15T10:07:41Z</time>
      </trkpt>
      <trkpt lat="46.69173" lon="5.64795">
        <ele>515.88</ele>
        <time>2022-07-15T10:07:57Z</time>
      </trkpt>
      <trkpt lat="46.69159" lon="5.6478">
        <ele>515.4</ele>
        <time>2022-07-15T10:08:12Z</time>
      </trkpt>
      <trkpt lat="46.69141" lon="5.64766">
        <ele>515.88</ele>
        <time>2022-07-15T10:08:26Z</time>
      </trkpt>
      <trkpt lat="46.69127" lon="5.64752">
        <ele>516.37</ele>
        <time>2022-07-15T10:08:40Z</time>
      </trkpt>
      <trkpt lat="46.69111" lon="5.64735">
        <ele>517.81</ele>
        <time>2022-07-15T10:08:56Z</time>
      </trkpt>
      <trkpt lat="46.6911" lon="5.64733">
        <ele>517.81</ele>
        <time>2022-07-15T10:08:58Z</time>
      </trkpt>
      <trkpt lat="46.69096" lon="5.6471">
        <ele>518.29</ele>
        <time>2022-07-15T10:09:14Z</time>
      </trkpt>
      <trkpt lat="46.69095" lon="5.64707">
        <ele>518.29</ele>
        <time>2022-07-15T10:09:16Z</time>
      </trkpt>
      <trkpt lat="46.69095" lon="5.64684">
        <ele>518.29</ele>
        <time>2022-07-15T10:09:30Z</time>
      </trkpt>
      <trkpt lat="46.69095" lon="5.64657">
        <ele>519.25</ele>
        <time>2022-07-15T10:09:42Z</time>
      </trkpt>
      <trkpt lat="46.69094" lon="5.6463">
        <ele>520.21</ele>
        <time>2022-07-15T10:09:56Z</time>
      </trkpt>
      <trkpt lat="46.69093" lon="5.64629">
        <ele>519.73</ele>
        <time>2022-07-15T10:09:57Z</time>
      </trkpt>
      <trkpt lat="46.69084" lon="5.64601">
        <ele>520.21</ele>
        <time>2022-07-15T10:10:14Z</time>
      </trkpt>
      <trkpt lat="46.69074" lon="5.64589">
        <ele>520.69</ele>
        <time>2022-07-15T10:10:23Z</time>
      </trkpt>
      <trkpt lat="46.69055" lon="5.64575">
        <ele>521.65</ele>
        <time>2022-07-15T10:10:38Z</time>
      </trkpt>
      <trkpt lat="46.69044" lon="5.64562">
        <ele>522.13</ele>
        <time>2022-07-15T10:10:48Z</time>
      </trkpt>
      <trkpt lat="46.69035" lon="5.6455">
        <ele>522.13</ele>
        <time>2022-07-15T10:10:57Z</time>
      </trkpt>
      <trkpt lat="46.69033" lon="5.64545">
        <ele>522.13</ele>
        <time>2022-07-15T10:11:00Z</time>
      </trkpt>
      <trkpt lat="46.6903" lon="5.64535">
        <ele>522.13</ele>
        <time>2022-07-15T10:11:05Z</time>
      </trkpt>
      <trkpt lat="46.69021" lon="5.64508">
        <ele>521.17</ele>
        <time>2022-07-15T10:11:20Z</time>
      </trkpt>
      <trkpt lat="46.69013" lon="5.64496">
        <ele>521.17</ele>
        <time>2022-07-15T10:11:31Z</time>
      </trkpt>
      <trkpt lat="46.69002" lon="5.6446">
        <ele>521.17</ele>
        <time>2022-07-15T10:11:48Z</time>
      </trkpt>
      <trkpt lat="46.68995" lon="5.64448">
        <ele>521.65</ele>
        <time>2022-07-15T10:11:57Z</time>
      </trkpt>
      <trkpt lat="46.68974" lon="5.64427">
        <ele>520.69</ele>
        <time>2022-07-15T10:12:14Z</time>
      </trkpt>
      <trkpt lat="46.6897" lon="5.64423">
        <ele>520.21</ele>
        <time>2022-07-15T10:12:18Z</time>
      </trkpt>
      <trkpt lat="46.68953" lon="5.64418">
        <ele>519.73</ele>
        <time>2022-07-15T10:12:31Z</time>
      </trkpt>
      <trkpt lat="46.68928" lon="5.64413">
        <ele>518.77</ele>
        <time>2022-07-15T10:12:45Z</time>
      </trkpt>
      <trkpt lat="46.68912" lon="5.64409">
        <ele>518.29</ele>
        <time>2022-07-15T10:13:00Z</time>
      </trkpt>
      <trkpt lat="46.68908" lon="5.64406">
        <ele>518.29</ele>
        <time>2022-07-15T10:13:04Z</time>
      </trkpt>
      <trkpt lat="46.68894" lon="5.64391">
        <ele>518.77</ele>
        <time>2022-07-15T10:13:17Z</time>
      </trkpt>
      <trkpt lat="46.68894" lon="5.64389">
        <ele>517.81</ele>
        <time>2022-07-15T10:13:18Z</time>
      </trkpt>
      <trkpt lat="46.68893" lon="5.64387">
        <ele>518.77</ele>
        <time>2022-07-15T10:13:19Z</time>
      </trkpt>
      <trkpt lat="46.68891" lon="5.64352">
        <ele>518.77</ele>
        <time>2022-07-15T10:13:35Z</time>
      </trkpt>
      <trkpt lat="46.68886" lon="5.64316">
        <ele>518.29</ele>
        <time>2022-07-15T10:13:50Z</time>
      </trkpt>
      <trkpt lat="46.68885" lon="5.64306">
        <ele>518.29</ele>
        <time>2022-07-15T10:13:57Z</time>
      </trkpt>
      <trkpt lat="46.6888" lon="5.64285">
        <ele>517.81</ele>
        <time>2022-07-15T10:14:09Z</time>
      </trkpt>
      <trkpt lat="46.68872" lon="5.64268">
        <ele>517.33</ele>
        <time>2022-07-15T10:14:22Z</time>
      </trkpt>
      <trkpt lat="46.68869" lon="5.64263">
        <ele>517.81</ele>
        <time>2022-07-15T10:14:48Z</time>
      </trkpt>
      <trkpt lat="46.68865" lon="5.64254">
        <ele>516.37</ele>
        <time>2022-07-15T10:15:09Z</time>
      </trkpt>
      <trkpt lat="46.68846" lon="5.64243">
        <ele>514.44</ele>
        <time>2022-07-15T10:15:22Z</time>
      </trkpt>
      <trkpt lat="46.68841" lon="5.64244">
        <ele>513.96</ele>
        <time>2022-07-15T10:15:28Z</time>
      </trkpt>
      <trkpt lat="46.6884" lon="5.64245">
        <ele>513.96</ele>
        <time>2022-07-15T10:15:29Z</time>
      </trkpt>
      <trkpt lat="46.68838" lon="5.64246">
        <ele>513.96</ele>
        <time>2022-07-15T10:15:30Z</time>
      </trkpt>
      <trkpt lat="46.68837" lon="5.64246">
        <ele>513.96</ele>
        <time>2022-07-15T10:15:31Z</time>
      </trkpt>
      <trkpt lat="46.68836" lon="5.64246">
        <ele>513.48</ele>
        <time>2022-07-15T10:15:32Z</time>
      </trkpt>
      <trkpt lat="46.68834" lon="5.64246">
        <ele>513.48</ele>
        <time>2022-07-15T10:15:33Z</time>
      </trkpt>
      <trkpt lat="46.68832" lon="5.64245">
        <ele>513.48</ele>
        <time>2022-07-15T10:15:34Z</time>
      </trkpt>
      <trkpt lat="46.6883" lon="5.64244">
        <ele>513.48</ele>
        <time>2022-07-15T10:15:35Z</time>
      </trkpt>
      <trkpt lat="46.68828" lon="5.64243">
        <ele>513.48</ele>
        <time>2022-07-15T10:15:36Z</time>
      </trkpt>
      <trkpt lat="46.68828" lon="5.6423">
        <ele>513.48</ele>
        <time>2022-07-15T10:15:45Z</time>
      </trkpt>
      <trkpt lat="46.6883" lon="5.64203">
        <ele>513</ele>
        <time>2022-07-15T10:16:02Z</time>
      </trkpt>
      <trkpt lat="46.68826" lon="5.6417">
        <ele>512.04</ele>
        <time>2022-07-15T10:16:17Z</time>
      </trkpt>
      <trkpt lat="46.68823" lon="5.6414">
        <ele>511.56</ele>
        <time>2022-07-15T10:16:32Z</time>
      </trkpt>
      <trkpt lat="46.6882" lon="5.64124">
        <ele>512.04</ele>
        <time>2022-07-15T10:16:45Z</time>
      </trkpt>
      <trkpt lat="46.68819" lon="5.64121">
        <ele>511.56</ele>
        <time>2022-07-15T10:16:48Z</time>
      </trkpt>
      <trkpt lat="46.68818" lon="5.64119">
        <ele>511.56</ele>
        <time>2022-07-15T10:16:49Z</time>
      </trkpt>
      <trkpt lat="46.68817" lon="5.64117">
        <ele>511.56</ele>
        <time>2022-07-15T10:16:50Z</time>
      </trkpt>
      <trkpt lat="46.68812" lon="5.64091">
        <ele>511.56</ele>
        <time>2022-07-15T10:17:05Z</time>
      </trkpt>
      <trkpt lat="46.68808" lon="5.64068">
        <ele>511.56</ele>
        <time>2022-07-15T10:17:19Z</time>
      </trkpt>
      <trkpt lat="46.68806" lon="5.6404">
        <ele>512.52</ele>
        <time>2022-07-15T10:17:36Z</time>
      </trkpt>
      <trkpt lat="46.68808" lon="5.64039">
        <ele>512.52</ele>
        <time>2022-07-15T10:17:40Z</time>
      </trkpt>
      <trkpt lat="46.68822" lon="5.6403">
        <ele>512.04</ele>
        <time>2022-07-15T10:17:56Z</time>
      </trkpt>
      <trkpt lat="46.68829" lon="5.64025">
        <ele>511.08</ele>
        <time>2022-07-15T10:18:08Z</time>
      </trkpt>
      <trkpt lat="46.68833" lon="5.64023">
        <ele>510.12</ele>
        <time>2022-07-15T10:18:13Z</time>
      </trkpt>
      <trkpt lat="46.68848" lon="5.64003">
        <ele>509.64</ele>
        <time>2022-07-15T10:18:29Z</time>
      </trkpt>
      <trkpt lat="46.68847" lon="5.64001">
        <ele>510.12</ele>
        <time>2022-07-15T10:19:00Z</time>
      </trkpt>
      <trkpt lat="46.68843" lon="5.64003">
        <ele>510.6</ele>
        <time>2022-07-15T10:19:02Z</time>
      </trkpt>
      <trkpt lat="46.68837" lon="5.64002">
        <ele>511.08</ele>
        <time>2022-07-15T10:19:07Z</time>
      </trkpt>
      <trkpt lat="46.68834" lon="5.63995">
        <ele>511.56</ele>
        <time>2022-07-15T10:19:14Z</time>
      </trkpt>
      <trkpt lat="46.68835" lon="5.6398">
        <ele>512.04</ele>
        <time>2022-07-15T10:19:27Z</time>
      </trkpt>
      <trkpt lat="46.68836" lon="5.63976">
        <ele>511.56</ele>
        <time>2022-07-15T10:19:52Z</time>
      </trkpt>
      <trkpt lat="46.68834" lon="5.63979">
        <ele>512.52</ele>
        <time>2022-07-15T10:20:14Z</time>
      </trkpt>
      <trkpt lat="46.68831" lon="5.63982">
        <ele>512.04</ele>
        <time>2022-07-15T10:20:41Z</time>
      </trkpt>
      <trkpt lat="46.6883" lon="5.63988">
        <ele>511.56</ele>
        <time>2022-07-15T10:20:45Z</time>
      </trkpt>
      <trkpt lat="46.6883" lon="5.63991">
        <ele>511.08</ele>
        <time>2022-07-15T10:20:46Z</time>
      </trkpt>
      <trkpt lat="46.6883" lon="5.63993">
        <ele>511.08</ele>
        <time>2022-07-15T10:20:47Z</time>
      </trkpt>
      <trkpt lat="46.68834" lon="5.64005">
        <ele>510.6</ele>
        <time>2022-07-15T10:20:56Z</time>
      </trkpt>
      <trkpt lat="46.68837" lon="5.64014">
        <ele>510.12</ele>
        <time>2022-07-15T10:21:03Z</time>
      </trkpt>
      <trkpt lat="46.6884" lon="5.64036">
        <ele>507.71</ele>
        <time>2022-07-15T10:21:13Z</time>
      </trkpt>
      <trkpt lat="46.68843" lon="5.64055">
        <ele>506.75</ele>
        <time>2022-07-15T10:21:24Z</time>
      </trkpt>
      <trkpt lat="46.68844" lon="5.64055">
        <ele>506.75</ele>
        <time>2022-07-15T10:21:36Z</time>
      </trkpt>
      <trkpt lat="46.68845" lon="5.64057">
        <ele>506.27</ele>
        <time>2022-07-15T10:21:50Z</time>
      </trkpt>
      <trkpt lat="46.68849" lon="5.64048">
        <ele>503.39</ele>
        <time>2022-07-15T10:22:03Z</time>
      </trkpt>
      <trkpt lat="46.6885" lon="5.64045">
        <ele>501.95</ele>
        <time>2022-07-15T10:22:18Z</time>
      </trkpt>
      <trkpt lat="46.68857" lon="5.64037">
        <ele>499.06</ele>
        <time>2022-07-15T10:22:35Z</time>
      </trkpt>
      <trkpt lat="46.68859" lon="5.64035">
        <ele>498.1</ele>
        <time>2022-07-15T10:22:39Z</time>
      </trkpt>
      <trkpt lat="46.6886" lon="5.64037">
        <ele>497.62</ele>
        <time>2022-07-15T10:22:51Z</time>
      </trkpt>
      <trkpt lat="46.68862" lon="5.64035">
        <ele>499.06</ele>
        <time>2022-07-15T10:23:01Z</time>
      </trkpt>
      <trkpt lat="46.68863" lon="5.64036">
        <ele>498.58</ele>
        <time>2022-07-15T10:23:26Z</time>
      </trkpt>
      <trkpt lat="46.68874" lon="5.64038">
        <ele>499.54</ele>
        <time>2022-07-15T10:23:54Z</time>
      </trkpt>
      <trkpt lat="46.68872" lon="5.64041">
        <ele>500.02</ele>
        <time>2022-07-15T10:24:06Z</time>
      </trkpt>
      <trkpt lat="46.68872" lon="5.64043">
        <ele>500.02</ele>
        <time>2022-07-15T10:24:07Z</time>
      </trkpt>
      <trkpt lat="46.68867" lon="5.64048">
        <ele>503.39</ele>
        <time>2022-07-15T10:24:16Z</time>
      </trkpt>
      <trkpt lat="46.68866" lon="5.6405">
        <ele>502.91</ele>
        <time>2022-07-15T10:24:17Z</time>
      </trkpt>
      <trkpt lat="46.68861" lon="5.64052">
        <ele>504.35</ele>
        <time>2022-07-15T10:24:21Z</time>
      </trkpt>
      <trkpt lat="46.68845" lon="5.64057">
        <ele>507.23</ele>
        <time>2022-07-15T10:24:34Z</time>
      </trkpt>
      <trkpt lat="46.68841" lon="5.6405">
        <ele>507.71</ele>
        <time>2022-07-15T10:24:45Z</time>
      </trkpt>
      <trkpt lat="46.68841" lon="5.64034">
        <ele>508.67</ele>
        <time>2022-07-15T10:24:57Z</time>
      </trkpt>
      <trkpt lat="46.68842" lon="5.64018">
        <ele>510.12</ele>
        <time>2022-07-15T10:25:11Z</time>
      </trkpt>
      <trkpt lat="46.68831" lon="5.64023">
        <ele>510.6</ele>
        <time>2022-07-15T10:25:25Z</time>
      </trkpt>
      <trkpt lat="46.6883" lon="5.64024">
        <ele>511.56</ele>
        <time>2022-07-15T10:25:26Z</time>
      </trkpt>
      <trkpt lat="46.68792" lon="5.64035">
        <ele>519.25</ele>
        <time>2022-07-15T10:51:26Z</time>
      </trkpt>
      <trkpt lat="46.68792" lon="5.64032">
        <ele>519.73</ele>
        <time>2022-07-15T10:51:29Z</time>
      </trkpt>
      <trkpt lat="46.68797" lon="5.64009">
        <ele>519.25</ele>
        <time>2022-07-15T10:51:45Z</time>
      </trkpt>
      <trkpt lat="46.68796" lon="5.64001">
        <ele>517.33</ele>
        <time>2022-07-15T10:51:50Z</time>
      </trkpt>
      <trkpt lat="46.68794" lon="5.63993">
        <ele>515.4</ele>
        <time>2022-07-15T10:51:56Z</time>
      </trkpt>
      <trkpt lat="46.68793" lon="5.63974">
        <ele>512.52</ele>
        <time>2022-07-15T10:52:07Z</time>
      </trkpt>
      <trkpt lat="46.68792" lon="5.6397">
        <ele>512.04</ele>
        <time>2022-07-15T10:52:10Z</time>
      </trkpt>
      <trkpt lat="46.68794" lon="5.63943">
        <ele>509.64</ele>
        <time>2022-07-15T10:52:27Z</time>
      </trkpt>
      <trkpt lat="46.688" lon="5.63923">
        <ele>508.67</ele>
        <time>2022-07-15T10:52:41Z</time>
      </trkpt>
      <trkpt lat="46.68808" lon="5.63904">
        <ele>509.16</ele>
        <time>2022-07-15T10:52:54Z</time>
      </trkpt>
      <trkpt lat="46.68809" lon="5.63892">
        <ele>509.16</ele>
        <time>2022-07-15T10:53:00Z</time>
      </trkpt>
      <trkpt lat="46.68809" lon="5.63875">
        <ele>509.64</ele>
        <time>2022-07-15T10:53:11Z</time>
      </trkpt>
      <trkpt lat="46.68812" lon="5.63857">
        <ele>510.12</ele>
        <time>2022-07-15T10:53:25Z</time>
      </trkpt>
      <trkpt lat="46.68813" lon="5.63859">
        <ele>510.6</ele>
        <time>2022-07-15T10:53:38Z</time>
      </trkpt>
      <trkpt lat="46.68812" lon="5.63857">
        <ele>510.12</ele>
        <time>2022-07-15T10:53:44Z</time>
      </trkpt>
      <trkpt lat="46.6881" lon="5.63851">
        <ele>510.12</ele>
        <time>2022-07-15T10:53:49Z</time>
      </trkpt>
      <trkpt lat="46.6881" lon="5.63839">
        <ele>510.12</ele>
        <time>2022-07-15T10:53:56Z</time>
      </trkpt>
      <trkpt lat="46.68808" lon="5.63836">
        <ele>510.12</ele>
        <time>2022-07-15T10:54:03Z</time>
      </trkpt>
      <trkpt lat="46.6881" lon="5.63826">
        <ele>510.12</ele>
        <time>2022-07-15T10:54:10Z</time>
      </trkpt>
      <trkpt lat="46.68811" lon="5.63817">
        <ele>508.67</ele>
        <time>2022-07-15T10:54:22Z</time>
      </trkpt>
      <trkpt lat="46.68808" lon="5.63815">
        <ele>509.16</ele>
        <time>2022-07-15T10:54:38Z</time>
      </trkpt>
      <trkpt lat="46.68811" lon="5.63799">
        <ele>508.67</ele>
        <time>2022-07-15T10:54:49Z</time>
      </trkpt>
      <trkpt lat="46.68813" lon="5.63775">
        <ele>508.67</ele>
        <time>2022-07-15T10:55:04Z</time>
      </trkpt>
      <trkpt lat="46.68819" lon="5.6376">
        <ele>508.19</ele>
        <time>2022-07-15T10:55:14Z</time>
      </trkpt>
      <trkpt lat="46.6882" lon="5.63758">
        <ele>508.19</ele>
        <time>2022-07-15T10:55:16Z</time>
      </trkpt>
      <trkpt lat="46.68833" lon="5.63745">
        <ele>509.16</ele>
        <time>2022-07-15T10:55:30Z</time>
      </trkpt>
      <trkpt lat="46.68845" lon="5.63735">
        <ele>508.67</ele>
        <time>2022-07-15T10:55:43Z</time>
      </trkpt>
      <trkpt lat="46.68862" lon="5.63727">
        <ele>509.16</ele>
        <time>2022-07-15T10:55:59Z</time>
      </trkpt>
      <trkpt lat="46.6887" lon="5.63708">
        <ele>499.8</ele>
        <time>2022-07-15T10:56:13Z</time>
      </trkpt>
      <trkpt lat="46.6887" lon="5.63698">
        <ele>504.6</ele>
        <time>2022-07-15T10:56:25Z</time>
      </trkpt>
      <trkpt lat="46.68875" lon="5.63688">
        <ele>506.5</ele>
        <time>2022-07-15T10:56:29Z</time>
      </trkpt>
      <trkpt lat="46.68877" lon="5.63678">
        <ele>506.6</ele>
        <time>2022-07-15T10:56:36Z</time>
      </trkpt>
      <trkpt lat="46.68878" lon="5.63665">
        <ele>506.7</ele>
      </trkpt>
      <trkpt lat="46.68881" lon="5.63652">
        <ele>507.3</ele>
        <time>2022-07-15T10:56:50Z</time>
      </trkpt>
      <trkpt lat="46.68885" lon="5.63641">
        <ele>507.8</ele>
        <time>2022-07-15T10:57:04Z</time>
      </trkpt>
      <trkpt lat="46.68886" lon="5.63628">
        <ele>507.9</ele>
      </trkpt>
      <trkpt lat="46.6889" lon="5.63613">
        <ele>508</ele>
        <time>2022-07-15T10:57:19Z</time>
      </trkpt>
      <trkpt lat="46.68891" lon="5.63601">
        <ele>508.5</ele>
        <time>2022-07-15T10:57:29Z</time>
      </trkpt>
      <trkpt lat="46.68893" lon="5.63587">
        <ele>509.1</ele>
        <time>2022-07-15T10:57:42Z</time>
      </trkpt>
      <trkpt lat="46.68896" lon="5.63573">
        <ele>510.2</ele>
        <time>2022-07-15T10:57:55Z</time>
      </trkpt>
      <trkpt lat="46.68899" lon="5.63561">
        <ele>511.1</ele>
        <time>2022-07-15T10:57:59Z</time>
      </trkpt>
      <trkpt lat="46.689" lon="5.63547">
        <ele>511.9</ele>
        <time>2022-07-15T10:58:14Z</time>
      </trkpt>
      <trkpt lat="46.68903" lon="5.63533">
        <ele>512.7</ele>
        <time>2022-07-15T10:58:29Z</time>
      </trkpt>
      <trkpt lat="46.689" lon="5.63516">
        <ele>513</ele>
        <time>2022-07-15T10:58:36Z</time>
      </trkpt>
      <trkpt lat="46.68897" lon="5.63502">
        <ele>513</ele>
        <time>2022-07-15T10:58:47Z</time>
      </trkpt>
      <trkpt lat="46.68893" lon="5.63488">
        <ele>513.4</ele>
        <time>2022-07-15T10:59:00Z</time>
      </trkpt>
      <trkpt lat="46.68885" lon="5.63477">
        <ele>513.8</ele>
        <time>2022-07-15T10:59:13Z</time>
      </trkpt>
      <trkpt lat="46.6887" lon="5.6347">
        <ele>514</ele>
        <time>2022-07-15T10:59:29Z</time>
      </trkpt>
      <trkpt lat="46.68854" lon="5.63464">
        <ele>513.8</ele>
        <time>2022-07-15T10:59:43Z</time>
      </trkpt>
      <trkpt lat="46.68838" lon="5.6347">
        <ele>513.2</ele>
        <time>2022-07-15T10:59:55Z</time>
      </trkpt>
      <trkpt lat="46.68822" lon="5.63474">
        <ele>512.6</ele>
      </trkpt>
      <trkpt lat="46.68813" lon="5.63467">
        <ele>512.2</ele>
      </trkpt>
      <trkpt lat="46.68804" lon="5.63467">
        <ele>512</ele>
      </trkpt>
      <trkpt lat="46.68795" lon="5.63468">
        <ele>512</ele>
      </trkpt>
      <trkpt lat="46.68788" lon="5.63457">
        <ele>512</ele>
      </trkpt>
      <trkpt lat="46.68783" lon="5.63445">
        <ele>512</ele>
      </trkpt>
      <trkpt lat="46.68777" lon="5.63436">
        <ele>512.3</ele>
      </trkpt>
      <trkpt lat="46.68768" lon="5.6343">
        <ele>512.7</ele>
      </trkpt>
      <trkpt lat="46.68762" lon="5.63423">
        <ele>513.2</ele>
      </trkpt>
      <trkpt lat="46.68762" lon="5.63411">
        <ele>513.8</ele>
      </trkpt>
      <trkpt lat="46.68761" lon="5.63396">
        <ele>514.4</ele>
      </trkpt>
      <trkpt lat="46.68756" lon="5.63379">
        <ele>514.8</ele>
      </trkpt>
      <trkpt lat="46.68754" lon="5.63367">
        <ele>514.8</ele>
        <time>2022-07-15T11:08:41Z</time>
      </trkpt>
      <trkpt lat="46.68751" lon="5.63354">
        <ele>515</ele>
        <time>2022-07-15T11:08:56Z</time>
      </trkpt>
      <trkpt lat="46.68744" lon="5.63335">
        <ele>515.9</ele>
        <time>2022-07-15T11:09:10Z</time>
      </trkpt>
      <trkpt lat="46.68744" lon="5.63315">
        <ele>517.7</ele>
        <time>2022-07-15T11:09:13Z</time>
      </trkpt>
      <trkpt lat="46.68743" lon="5.633">
        <ele>519.4</ele>
      </trkpt>
      <trkpt lat="46.68759" lon="5.6327">
        <ele>520.8</ele>
        <time>2022-07-15T11:09:27Z</time>
      </trkpt>
      <trkpt lat="46.68774" lon="5.63249">
        <ele>520.6</ele>
        <time>2022-07-15T11:09:44Z</time>
      </trkpt>
      <trkpt lat="46.68784" lon="5.63242">
        <ele>520.5</ele>
      </trkpt>
      <trkpt lat="46.68798" lon="5.63239">
        <ele>519.9</ele>
        <time>2022-07-15T11:10:01Z</time>
      </trkpt>
      <trkpt lat="46.68808" lon="5.63236">
        <ele>519.8</ele>
        <time>2022-07-15T11:10:04Z</time>
      </trkpt>
      <trkpt lat="46.68814" lon="5.63229">
        <ele>520.7</ele>
        <time>2022-07-15T11:10:06Z</time>
      </trkpt>
      <trkpt lat="46.68824" lon="5.6322">
        <ele>522.2</ele>
        <time>2022-07-15T11:10:23Z</time>
      </trkpt>
      <trkpt lat="46.68835" lon="5.63212">
        <ele>523.9</ele>
        <time>2022-07-15T11:10:30Z</time>
      </trkpt>
      <trkpt lat="46.68844" lon="5.63199">
        <ele>525.8</ele>
        <time>2022-07-15T11:10:31Z</time>
      </trkpt>
      <trkpt lat="46.68853" lon="5.63183">
        <ele>528.1</ele>
        <time>2022-07-15T11:10:44Z</time>
      </trkpt>
      <trkpt lat="46.68856" lon="5.63173">
        <ele>529.2</ele>
        <time>2022-07-15T11:10:45Z</time>
      </trkpt>
      <trkpt lat="46.68844" lon="5.63149">
        <ele>533.19</ele>
        <time>2022-07-15T11:11:01Z</time>
      </trkpt>
      <trkpt lat="46.68826" lon="5.63142">
        <ele>533.19</ele>
        <time>2022-07-15T11:11:15Z</time>
      </trkpt>
      <trkpt lat="46.68813" lon="5.63139">
        <ele>533.67</ele>
        <time>2022-07-15T11:11:25Z</time>
      </trkpt>
      <trkpt lat="46.68796" lon="5.6313">
        <ele>534.63</ele>
        <time>2022-07-15T11:11:39Z</time>
      </trkpt>
      <trkpt lat="46.68786" lon="5.63125">
        <ele>534.63</ele>
        <time>2022-07-15T11:11:50Z</time>
      </trkpt>
      <trkpt lat="46.68765" lon="5.63121">
        <ele>536.07</ele>
        <time>2022-07-15T11:12:05Z</time>
      </trkpt>
      <trkpt lat="46.68747" lon="5.63121">
        <ele>537.03</ele>
        <time>2022-07-15T11:12:18Z</time>
      </trkpt>
      <trkpt lat="46.68731" lon="5.63117">
        <ele>537.51</ele>
        <time>2022-07-15T11:12:33Z</time>
      </trkpt>
      <trkpt lat="46.68712" lon="5.63109">
        <ele>538.96</ele>
        <time>2022-07-15T11:12:50Z</time>
      </trkpt>
      <trkpt lat="46.68709" lon="5.63107">
        <ele>539.44</ele>
        <time>2022-07-15T11:12:53Z</time>
      </trkpt>
      <trkpt lat="46.68696" lon="5.63097">
        <ele>539.92</ele>
        <time>2022-07-15T11:13:05Z</time>
      </trkpt>
      <trkpt lat="46.68681" lon="5.63085">
        <ele>540.88</ele>
        <time>2022-07-15T11:13:20Z</time>
      </trkpt>
      <trkpt lat="46.68666" lon="5.63065">
        <ele>541.84</ele>
        <time>2022-07-15T11:13:36Z</time>
      </trkpt>
      <trkpt lat="46.68662" lon="5.6306">
        <ele>542.32</ele>
        <time>2022-07-15T11:13:41Z</time>
      </trkpt>
      <trkpt lat="46.68661" lon="5.63059">
        <ele>542.8</ele>
        <time>2022-07-15T11:13:42Z</time>
      </trkpt>
      <trkpt lat="46.68645" lon="5.6304">
        <ele>542.8</ele>
        <time>2022-07-15T11:13:58Z</time>
      </trkpt>
      <trkpt lat="46.68636" lon="5.63021">
        <ele>543.28</ele>
        <time>2022-07-15T11:14:12Z</time>
      </trkpt>
      <trkpt lat="46.68631" lon="5.63003">
        <ele>544.24</ele>
        <time>2022-07-15T11:14:24Z</time>
      </trkpt>
      <trkpt lat="46.68623" lon="5.62979">
        <ele>545.2</ele>
        <time>2022-07-15T11:14:38Z</time>
      </trkpt>
      <trkpt lat="46.68616" lon="5.62956">
        <ele>545.69</ele>
        <time>2022-07-15T11:14:52Z</time>
      </trkpt>
      <trkpt lat="46.68605" lon="5.62931">
        <ele>546.17</ele>
        <time>2022-07-15T11:15:06Z</time>
      </trkpt>
      <trkpt lat="46.68595" lon="5.62908">
        <ele>546.17</ele>
        <time>2022-07-15T11:15:20Z</time>
      </trkpt>
      <trkpt lat="46.68584" lon="5.62887">
        <ele>547.13</ele>
        <time>2022-07-15T11:15:34Z</time>
      </trkpt>
      <trkpt lat="46.68565" lon="5.6287">
        <ele>546.65</ele>
        <time>2022-07-15T11:15:51Z</time>
      </trkpt>
      <trkpt lat="46.68562" lon="5.6287">
        <ele>547.13</ele>
        <time>2022-07-15T11:16:05Z</time>
      </trkpt>
      <trkpt lat="46.68564" lon="5.62871">
        <ele>546.17</ele>
        <time>2022-07-15T11:16:32Z</time>
      </trkpt>
      <trkpt lat="46.68563" lon="5.62874">
        <ele>546.17</ele>
        <time>2022-07-15T11:16:56Z</time>
      </trkpt>
      <trkpt lat="46.68564" lon="5.62875">
        <ele>546.17</ele>
        <time>2022-07-15T11:17:24Z</time>
      </trkpt>
      <trkpt lat="46.68562" lon="5.62869">
        <ele>546.17</ele>
        <time>2022-07-15T11:17:40Z</time>
      </trkpt>
      <trkpt lat="46.68562" lon="5.62865">
        <ele>545.2</ele>
        <time>2022-07-15T11:18:02Z</time>
      </trkpt>
      <trkpt lat="46.68563" lon="5.62868">
        <ele>546.17</ele>
        <time>2022-07-15T11:18:22Z</time>
      </trkpt>
      <trkpt lat="46.68567" lon="5.62865">
        <ele>545.69</ele>
        <time>2022-07-15T11:18:47Z</time>
      </trkpt>
      <trkpt lat="46.68563" lon="5.62867">
        <ele>545.2</ele>
        <time>2022-07-15T11:19:11Z</time>
      </trkpt>
      <trkpt lat="46.68565" lon="5.62867">
        <ele>545.69</ele>
        <time>2022-07-15T11:19:33Z</time>
      </trkpt>
      <trkpt lat="46.68565" lon="5.62862">
        <ele>546.17</ele>
        <time>2022-07-15T11:20:05Z</time>
      </trkpt>
      <trkpt lat="46.68566" lon="5.62865">
        <ele>545.69</ele>
        <time>2022-07-15T11:20:32Z</time>
      </trkpt>
      <trkpt lat="46.68566" lon="5.62866">
        <ele>546.17</ele>
        <time>2022-07-15T11:20:45Z</time>
      </trkpt>
      <trkpt lat="46.68565" lon="5.62865">
        <ele>546.17</ele>
        <time>2022-07-15T11:21:10Z</time>
      </trkpt>
      <trkpt lat="46.68562" lon="5.62864">
        <ele>545.69</ele>
        <time>2022-07-15T11:21:13Z</time>
      </trkpt>
      <trkpt lat="46.68555" lon="5.6286">
        <ele>545.2</ele>
        <time>2022-07-15T11:21:19Z</time>
      </trkpt>
      <trkpt lat="46.68541" lon="5.62842">
        <ele>544.72</ele>
        <time>2022-07-15T11:21:33Z</time>
      </trkpt>
      <trkpt lat="46.6854" lon="5.62832">
        <ele>544.72</ele>
        <time>2022-07-15T11:21:46Z</time>
      </trkpt>
      <trkpt lat="46.68541" lon="5.62823">
        <ele>545.2</ele>
        <time>2022-07-15T11:22:03Z</time>
      </trkpt>
      <trkpt lat="46.68541" lon="5.62823">
        <ele>544.72</ele>
        <time>2022-07-15T11:22:11Z</time>
      </trkpt>
      <trkpt lat="46.68541" lon="5.62821">
        <ele>544.72</ele>
        <time>2022-07-15T11:22:12Z</time>
      </trkpt>
      <trkpt lat="46.68541" lon="5.62819">
        <ele>544.24</ele>
        <time>2022-07-15T11:22:13Z</time>
      </trkpt>
      <trkpt lat="46.68542" lon="5.62816">
        <ele>544.72</ele>
        <time>2022-07-15T11:22:15Z</time>
      </trkpt>
      <trkpt lat="46.68542" lon="5.6281">
        <ele>544.72</ele>
        <time>2022-07-15T11:22:18Z</time>
      </trkpt>
      <trkpt lat="46.68542" lon="5.62808">
        <ele>544.72</ele>
        <time>2022-07-15T11:22:19Z</time>
      </trkpt>
      <trkpt lat="46.68546" lon="5.62786">
        <ele>545.69</ele>
        <time>2022-07-15T11:22:32Z</time>
      </trkpt>
      <trkpt lat="46.68552" lon="5.62758">
        <ele>545.69</ele>
        <time>2022-07-15T11:22:49Z</time>
      </trkpt>
      <trkpt lat="46.68557" lon="5.62734">
        <ele>546.65</ele>
        <time>2022-07-15T11:23:05Z</time>
      </trkpt>
      <trkpt lat="46.68561" lon="5.62712">
        <ele>547.61</ele>
        <time>2022-07-15T11:23:16Z</time>
      </trkpt>
      <trkpt lat="46.68559" lon="5.62703">
        <ele>548.09</ele>
        <time>2022-07-15T11:23:30Z</time>
      </trkpt>
      <trkpt lat="46.68559" lon="5.62702">
        <ele>548.09</ele>
        <time>2022-07-15T11:23:33Z</time>
      </trkpt>
      <trkpt lat="46.68559" lon="5.62701">
        <ele>548.09</ele>
        <time>2022-07-15T11:23:34Z</time>
      </trkpt>
      <trkpt lat="46.68537" lon="5.62698">
        <ele>548.09</ele>
        <time>2022-07-15T11:23:50Z</time>
      </trkpt>
      <trkpt lat="46.68525" lon="5.62697">
        <ele>548.57</ele>
        <time>2022-07-15T11:24:06Z</time>
      </trkpt>
      <trkpt lat="46.68511" lon="5.62691">
        <ele>548.57</ele>
        <time>2022-07-15T11:24:16Z</time>
      </trkpt>
      <trkpt lat="46.6851" lon="5.6269">
        <ele>548.09</ele>
        <time>2022-07-15T11:24:17Z</time>
      </trkpt>
      <trkpt lat="46.68488" lon="5.62685">
        <ele>547.61</ele>
        <time>2022-07-15T11:24:31Z</time>
      </trkpt>
      <trkpt lat="46.68471" lon="5.6269">
        <ele>547.61</ele>
        <time>2022-07-15T11:24:44Z</time>
      </trkpt>
      <trkpt lat="46.68456" lon="5.6269">
        <ele>546.65</ele>
        <time>2022-07-15T11:24:56Z</time>
      </trkpt>
      <trkpt lat="46.68435" lon="5.62696">
        <ele>546.65</ele>
        <time>2022-07-15T11:25:12Z</time>
      </trkpt>
      <trkpt lat="46.6841" lon="5.62702">
        <ele>546.65</ele>
        <time>2022-07-15T11:25:30Z</time>
      </trkpt>
      <trkpt lat="46.68383" lon="5.62704">
        <ele>546.65</ele>
        <time>2022-07-15T11:25:50Z</time>
      </trkpt>
      <trkpt lat="46.68365" lon="5.627">
        <ele>546.17</ele>
        <time>2022-07-15T11:26:04Z</time>
      </trkpt>
      <trkpt lat="46.68344" lon="5.62695">
        <ele>545.69</ele>
        <time>2022-07-15T11:26:23Z</time>
      </trkpt>
      <trkpt lat="46.68321" lon="5.62687">
        <ele>545.69</ele>
        <time>2022-07-15T11:26:42Z</time>
      </trkpt>
      <trkpt lat="46.68308" lon="5.62679">
        <ele>544.72</ele>
        <time>2022-07-15T11:26:54Z</time>
      </trkpt>
      <trkpt lat="46.68283" lon="5.62665">
        <ele>544.72</ele>
        <time>2022-07-15T11:27:07Z</time>
      </trkpt>
      <trkpt lat="46.68269" lon="5.62658">
        <ele>544.24</ele>
        <time>2022-07-15T11:27:17Z</time>
      </trkpt>
      <trkpt lat="46.68254" lon="5.62652">
        <ele>543.76</ele>
        <time>2022-07-15T11:27:31Z</time>
      </trkpt>
      <trkpt lat="46.68238" lon="5.62643">
        <ele>543.28</ele>
        <time>2022-07-15T11:27:43Z</time>
      </trkpt>
      <trkpt lat="46.68224" lon="5.62631">
        <ele>542.32</ele>
        <time>2022-07-15T11:27:56Z</time>
      </trkpt>
      <trkpt lat="46.68209" lon="5.62621">
        <ele>541.84</ele>
        <time>2022-07-15T11:28:09Z</time>
      </trkpt>
      <trkpt lat="46.68197" lon="5.62613">
        <ele>541.36</ele>
        <time>2022-07-15T11:28:22Z</time>
      </trkpt>
      <trkpt lat="46.68182" lon="5.62598">
        <ele>540.4</ele>
        <time>2022-07-15T11:28:35Z</time>
      </trkpt>
      <trkpt lat="46.68168" lon="5.62583">
        <ele>539.92</ele>
        <time>2022-07-15T11:28:47Z</time>
      </trkpt>
      <trkpt lat="46.68156" lon="5.62569">
        <ele>539.44</ele>
        <time>2022-07-15T11:29:00Z</time>
      </trkpt>
      <trkpt lat="46.68155" lon="5.62566">
        <ele>539.44</ele>
        <time>2022-07-15T11:29:02Z</time>
      </trkpt>
      <trkpt lat="46.68154" lon="5.62565">
        <ele>539.44</ele>
        <time>2022-07-15T11:29:03Z</time>
      </trkpt>
      <trkpt lat="46.68153" lon="5.62563">
        <ele>539.44</ele>
        <time>2022-07-15T11:29:04Z</time>
      </trkpt>
      <trkpt lat="46.68151" lon="5.62561">
        <ele>539.44</ele>
        <time>2022-07-15T11:29:05Z</time>
      </trkpt>
      <trkpt lat="46.6815" lon="5.62559">
        <ele>539.44</ele>
        <time>2022-07-15T11:29:06Z</time>
      </trkpt>
      <trkpt lat="46.68148" lon="5.62557">
        <ele>539.44</ele>
        <time>2022-07-15T11:29:07Z</time>
      </trkpt>
      <trkpt lat="46.68147" lon="5.62555">
        <ele>539.44</ele>
        <time>2022-07-15T11:29:08Z</time>
      </trkpt>
      <trkpt lat="46.6814" lon="5.62539">
        <ele>539.92</ele>
        <time>2022-07-15T11:29:20Z</time>
      </trkpt>
      <trkpt lat="46.68119" lon="5.62524">
        <ele>539.44</ele>
        <time>2022-07-15T11:29:37Z</time>
      </trkpt>
      <trkpt lat="46.68116" lon="5.62523">
        <ele>539.44</ele>
        <time>2022-07-15T11:29:39Z</time>
      </trkpt>
      <trkpt lat="46.68108" lon="5.62517">
        <ele>539.92</ele>
        <time>2022-07-15T11:29:51Z</time>
      </trkpt>
      <trkpt lat="46.68094" lon="5.62505">
        <ele>540.4</ele>
        <time>2022-07-15T11:30:06Z</time>
      </trkpt>
      <trkpt lat="46.68079" lon="5.62493">
        <ele>540.88</ele>
        <time>2022-07-15T11:30:22Z</time>
      </trkpt>
      <trkpt lat="46.68054" lon="5.6248">
        <ele>542.32</ele>
        <time>2022-07-15T11:30:38Z</time>
      </trkpt>
      <trkpt lat="46.68036" lon="5.62473">
        <ele>543.28</ele>
        <time>2022-07-15T11:30:55Z</time>
      </trkpt>
      <trkpt lat="46.68007" lon="5.62466">
        <ele>544.24</ele>
        <time>2022-07-15T11:31:13Z</time>
      </trkpt>
      <trkpt lat="46.67989" lon="5.62463">
        <ele>543.76</ele>
        <time>2022-07-15T11:31:25Z</time>
      </trkpt>
      <trkpt lat="46.67973" lon="5.62454">
        <ele>542.8</ele>
        <time>2022-07-15T11:31:38Z</time>
      </trkpt>
      <trkpt lat="46.67972" lon="5.62452">
        <ele>542.8</ele>
        <time>2022-07-15T11:31:40Z</time>
      </trkpt>
      <trkpt lat="46.67971" lon="5.6245">
        <ele>542.8</ele>
        <time>2022-07-15T11:31:41Z</time>
      </trkpt>
      <trkpt lat="46.6797" lon="5.62449">
        <ele>542.8</ele>
        <time>2022-07-15T11:31:42Z</time>
      </trkpt>
      <trkpt lat="46.67969" lon="5.62447">
        <ele>542.8</ele>
        <time>2022-07-15T11:31:43Z</time>
      </trkpt>
      <trkpt lat="46.67967" lon="5.62445">
        <ele>543.28</ele>
        <time>2022-07-15T11:31:44Z</time>
      </trkpt>
      <trkpt lat="46.67946" lon="5.62432">
        <ele>541.84</ele>
        <time>2022-07-15T11:32:02Z</time>
      </trkpt>
      <trkpt lat="46.67932" lon="5.62429">
        <ele>541.36</ele>
        <time>2022-07-15T11:32:14Z</time>
      </trkpt>
      <trkpt lat="46.67925" lon="5.62429">
        <ele>541.36</ele>
        <time>2022-07-15T11:32:30Z</time>
      </trkpt>
      <trkpt lat="46.67925" lon="5.62432">
        <ele>540.88</ele>
        <time>2022-07-15T11:32:55Z</time>
      </trkpt>
      <trkpt lat="46.67926" lon="5.62425">
        <ele>540.4</ele>
        <time>2022-07-15T11:33:22Z</time>
      </trkpt>
      <trkpt lat="46.67924" lon="5.62427">
        <ele>540.88</ele>
        <time>2022-07-15T11:33:45Z</time>
      </trkpt>
      <trkpt lat="46.67924" lon="5.6243">
        <ele>540.4</ele>
        <time>2022-07-15T11:33:48Z</time>
      </trkpt>
      <trkpt lat="46.67918" lon="5.62435">
        <ele>540.88</ele>
        <time>2022-07-15T11:33:56Z</time>
      </trkpt>
      <trkpt lat="46.67916" lon="5.62436">
        <ele>540.88</ele>
        <time>2022-07-15T11:33:58Z</time>
      </trkpt>
      <trkpt lat="46.67901" lon="5.62432">
        <ele>540.88</ele>
        <time>2022-07-15T11:34:11Z</time>
      </trkpt>
      <trkpt lat="46.67887" lon="5.62425">
        <ele>540.4</ele>
        <time>2022-07-15T11:34:27Z</time>
      </trkpt>
      <trkpt lat="46.67874" lon="5.62412">
        <ele>540.4</ele>
        <time>2022-07-15T11:34:43Z</time>
      </trkpt>
      <trkpt lat="46.67862" lon="5.62395">
        <ele>540.88</ele>
        <time>2022-07-15T11:34:58Z</time>
      </trkpt>
      <trkpt lat="46.67849" lon="5.62375">
        <ele>540.88</ele>
        <time>2022-07-15T11:35:12Z</time>
      </trkpt>
      <trkpt lat="46.67833" lon="5.62359">
        <ele>539.92</ele>
        <time>2022-07-15T11:35:27Z</time>
      </trkpt>
      <trkpt lat="46.67831" lon="5.62358">
        <ele>539.92</ele>
        <time>2022-07-15T11:35:29Z</time>
      </trkpt>
      <trkpt lat="46.67816" lon="5.6234">
        <ele>539.44</ele>
        <time>2022-07-15T11:35:44Z</time>
      </trkpt>
      <trkpt lat="46.67798" lon="5.62325">
        <ele>538.96</ele>
        <time>2022-07-15T11:36:00Z</time>
      </trkpt>
      <trkpt lat="46.6778" lon="5.62313">
        <ele>537.99</ele>
        <time>2022-07-15T11:36:14Z</time>
      </trkpt>
      <trkpt lat="46.67772" lon="5.62303">
        <ele>537.99</ele>
        <time>2022-07-15T11:36:24Z</time>
      </trkpt>
      <trkpt lat="46.67759" lon="5.6229">
        <ele>537.03</ele>
        <time>2022-07-15T11:36:36Z</time>
      </trkpt>
      <trkpt lat="46.67754" lon="5.62284">
        <ele>537.51</ele>
        <time>2022-07-15T11:36:40Z</time>
      </trkpt>
      <trkpt lat="46.67747" lon="5.62271">
        <ele>537.03</ele>
        <time>2022-07-15T11:36:49Z</time>
      </trkpt>
      <trkpt lat="46.67745" lon="5.62253">
        <ele>536.55</ele>
        <time>2022-07-15T11:36:58Z</time>
      </trkpt>
      <trkpt lat="46.6775" lon="5.62229">
        <ele>537.03</ele>
        <time>2022-07-15T11:37:12Z</time>
      </trkpt>
      <trkpt lat="46.67754" lon="5.62211">
        <ele>537.03</ele>
        <time>2022-07-15T11:37:23Z</time>
      </trkpt>
      <trkpt lat="46.67758" lon="5.62202">
        <ele>537.51</ele>
        <time>2022-07-15T11:37:29Z</time>
      </trkpt>
      <trkpt lat="46.6776" lon="5.62199">
        <ele>537.51</ele>
        <time>2022-07-15T11:37:31Z</time>
      </trkpt>
      <trkpt lat="46.67761" lon="5.62198">
        <ele>537.99</ele>
        <time>2022-07-15T11:37:32Z</time>
      </trkpt>
      <trkpt lat="46.67762" lon="5.62196">
        <ele>537.99</ele>
        <time>2022-07-15T11:37:33Z</time>
      </trkpt>
      <trkpt lat="46.67769" lon="5.62171">
        <ele>538.48</ele>
        <time>2022-07-15T11:37:46Z</time>
      </trkpt>
      <trkpt lat="46.67775" lon="5.62139">
        <ele>539.44</ele>
        <time>2022-07-15T11:38:01Z</time>
      </trkpt>
      <trkpt lat="46.67782" lon="5.62113">
        <ele>539.44</ele>
        <time>2022-07-15T11:38:15Z</time>
      </trkpt>
      <trkpt lat="46.67786" lon="5.62097">
        <ele>539.92</ele>
        <time>2022-07-15T11:38:24Z</time>
      </trkpt>
      <trkpt lat="46.67786" lon="5.62094">
        <ele>540.4</ele>
        <time>2022-07-15T11:38:25Z</time>
      </trkpt>
      <trkpt lat="46.67787" lon="5.62092">
        <ele>539.92</ele>
        <time>2022-07-15T11:38:26Z</time>
      </trkpt>
      <trkpt lat="46.67787" lon="5.62091">
        <ele>540.4</ele>
        <time>2022-07-15T11:38:27Z</time>
      </trkpt>
      <trkpt lat="46.67788" lon="5.62089">
        <ele>540.88</ele>
        <time>2022-07-15T11:38:28Z</time>
      </trkpt>
      <trkpt lat="46.67788" lon="5.62088">
        <ele>540.4</ele>
        <time>2022-07-15T11:38:29Z</time>
      </trkpt>
      <trkpt lat="46.67797" lon="5.62065">
        <ele>541.36</ele>
        <time>2022-07-15T11:38:44Z</time>
      </trkpt>
      <trkpt lat="46.67803" lon="5.62035">
        <ele>541.84</ele>
        <time>2022-07-15T11:38:59Z</time>
      </trkpt>
      <trkpt lat="46.6781" lon="5.62014">
        <ele>541.36</ele>
        <time>2022-07-15T11:39:12Z</time>
      </trkpt>
      <trkpt lat="46.6781" lon="5.62012">
        <ele>541.36</ele>
        <time>2022-07-15T11:39:13Z</time>
      </trkpt>
      <trkpt lat="46.67811" lon="5.62009">
        <ele>541.84</ele>
        <time>2022-07-15T11:39:14Z</time>
      </trkpt>
      <trkpt lat="46.67819" lon="5.61984">
        <ele>541.84</ele>
        <time>2022-07-15T11:39:27Z</time>
      </trkpt>
      <trkpt lat="46.67824" lon="5.61964">
        <ele>541.36</ele>
        <time>2022-07-15T11:39:38Z</time>
      </trkpt>
      <trkpt lat="46.67832" lon="5.61945">
        <ele>541.36</ele>
        <time>2022-07-15T11:39:52Z</time>
      </trkpt>
      <trkpt lat="46.6784" lon="5.61924">
        <ele>540.4</ele>
        <time>2022-07-15T11:40:05Z</time>
      </trkpt>
      <trkpt lat="46.67847" lon="5.61896">
        <ele>539.92</ele>
        <time>2022-07-15T11:40:17Z</time>
      </trkpt>
      <trkpt lat="46.67848" lon="5.6189">
        <ele>539.44</ele>
        <time>2022-07-15T11:40:24Z</time>
      </trkpt>
      <trkpt lat="46.67852" lon="5.61867">
        <ele>539.44</ele>
        <time>2022-07-15T11:40:33Z</time>
      </trkpt>
      <trkpt lat="46.67858" lon="5.61849">
        <ele>538.96</ele>
        <time>2022-07-15T11:40:45Z</time>
      </trkpt>
      <trkpt lat="46.67861" lon="5.61842">
        <ele>538.96</ele>
        <time>2022-07-15T11:40:49Z</time>
      </trkpt>
      <trkpt lat="46.67867" lon="5.61833">
        <ele>538.48</ele>
        <time>2022-07-15T11:40:56Z</time>
      </trkpt>
      <trkpt lat="46.67877" lon="5.61809">
        <ele>537.51</ele>
        <time>2022-07-15T11:41:08Z</time>
      </trkpt>
      <trkpt lat="46.67884" lon="5.61782">
        <ele>537.03</ele>
        <time>2022-07-15T11:41:20Z</time>
      </trkpt>
      <trkpt lat="46.67888" lon="5.61765">
        <ele>536.07</ele>
        <time>2022-07-15T11:41:32Z</time>
      </trkpt>
      <trkpt lat="46.67896" lon="5.61746">
        <ele>535.11</ele>
        <time>2022-07-15T11:41:44Z</time>
      </trkpt>
      <trkpt lat="46.67897" lon="5.61745">
        <ele>535.11</ele>
        <time>2022-07-15T11:41:45Z</time>
      </trkpt>
      <trkpt lat="46.67902" lon="5.61722">
        <ele>534.15</ele>
        <time>2022-07-15T11:41:57Z</time>
      </trkpt>
      <trkpt lat="46.67908" lon="5.61695">
        <ele>534.15</ele>
        <time>2022-07-15T11:42:10Z</time>
      </trkpt>
      <trkpt lat="46.67911" lon="5.61676">
        <ele>534.15</ele>
        <time>2022-07-15T11:42:20Z</time>
      </trkpt>
      <trkpt lat="46.67919" lon="5.61658">
        <ele>533.67</ele>
        <time>2022-07-15T11:42:34Z</time>
      </trkpt>
      <trkpt lat="46.67919" lon="5.61656">
        <ele>533.19</ele>
        <time>2022-07-15T11:42:35Z</time>
      </trkpt>
      <trkpt lat="46.6792" lon="5.61654">
        <ele>533.19</ele>
        <time>2022-07-15T11:42:36Z</time>
      </trkpt>
      <trkpt lat="46.67921" lon="5.61651">
        <ele>532.71</ele>
        <time>2022-07-15T11:42:37Z</time>
      </trkpt>
      <trkpt lat="46.67921" lon="5.61648">
        <ele>533.19</ele>
        <time>2022-07-15T11:42:38Z</time>
      </trkpt>
      <trkpt lat="46.67929" lon="5.61629">
        <ele>532.23</ele>
        <time>2022-07-15T11:42:50Z</time>
      </trkpt>
      <trkpt lat="46.67931" lon="5.6162">
        <ele>531.27</ele>
        <time>2022-07-15T11:42:55Z</time>
      </trkpt>
      <trkpt lat="46.67932" lon="5.61617">
        <ele>531.27</ele>
        <time>2022-07-15T11:42:56Z</time>
      </trkpt>
      <trkpt lat="46.67939" lon="5.616">
        <ele>529.34</ele>
        <time>2022-07-15T11:43:08Z</time>
      </trkpt>
      <trkpt lat="46.6794" lon="5.61597">
        <ele>528.86</ele>
        <time>2022-07-15T11:43:10Z</time>
      </trkpt>
      <trkpt lat="46.67945" lon="5.61575">
        <ele>527.9</ele>
        <time>2022-07-15T11:43:23Z</time>
      </trkpt>
      <trkpt lat="46.67948" lon="5.61555">
        <ele>527.42</ele>
        <time>2022-07-15T11:43:33Z</time>
      </trkpt>
      <trkpt lat="46.67954" lon="5.61537">
        <ele>527.42</ele>
        <time>2022-07-15T11:43:45Z</time>
      </trkpt>
      <trkpt lat="46.67955" lon="5.61533">
        <ele>526.94</ele>
        <time>2022-07-15T11:43:47Z</time>
      </trkpt>
      <trkpt lat="46.6796" lon="5.61512">
        <ele>525.98</ele>
        <time>2022-07-15T11:43:59Z</time>
      </trkpt>
      <trkpt lat="46.67966" lon="5.61495">
        <ele>524.54</ele>
        <time>2022-07-15T11:44:10Z</time>
      </trkpt>
      <trkpt lat="46.67966" lon="5.61493">
        <ele>525.02</ele>
        <time>2022-07-15T11:44:11Z</time>
      </trkpt>
      <trkpt lat="46.67969" lon="5.6148">
        <ele>525.02</ele>
        <time>2022-07-15T11:44:17Z</time>
      </trkpt>
      <trkpt lat="46.67971" lon="5.61473">
        <ele>524.06</ele>
        <time>2022-07-15T11:44:23Z</time>
      </trkpt>
      <trkpt lat="46.67972" lon="5.6147">
        <ele>524.54</ele>
        <time>2022-07-15T11:44:24Z</time>
      </trkpt>
      <trkpt lat="46.67973" lon="5.61465">
        <ele>524.54</ele>
        <time>2022-07-15T11:44:26Z</time>
      </trkpt>
      <trkpt lat="46.67973" lon="5.61462">
        <ele>524.54</ele>
        <time>2022-07-15T11:44:27Z</time>
      </trkpt>
      <trkpt lat="46.67973" lon="5.61459">
        <ele>524.06</ele>
        <time>2022-07-15T11:44:28Z</time>
      </trkpt>
      <trkpt lat="46.67974" lon="5.61456">
        <ele>524.06</ele>
        <time>2022-07-15T11:44:29Z</time>
      </trkpt>
      <trkpt lat="46.67975" lon="5.61453">
        <ele>524.06</ele>
        <time>2022-07-15T11:44:30Z</time>
      </trkpt>
      <trkpt lat="46.67976" lon="5.61451">
        <ele>523.58</ele>
        <time>2022-07-15T11:44:31Z</time>
      </trkpt>
      <trkpt lat="46.67981" lon="5.61425">
        <ele>523.09</ele>
        <time>2022-07-15T11:44:45Z</time>
      </trkpt>
      <trkpt lat="46.67988" lon="5.614">
        <ele>524.06</ele>
        <time>2022-07-15T11:45:03Z</time>
      </trkpt>
      <trkpt lat="46.67989" lon="5.61398">
        <ele>524.54</ele>
        <time>2022-07-15T11:45:04Z</time>
      </trkpt>
      <trkpt lat="46.67989" lon="5.61397">
        <ele>525.02</ele>
        <time>2022-07-15T11:45:05Z</time>
      </trkpt>
      <trkpt lat="46.67992" lon="5.61386">
        <ele>525.02</ele>
        <time>2022-07-15T11:45:14Z</time>
      </trkpt>
      <trkpt lat="46.67993" lon="5.61384">
        <ele>525.02</ele>
        <time>2022-07-15T11:45:15Z</time>
      </trkpt>
      <trkpt lat="46.67995" lon="5.61373">
        <ele>526.46</ele>
        <time>2022-07-15T11:45:26Z</time>
      </trkpt>
      <trkpt lat="46.67996" lon="5.61371">
        <ele>526.46</ele>
        <time>2022-07-15T11:45:27Z</time>
      </trkpt>
      <trkpt lat="46.67998" lon="5.6136">
        <ele>529.34</ele>
        <time>2022-07-15T11:45:38Z</time>
      </trkpt>
      <trkpt lat="46.68002" lon="5.6134">
        <ele>532.71</ele>
        <time>2022-07-15T11:45:57Z</time>
      </trkpt>
      <trkpt lat="46.68007" lon="5.6133">
        <ele>534.15</ele>
        <time>2022-07-15T11:46:12Z</time>
      </trkpt>
      <trkpt lat="46.68012" lon="5.61321">
        <ele>536.55</ele>
        <time>2022-07-15T11:46:25Z</time>
      </trkpt>
      <trkpt lat="46.68011" lon="5.61307">
        <ele>538.96</ele>
        <time>2022-07-15T11:46:39Z</time>
      </trkpt>
      <trkpt lat="46.68015" lon="5.61297">
        <ele>541.84</ele>
        <time>2022-07-15T11:46:53Z</time>
      </trkpt>
      <trkpt lat="46.68019" lon="5.61283">
        <ele>544.72</ele>
        <time>2022-07-15T11:47:06Z</time>
      </trkpt>
      <trkpt lat="46.68022" lon="5.61268">
        <ele>546.65</ele>
        <time>2022-07-15T11:47:22Z</time>
      </trkpt>
      <trkpt lat="46.68027" lon="5.61257">
        <ele>548.09</ele>
        <time>2022-07-15T11:47:36Z</time>
      </trkpt>
      <trkpt lat="46.6803" lon="5.61242">
        <ele>550.97</ele>
        <time>2022-07-15T11:47:50Z</time>
      </trkpt>
      <trkpt lat="46.68034" lon="5.61222">
        <ele>551.45</ele>
        <time>2022-07-15T11:48:06Z</time>
      </trkpt>
      <trkpt lat="46.68042" lon="5.61206">
        <ele>553.38</ele>
        <time>2022-07-15T11:48:21Z</time>
      </trkpt>
      <trkpt lat="46.68046" lon="5.61187">
        <ele>554.34</ele>
        <time>2022-07-15T11:48:37Z</time>
      </trkpt>
      <trkpt lat="46.68046" lon="5.61185">
        <ele>554.34</ele>
        <time>2022-07-15T11:48:38Z</time>
      </trkpt>
      <trkpt lat="46.68051" lon="5.61165">
        <ele>554.34</ele>
        <time>2022-07-15T11:48:53Z</time>
      </trkpt>
      <trkpt lat="46.68052" lon="5.61153">
        <ele>554.82</ele>
        <time>2022-07-15T11:49:11Z</time>
      </trkpt>
      <trkpt lat="46.68064" lon="5.6115">
        <ele>554.34</ele>
        <time>2022-07-15T11:49:28Z</time>
      </trkpt>
      <trkpt lat="46.68065" lon="5.61133">
        <ele>553.86</ele>
        <time>2022-07-15T11:49:47Z</time>
      </trkpt>
      <trkpt lat="46.68072" lon="5.61126">
        <ele>553.86</ele>
        <time>2022-07-15T11:50:02Z</time>
      </trkpt>
      <trkpt lat="46.6808" lon="5.61125">
        <ele>553.86</ele>
        <time>2022-07-15T11:50:16Z</time>
      </trkpt>
      <trkpt lat="46.68089" lon="5.61118">
        <ele>554.34</ele>
        <time>2022-07-15T11:50:25Z</time>
      </trkpt>
      <trkpt lat="46.68098" lon="5.61114">
        <ele>554.34</ele>
        <time>2022-07-15T11:50:32Z</time>
      </trkpt>
      <trkpt lat="46.68111" lon="5.61102">
        <ele>553.86</ele>
        <time>2022-07-15T11:50:46Z</time>
      </trkpt>
      <trkpt lat="46.68121" lon="5.61088">
        <ele>553.86</ele>
        <time>2022-07-15T11:51:01Z</time>
      </trkpt>
      <trkpt lat="46.6813" lon="5.61067">
        <ele>553.38</ele>
        <time>2022-07-15T11:51:15Z</time>
      </trkpt>
      <trkpt lat="46.68138" lon="5.61045">
        <ele>551.93</ele>
        <time>2022-07-15T11:51:31Z</time>
      </trkpt>
      <trkpt lat="46.6814" lon="5.61019">
        <ele>550.49</ele>
        <time>2022-07-15T11:51:48Z</time>
      </trkpt>
      <trkpt lat="46.68135" lon="5.60998">
        <ele>549.53</ele>
        <time>2022-07-15T11:51:58Z</time>
      </trkpt>
      <trkpt lat="46.68125" lon="5.60979">
        <ele>548.57</ele>
        <time>2022-07-15T11:52:10Z</time>
      </trkpt>
      <trkpt lat="46.68122" lon="5.60975">
        <ele>547.61</ele>
        <time>2022-07-15T11:52:15Z</time>
      </trkpt>
      <trkpt lat="46.68106" lon="5.60965">
        <ele>547.13</ele>
        <time>2022-07-15T11:52:29Z</time>
      </trkpt>
      <trkpt lat="46.68095" lon="5.60953">
        <ele>546.65</ele>
        <time>2022-07-15T11:52:42Z</time>
      </trkpt>
      <trkpt lat="46.68089" lon="5.60947">
        <ele>546.17</ele>
        <time>2022-07-15T11:52:47Z</time>
      </trkpt>
      <trkpt lat="46.68083" lon="5.60923">
        <ele>546.17</ele>
        <time>2022-07-15T11:53:03Z</time>
      </trkpt>
      <trkpt lat="46.68075" lon="5.60901">
        <ele>546.17</ele>
        <time>2022-07-15T11:53:17Z</time>
      </trkpt>
      <trkpt lat="46.68064" lon="5.6087">
        <ele>546.17</ele>
        <time>2022-07-15T11:53:35Z</time>
      </trkpt>
      <trkpt lat="46.68057" lon="5.60849">
        <ele>547.13</ele>
        <time>2022-07-15T11:53:49Z</time>
      </trkpt>
      <trkpt lat="46.6805" lon="5.60831">
        <ele>548.09</ele>
        <time>2022-07-15T11:54:02Z</time>
      </trkpt>
      <trkpt lat="46.68047" lon="5.60821">
        <ele>548.57</ele>
        <time>2022-07-15T11:54:09Z</time>
      </trkpt>
      <trkpt lat="46.68042" lon="5.60797">
        <ele>550.01</ele>
        <time>2022-07-15T11:54:23Z</time>
      </trkpt>
      <trkpt lat="46.68041" lon="5.60794">
        <ele>550.01</ele>
        <time>2022-07-15T11:54:25Z</time>
      </trkpt>
      <trkpt lat="46.68035" lon="5.60769">
        <ele>551.45</ele>
        <time>2022-07-15T11:54:40Z</time>
      </trkpt>
      <trkpt lat="46.6803" lon="5.60741">
        <ele>552.9</ele>
        <time>2022-07-15T11:54:58Z</time>
      </trkpt>
      <trkpt lat="46.68029" lon="5.60739">
        <ele>552.9</ele>
        <time>2022-07-15T11:55:00Z</time>
      </trkpt>
      <trkpt lat="46.68023" lon="5.60723">
        <ele>553.38</ele>
        <time>2022-07-15T11:55:15Z</time>
      </trkpt>
      <trkpt lat="46.68021" lon="5.60718">
        <ele>553.38</ele>
        <time>2022-07-15T11:55:38Z</time>
      </trkpt>
      <trkpt lat="46.68021" lon="5.6071">
        <ele>554.34</ele>
        <time>2022-07-15T11:55:52Z</time>
      </trkpt>
      <trkpt lat="46.68019" lon="5.60707">
        <ele>554.82</ele>
        <time>2022-07-15T11:55:54Z</time>
      </trkpt>
      <trkpt lat="46.68017" lon="5.60706">
        <ele>554.34</ele>
        <time>2022-07-15T11:55:55Z</time>
      </trkpt>
      <trkpt lat="46.68016" lon="5.60704">
        <ele>555.3</ele>
        <time>2022-07-15T11:55:56Z</time>
      </trkpt>
      <trkpt lat="46.68013" lon="5.60698">
        <ele>555.3</ele>
        <time>2022-07-15T11:56:02Z</time>
      </trkpt>
      <trkpt lat="46.68012" lon="5.60697">
        <ele>555.78</ele>
        <time>2022-07-15T11:56:03Z</time>
      </trkpt>
      <trkpt lat="46.68011" lon="5.60696">
        <ele>555.3</ele>
        <time>2022-07-15T11:56:04Z</time>
      </trkpt>
      <trkpt lat="46.6801" lon="5.60694">
        <ele>555.78</ele>
        <time>2022-07-15T11:56:05Z</time>
      </trkpt>
      <trkpt lat="46.68009" lon="5.60692">
        <ele>555.78</ele>
        <time>2022-07-15T11:56:06Z</time>
      </trkpt>
      <trkpt lat="46.68008" lon="5.60691">
        <ele>556.26</ele>
        <time>2022-07-15T11:56:07Z</time>
      </trkpt>
      <trkpt lat="46.68008" lon="5.60689">
        <ele>555.78</ele>
        <time>2022-07-15T11:56:08Z</time>
      </trkpt>
      <trkpt lat="46.68007" lon="5.60688">
        <ele>556.26</ele>
        <time>2022-07-15T11:56:09Z</time>
      </trkpt>
      <trkpt lat="46.68006" lon="5.60686">
        <ele>556.26</ele>
        <time>2022-07-15T11:56:10Z</time>
      </trkpt>
      <trkpt lat="46.68006" lon="5.60685">
        <ele>556.74</ele>
        <time>2022-07-15T11:56:11Z</time>
      </trkpt>
      <trkpt lat="46.68005" lon="5.60684">
        <ele>556.26</ele>
        <time>2022-07-15T11:56:12Z</time>
      </trkpt>
      <trkpt lat="46.68001" lon="5.60676">
        <ele>556.74</ele>
        <time>2022-07-15T11:56:20Z</time>
      </trkpt>
      <trkpt lat="46.68" lon="5.60676">
        <ele>556.74</ele>
        <time>2022-07-15T11:56:21Z</time>
      </trkpt>
      <trkpt lat="46.67992" lon="5.60654">
        <ele>557.22</ele>
        <time>2022-07-15T11:56:36Z</time>
      </trkpt>
      <trkpt lat="46.6799" lon="5.60648">
        <ele>557.22</ele>
        <time>2022-07-15T11:56:41Z</time>
      </trkpt>
      <trkpt lat="46.67979" lon="5.60622">
        <ele>557.7</ele>
        <time>2022-07-15T11:56:58Z</time>
      </trkpt>
      <trkpt lat="46.67979" lon="5.6062">
        <ele>558.66</ele>
        <time>2022-07-15T11:56:59Z</time>
      </trkpt>
      <trkpt lat="46.67978" lon="5.60615">
        <ele>558.18</ele>
        <time>2022-07-15T11:57:01Z</time>
      </trkpt>
      <trkpt lat="46.67977" lon="5.60613">
        <ele>558.66</ele>
        <time>2022-07-15T11:57:02Z</time>
      </trkpt>
      <trkpt lat="46.6797" lon="5.60588">
        <ele>558.66</ele>
        <time>2022-07-15T11:57:15Z</time>
      </trkpt>
      <trkpt lat="46.67966" lon="5.60567">
        <ele>557.22</ele>
        <time>2022-07-15T11:57:28Z</time>
      </trkpt>
      <trkpt lat="46.67962" lon="5.60553">
        <ele>557.22</ele>
        <time>2022-07-15T11:57:35Z</time>
      </trkpt>
      <trkpt lat="46.67962" lon="5.6055">
        <ele>557.22</ele>
        <time>2022-07-15T11:57:36Z</time>
      </trkpt>
      <trkpt lat="46.67962" lon="5.60547">
        <ele>556.74</ele>
        <time>2022-07-15T11:57:37Z</time>
      </trkpt>
      <trkpt lat="46.67962" lon="5.60545">
        <ele>556.74</ele>
        <time>2022-07-15T11:57:38Z</time>
      </trkpt>
      <trkpt lat="46.67961" lon="5.60542">
        <ele>556.74</ele>
        <time>2022-07-15T11:57:39Z</time>
      </trkpt>
      <trkpt lat="46.6796" lon="5.6054">
        <ele>556.74</ele>
        <time>2022-07-15T11:57:40Z</time>
      </trkpt>
      <trkpt lat="46.67954" lon="5.60515">
        <ele>555.78</ele>
        <time>2022-07-15T11:57:58Z</time>
      </trkpt>
      <trkpt lat="46.67948" lon="5.60493">
        <ele>554.82</ele>
        <time>2022-07-15T11:58:11Z</time>
      </trkpt>
      <trkpt lat="46.6794" lon="5.6047">
        <ele>552.9</ele>
        <time>2022-07-15T11:58:26Z</time>
      </trkpt>
      <trkpt lat="46.67928" lon="5.60443">
        <ele>552.41</ele>
        <time>2022-07-15T11:58:40Z</time>
      </trkpt>
      <trkpt lat="46.67926" lon="5.60438">
        <ele>551.93</ele>
        <time>2022-07-15T11:58:43Z</time>
      </trkpt>
      <trkpt lat="46.67925" lon="5.60436">
        <ele>551.93</ele>
        <time>2022-07-15T11:58:44Z</time>
      </trkpt>
      <trkpt lat="46.67919" lon="5.60415">
        <ele>550.49</ele>
        <time>2022-07-15T11:58:56Z</time>
      </trkpt>
      <trkpt lat="46.67918" lon="5.60414">
        <ele>550.49</ele>
        <time>2022-07-15T11:58:57Z</time>
      </trkpt>
      <trkpt lat="46.67911" lon="5.60385">
        <ele>550.01</ele>
        <time>2022-07-15T11:59:15Z</time>
      </trkpt>
      <trkpt lat="46.67912" lon="5.60374">
        <ele>550.49</ele>
        <time>2022-07-15T11:59:25Z</time>
      </trkpt>
      <trkpt lat="46.67911" lon="5.60371">
        <ele>550.97</ele>
        <time>2022-07-15T11:59:26Z</time>
      </trkpt>
      <trkpt lat="46.6791" lon="5.60368">
        <ele>550.49</ele>
        <time>2022-07-15T11:59:27Z</time>
      </trkpt>
      <trkpt lat="46.67895" lon="5.6035">
        <ele>549.53</ele>
        <time>2022-07-15T11:59:42Z</time>
      </trkpt>
      <trkpt lat="46.67888" lon="5.60344">
        <ele>549.05</ele>
        <time>2022-07-15T11:59:52Z</time>
      </trkpt>
      <trkpt lat="46.67891" lon="5.60343">
        <ele>549.53</ele>
        <time>2022-07-15T12:00:05Z</time>
      </trkpt>
      <trkpt lat="46.6789" lon="5.60342">
        <ele>549.05</ele>
        <time>2022-07-15T12:00:06Z</time>
      </trkpt>
      <trkpt lat="46.67882" lon="5.60334">
        <ele>548.57</ele>
        <time>2022-07-15T12:00:14Z</time>
      </trkpt>
      <trkpt lat="46.67874" lon="5.60311">
        <ele>548.57</ele>
        <time>2022-07-15T12:00:29Z</time>
      </trkpt>
      <trkpt lat="46.67852" lon="5.60294">
        <ele>548.09</ele>
        <time>2022-07-15T12:00:45Z</time>
      </trkpt>
      <trkpt lat="46.67842" lon="5.60281">
        <ele>546.65</ele>
        <time>2022-07-15T12:01:00Z</time>
      </trkpt>
      <trkpt lat="46.6783" lon="5.60268">
        <ele>546.17</ele>
        <time>2022-07-15T12:01:12Z</time>
      </trkpt>
      <trkpt lat="46.67828" lon="5.60262">
        <ele>546.17</ele>
        <time>2022-07-15T12:01:25Z</time>
      </trkpt>
      <trkpt lat="46.67825" lon="5.60265">
        <ele>545.69</ele>
        <time>2022-07-15T12:01:57Z</time>
      </trkpt>
      <trkpt lat="46.67817" lon="5.60245">
        <ele>544.24</ele>
        <time>2022-07-15T12:02:10Z</time>
      </trkpt>
      <trkpt lat="46.6781" lon="5.60228">
        <ele>544.24</ele>
        <time>2022-07-15T12:02:20Z</time>
      </trkpt>
      <trkpt lat="46.67809" lon="5.60225">
        <ele>544.24</ele>
        <time>2022-07-15T12:02:21Z</time>
      </trkpt>
      <trkpt lat="46.67806" lon="5.60196">
        <ele>543.28</ele>
        <time>2022-07-15T12:02:36Z</time>
      </trkpt>
      <trkpt lat="46.67801" lon="5.60167">
        <ele>542.8</ele>
        <time>2022-07-15T12:02:48Z</time>
      </trkpt>
      <trkpt lat="46.678" lon="5.60145">
        <ele>542.8</ele>
        <time>2022-07-15T12:03:00Z</time>
      </trkpt>
      <trkpt lat="46.678" lon="5.60142">
        <ele>542.8</ele>
        <time>2022-07-15T12:03:01Z</time>
      </trkpt>
      <trkpt lat="46.67801" lon="5.60118">
        <ele>542.8</ele>
        <time>2022-07-15T12:03:15Z</time>
      </trkpt>
      <trkpt lat="46.67791" lon="5.6009">
        <ele>541.84</ele>
        <time>2022-07-15T12:03:31Z</time>
      </trkpt>
      <trkpt lat="46.67789" lon="5.60085">
        <ele>542.32</ele>
        <time>2022-07-15T12:03:34Z</time>
      </trkpt>
      <trkpt lat="46.67776" lon="5.60056">
        <ele>540.88</ele>
        <time>2022-07-15T12:03:50Z</time>
      </trkpt>
      <trkpt lat="46.67769" lon="5.60034">
        <ele>540.88</ele>
        <time>2022-07-15T12:04:05Z</time>
      </trkpt>
      <trkpt lat="46.6776" lon="5.60011">
        <ele>539.44</ele>
        <time>2022-07-15T12:04:18Z</time>
      </trkpt>
      <trkpt lat="46.67749" lon="5.59983">
        <ele>537.99</ele>
        <time>2022-07-15T12:04:32Z</time>
      </trkpt>
      <trkpt lat="46.67745" lon="5.59961">
        <ele>537.03</ele>
        <time>2022-07-15T12:04:46Z</time>
      </trkpt>
      <trkpt lat="46.67742" lon="5.5992">
        <ele>535.59</ele>
        <time>2022-07-15T12:05:06Z</time>
      </trkpt>
      <trkpt lat="46.67738" lon="5.59902">
        <ele>534.15</ele>
        <time>2022-07-15T12:05:18Z</time>
      </trkpt>
      <trkpt lat="46.67733" lon="5.5989">
        <ele>533.19</ele>
        <time>2022-07-15T12:05:29Z</time>
      </trkpt>
      <trkpt lat="46.67727" lon="5.59866">
        <ele>530.79</ele>
        <time>2022-07-15T12:05:43Z</time>
      </trkpt>
      <trkpt lat="46.67726" lon="5.59864">
        <ele>530.3</ele>
        <time>2022-07-15T12:05:44Z</time>
      </trkpt>
      <trkpt lat="46.67726" lon="5.59861">
        <ele>530.79</ele>
        <time>2022-07-15T12:05:45Z</time>
      </trkpt>
      <trkpt lat="46.67726" lon="5.59859">
        <ele>530.3</ele>
        <time>2022-07-15T12:05:46Z</time>
      </trkpt>
      <trkpt lat="46.67725" lon="5.59856">
        <ele>530.3</ele>
        <time>2022-07-15T12:05:47Z</time>
      </trkpt>
      <trkpt lat="46.67724" lon="5.59854">
        <ele>530.79</ele>
        <time>2022-07-15T12:05:48Z</time>
      </trkpt>
      <trkpt lat="46.67723" lon="5.5985">
        <ele>529.82</ele>
        <time>2022-07-15T12:05:49Z</time>
      </trkpt>
      <trkpt lat="46.67721" lon="5.59848">
        <ele>529.82</ele>
        <time>2022-07-15T12:05:50Z</time>
      </trkpt>
      <trkpt lat="46.6772" lon="5.59846">
        <ele>529.34</ele>
        <time>2022-07-15T12:05:51Z</time>
      </trkpt>
      <trkpt lat="46.67711" lon="5.5981">
        <ele>527.42</ele>
        <time>2022-07-15T12:06:05Z</time>
      </trkpt>
      <trkpt lat="46.67706" lon="5.59796">
        <ele>526.94</ele>
        <time>2022-07-15T12:06:12Z</time>
      </trkpt>
      <trkpt lat="46.67706" lon="5.59795">
        <ele>526.94</ele>
        <time>2022-07-15T12:06:13Z</time>
      </trkpt>
      <trkpt lat="46.67705" lon="5.59793">
        <ele>527.42</ele>
        <time>2022-07-15T12:06:14Z</time>
      </trkpt>
      <trkpt lat="46.67704" lon="5.59791">
        <ele>526.46</ele>
        <time>2022-07-15T12:06:15Z</time>
      </trkpt>
      <trkpt lat="46.67703" lon="5.5979">
        <ele>526.46</ele>
        <time>2022-07-15T12:06:16Z</time>
      </trkpt>
      <trkpt lat="46.67699" lon="5.59772">
        <ele>524.06</ele>
        <time>2022-07-15T12:06:30Z</time>
      </trkpt>
      <trkpt lat="46.67699" lon="5.59764">
        <ele>523.09</ele>
        <time>2022-07-15T12:06:35Z</time>
      </trkpt>
      <trkpt lat="46.67698" lon="5.59761">
        <ele>523.09</ele>
        <time>2022-07-15T12:06:37Z</time>
      </trkpt>
      <trkpt lat="46.67697" lon="5.59759">
        <ele>522.61</ele>
        <time>2022-07-15T12:06:39Z</time>
      </trkpt>
      <trkpt lat="46.67696" lon="5.59757">
        <ele>522.13</ele>
        <time>2022-07-15T12:06:40Z</time>
      </trkpt>
      <trkpt lat="46.67694" lon="5.5975">
        <ele>522.13</ele>
        <time>2022-07-15T12:06:43Z</time>
      </trkpt>
      <trkpt lat="46.67694" lon="5.59748">
        <ele>521.65</ele>
        <time>2022-07-15T12:06:44Z</time>
      </trkpt>
      <trkpt lat="46.67693" lon="5.59746">
        <ele>521.65</ele>
        <time>2022-07-15T12:06:45Z</time>
      </trkpt>
      <trkpt lat="46.67687" lon="5.5971">
        <ele>519.25</ele>
        <time>2022-07-15T12:07:00Z</time>
      </trkpt>
      <trkpt lat="46.67685" lon="5.5969">
        <ele>517.33</ele>
        <time>2022-07-15T12:07:12Z</time>
      </trkpt>
      <trkpt lat="46.67687" lon="5.59662">
        <ele>514.92</ele>
        <time>2022-07-15T12:07:29Z</time>
      </trkpt>
      <trkpt lat="46.67689" lon="5.59641">
        <ele>512.52</ele>
        <time>2022-07-15T12:07:41Z</time>
      </trkpt>
      <trkpt lat="46.67688" lon="5.59623">
        <ele>511.56</ele>
        <time>2022-07-15T12:07:57Z</time>
      </trkpt>
      <trkpt lat="46.67683" lon="5.59588">
        <ele>509.16</ele>
        <time>2022-07-15T12:08:11Z</time>
      </trkpt>
      <trkpt lat="46.67681" lon="5.59561">
        <ele>507.23</ele>
        <time>2022-07-15T12:08:23Z</time>
      </trkpt>
      <trkpt lat="46.67683" lon="5.59536">
        <ele>505.79</ele>
        <time>2022-07-15T12:08:39Z</time>
      </trkpt>
      <trkpt lat="46.67684" lon="5.59507">
        <ele>503.87</ele>
        <time>2022-07-15T12:08:54Z</time>
      </trkpt>
      <trkpt lat="46.67686" lon="5.59479">
        <ele>502.43</ele>
        <time>2022-07-15T12:09:08Z</time>
      </trkpt>
      <trkpt lat="46.67691" lon="5.59463">
        <ele>500.98</ele>
        <time>2022-07-15T12:09:20Z</time>
      </trkpt>
      <trkpt lat="46.67692" lon="5.59461">
        <ele>500.5</ele>
        <time>2022-07-15T12:09:21Z</time>
      </trkpt>
      <trkpt lat="46.67693" lon="5.59458">
        <ele>500.5</ele>
        <time>2022-07-15T12:09:22Z</time>
      </trkpt>
      <trkpt lat="46.67703" lon="5.5944">
        <ele>498.58</ele>
        <time>2022-07-15T12:09:37Z</time>
      </trkpt>
      <trkpt lat="46.67711" lon="5.59427">
        <ele>498.1</ele>
        <time>2022-07-15T12:09:53Z</time>
      </trkpt>
      <trkpt lat="46.67719" lon="5.59423">
        <ele>498.58</ele>
        <time>2022-07-15T12:10:03Z</time>
      </trkpt>
      <trkpt lat="46.67724" lon="5.59423">
        <ele>498.1</ele>
        <time>2022-07-15T12:10:17Z</time>
      </trkpt>
      <trkpt lat="46.67729" lon="5.59421">
        <ele>497.62</ele>
        <time>2022-07-15T12:10:34Z</time>
      </trkpt>
      <trkpt lat="46.67729" lon="5.59414">
        <ele>498.1</ele>
        <time>2022-07-15T12:10:43Z</time>
      </trkpt>
      <trkpt lat="46.67729" lon="5.59412">
        <ele>498.1</ele>
        <time>2022-07-15T12:10:44Z</time>
      </trkpt>
      <trkpt lat="46.6773" lon="5.59404">
        <ele>498.58</ele>
        <time>2022-07-15T12:10:58Z</time>
      </trkpt>
      <trkpt lat="46.67724" lon="5.59406">
        <ele>498.1</ele>
        <time>2022-07-15T12:11:23Z</time>
      </trkpt>
      <trkpt lat="46.67723" lon="5.59407">
        <ele>498.1</ele>
        <time>2022-07-15T12:11:27Z</time>
      </trkpt>
      <trkpt lat="46.67719" lon="5.59402">
        <ele>498.58</ele>
        <time>2022-07-15T12:11:40Z</time>
      </trkpt>
      <trkpt lat="46.67717" lon="5.5941">
        <ele>498.58</ele>
        <time>2022-07-15T12:11:55Z</time>
      </trkpt>
      <trkpt lat="46.67717" lon="5.59416">
        <ele>498.1</ele>
        <time>2022-07-15T12:12:06Z</time>
      </trkpt>
      <trkpt lat="46.67718" lon="5.59416">
        <ele>498.58</ele>
        <time>2022-07-15T12:12:20Z</time>
      </trkpt>
      <trkpt lat="46.67718" lon="5.59413">
        <ele>498.1</ele>
        <time>2022-07-15T12:12:33Z</time>
      </trkpt>
      <trkpt lat="46.67719" lon="5.59412">
        <ele>498.1</ele>
        <time>2022-07-15T12:12:59Z</time>
      </trkpt>
      <trkpt lat="46.67716" lon="5.59412">
        <ele>498.58</ele>
        <time>2022-07-15T12:13:29Z</time>
      </trkpt>
      <trkpt lat="46.67713" lon="5.59412">
        <ele>498.1</ele>
        <time>2022-07-15T12:13:32Z</time>
      </trkpt>
      <trkpt lat="46.67706" lon="5.59405">
        <ele>497.14</ele>
        <time>2022-07-15T12:13:43Z</time>
      </trkpt>
      <trkpt lat="46.677" lon="5.59421">
        <ele>490.4</ele>
        <time>2022-07-15T12:13:59Z</time>
      </trkpt>
      <trkpt lat="46.67695" lon="5.59441">
        <ele>491.8</ele>
        <time>2022-07-15T12:14:15Z</time>
      </trkpt>
      <trkpt lat="46.67694" lon="5.59482">
        <ele>493.8</ele>
      </trkpt>
      <trkpt lat="46.67699" lon="5.59498">
        <ele>494.4</ele>
      </trkpt>
      <trkpt lat="46.67711" lon="5.59501">
        <ele>493.2</ele>
      </trkpt>
      <trkpt lat="46.67725" lon="5.59512">
        <ele>492</ele>
        <time>2022-07-15T12:47:44Z</time>
      </trkpt>
      <trkpt lat="46.67738" lon="5.59529">
        <ele>490.3</ele>
      </trkpt>
      <trkpt lat="46.67742" lon="5.59543">
        <ele>490.9</ele>
        <time>2022-07-15T12:48:24Z</time>
      </trkpt>
      <trkpt lat="46.67751" lon="5.59562">
        <ele>490.7</ele>
      </trkpt>
      <trkpt lat="46.67754" lon="5.59592">
        <ele>489.8</ele>
        <time>2022-07-15T12:49:09Z</time>
      </trkpt>
      <trkpt lat="46.6776" lon="5.59611">
        <ele>488.6</ele>
      </trkpt>
      <trkpt lat="46.67782" lon="5.59624">
        <ele>487.4</ele>
        <time>2022-07-15T12:49:50Z</time>
      </trkpt>
      <trkpt lat="46.67809" lon="5.59642">
        <ele>488.1</ele>
        <time>2022-07-15T12:50:47Z</time>
      </trkpt>
      <trkpt lat="46.67842" lon="5.59655">
        <ele>487.6</ele>
        <time>2022-07-15T12:52:20Z</time>
      </trkpt>
      <trkpt lat="46.67862" lon="5.59663">
        <ele>488.4</ele>
      </trkpt>
      <trkpt lat="46.67887" lon="5.59674">
        <ele>488.6</ele>
        <time>2022-07-15T12:53:09Z</time>
      </trkpt>
      <trkpt lat="46.67908" lon="5.59685">
        <ele>488</ele>
      </trkpt>
      <trkpt lat="46.67934" lon="5.59697">
        <ele>489.5</ele>
        <time>2022-07-15T12:53:57Z</time>
      </trkpt>
      <trkpt lat="46.67952" lon="5.59708">
        <ele>492.5</ele>
      </trkpt>
      <trkpt lat="46.67969" lon="5.59712">
        <ele>493.8</ele>
      </trkpt>
      <trkpt lat="46.6799" lon="5.59722">
        <ele>495.9</ele>
      </trkpt>
      <trkpt lat="46.68004" lon="5.59729">
        <ele>498.1</ele>
        <time>2022-07-15T12:55:08Z</time>
      </trkpt>
      <trkpt lat="46.68025" lon="5.59742">
        <ele>501.2</ele>
      </trkpt>
      <trkpt lat="46.68048" lon="5.59752">
        <ele>502.2</ele>
      </trkpt>
      <trkpt lat="46.68063" lon="5.59757">
        <ele>503.2</ele>
      </trkpt>
      <trkpt lat="46.68081" lon="5.59769">
        <ele>504.6</ele>
      </trkpt>
      <trkpt lat="46.68109" lon="5.59779">
        <ele>507</ele>
      </trkpt>
      <trkpt lat="46.68148" lon="5.5979">
        <ele>510.1</ele>
        <time>2022-07-15T12:56:38Z</time>
      </trkpt>
      <trkpt lat="46.68176" lon="5.59807">
        <ele>511.1</ele>
      </trkpt>
      <trkpt lat="46.68196" lon="5.59818">
        <ele>511.4</ele>
      </trkpt>
      <trkpt lat="46.68216" lon="5.59828">
        <ele>511</ele>
      </trkpt>
      <trkpt lat="46.68235" lon="5.59838">
        <ele>510.9</ele>
      </trkpt>
      <trkpt lat="46.68248" lon="5.59846">
        <ele>510.9</ele>
      </trkpt>
      <trkpt lat="46.68265" lon="5.59853">
        <ele>511.1</ele>
      </trkpt>
      <trkpt lat="46.68279" lon="5.59861">
        <ele>511</ele>
      </trkpt>
      <trkpt lat="46.68295" lon="5.59866">
        <ele>511.3</ele>
      </trkpt>
      <trkpt lat="46.68308" lon="5.59873">
        <ele>511.7</ele>
      </trkpt>
      <trkpt lat="46.68325" lon="5.5988">
        <ele>511.6</ele>
      </trkpt>
      <trkpt lat="46.6835" lon="5.59891">
        <ele>511.5</ele>
      </trkpt>
      <trkpt lat="46.6837" lon="5.59902">
        <ele>511</ele>
      </trkpt>
      <trkpt lat="46.68388" lon="5.59904">
        <ele>510.1</ele>
        <time>2022-07-15T13:00:03Z</time>
      </trkpt>
      <trkpt lat="46.68412" lon="5.59921">
        <ele>511.2</ele>
      </trkpt>
      <trkpt lat="46.68439" lon="5.59933">
        <ele>510.9</ele>
      </trkpt>
      <trkpt lat="46.68459" lon="5.59943">
        <ele>510.8</ele>
      </trkpt>
      <trkpt lat="46.68478" lon="5.59951">
        <ele>509.9</ele>
      </trkpt>
      <trkpt lat="46.68503" lon="5.59962">
        <ele>508.8</ele>
      </trkpt>
      <trkpt lat="46.68523" lon="5.59969">
        <ele>508.9</ele>
      </trkpt>
      <trkpt lat="46.68544" lon="5.59982">
        <ele>508.6</ele>
      </trkpt>
      <trkpt lat="46.68578" lon="5.59989">
        <ele>506.6</ele>
        <time>2022-07-15T13:03:06Z</time>
      </trkpt>
      <trkpt lat="46.686" lon="5.60004">
        <ele>506.1</ele>
      </trkpt>
      <trkpt lat="46.68629" lon="5.60017">
        <ele>504.6</ele>
        <time>2022-07-15T13:03:52Z</time>
      </trkpt>
      <trkpt lat="46.68645" lon="5.60028">
        <ele>503.5</ele>
      </trkpt>
      <trkpt lat="46.68662" lon="5.60032">
        <ele>502.6</ele>
        <time>2022-07-15T13:05:03Z</time>
      </trkpt>
      <trkpt lat="46.68674" lon="5.6004">
        <ele>502.1</ele>
      </trkpt>
      <trkpt lat="46.68689" lon="5.60049">
        <ele>501.1</ele>
      </trkpt>
      <trkpt lat="46.68704" lon="5.60051">
        <ele>499.9</ele>
      </trkpt>
      <trkpt lat="46.68723" lon="5.60063">
        <ele>499.2</ele>
      </trkpt>
      <trkpt lat="46.68746" lon="5.60073">
        <ele>497.1</ele>
        <time>2022-07-15T13:06:51Z</time>
      </trkpt>
      <trkpt lat="46.68761" lon="5.60081">
        <ele>496.1</ele>
      </trkpt>
      <trkpt lat="46.68779" lon="5.60085">
        <ele>495.1</ele>
      </trkpt>
      <trkpt lat="46.68797" lon="5.60096">
        <ele>495.2</ele>
      </trkpt>
      <trkpt lat="46.68812" lon="5.60103">
        <ele>495.2</ele>
      </trkpt>
      <trkpt lat="46.68823" lon="5.60108">
        <ele>495.1</ele>
      </trkpt>
      <trkpt lat="46.68834" lon="5.60107">
        <ele>494.7</ele>
        <time>2022-07-15T13:10:24Z</time>
      </trkpt>
      <trkpt lat="46.68852" lon="5.60124">
        <ele>493.7</ele>
      </trkpt>
      <trkpt lat="46.68877" lon="5.6014">
        <ele>493</ele>
      </trkpt>
      <trkpt lat="46.68912" lon="5.60152">
        <ele>491.3</ele>
      </trkpt>
      <trkpt lat="46.68934" lon="5.60161">
        <ele>490.3</ele>
      </trkpt>
      <trkpt lat="46.68958" lon="5.60173">
        <ele>489.5</ele>
      </trkpt>
      <trkpt lat="46.68981" lon="5.60183">
        <ele>488.5</ele>
      </trkpt>
      <trkpt lat="46.69003" lon="5.60195">
        <ele>487.9</ele>
      </trkpt>
      <trkpt lat="46.69024" lon="5.60205">
        <ele>487</ele>
      </trkpt>
      <trkpt lat="46.69057" lon="5.6022">
        <ele>487.8</ele>
      </trkpt>
      <trkpt lat="46.69077" lon="5.60227">
        <ele>487.5</ele>
      </trkpt>
      <trkpt lat="46.6911" lon="5.60244">
        <ele>487.6</ele>
      </trkpt>
      <trkpt lat="46.69134" lon="5.60255">
        <ele>486.7</ele>
      </trkpt>
      <trkpt lat="46.69158" lon="5.60262">
        <ele>485.9</ele>
        <time>2022-07-15T13:16:14Z</time>
      </trkpt>
      <trkpt lat="46.69174" lon="5.60273">
        <ele>485.3</ele>
      </trkpt>
      <trkpt lat="46.69193" lon="5.60279">
        <ele>484.2</ele>
      </trkpt>
      <trkpt lat="46.6921" lon="5.60281">
        <ele>483.1</ele>
      </trkpt>
      <trkpt lat="46.69236" lon="5.60281">
        <ele>480.1</ele>
      </trkpt>
      <trkpt lat="46.69249" lon="5.60275">
        <ele>478.1</ele>
      </trkpt>
      <trkpt lat="46.69263" lon="5.60271">
        <ele>484.64</ele>
        <time>2022-07-15T13:20:19Z</time>
      </trkpt>
      <trkpt lat="46.69265" lon="5.60272">
        <ele>485.12</ele>
        <time>2022-07-15T13:20:20Z</time>
      </trkpt>
      <trkpt lat="46.69273" lon="5.60273">
        <ele>484.64</ele>
        <time>2022-07-15T13:20:29Z</time>
      </trkpt>
      <trkpt lat="46.69289" lon="5.60274">
        <ele>484.64</ele>
        <time>2022-07-15T13:20:46Z</time>
      </trkpt>
      <trkpt lat="46.69306" lon="5.60268">
        <ele>483.68</ele>
        <time>2022-07-15T13:21:00Z</time>
      </trkpt>
      <trkpt lat="46.69323" lon="5.60263">
        <ele>483.2</ele>
        <time>2022-07-15T13:21:17Z</time>
      </trkpt>
      <trkpt lat="46.69342" lon="5.60269">
        <ele>483.2</ele>
        <time>2022-07-15T13:21:30Z</time>
      </trkpt>
      <trkpt lat="46.6936" lon="5.60264">
        <ele>482.72</ele>
        <time>2022-07-15T13:21:45Z</time>
      </trkpt>
      <trkpt lat="46.69367" lon="5.60264">
        <ele>481.76</ele>
        <time>2022-07-15T13:21:50Z</time>
      </trkpt>
      <trkpt lat="46.69378" lon="5.6026">
        <ele>481.76</ele>
        <time>2022-07-15T13:21:59Z</time>
      </trkpt>
      <trkpt lat="46.69396" lon="5.60259">
        <ele>481.76</ele>
        <time>2022-07-15T13:22:15Z</time>
      </trkpt>
      <trkpt lat="46.69411" lon="5.60266">
        <ele>480.8</ele>
        <time>2022-07-15T13:22:32Z</time>
      </trkpt>
      <trkpt lat="46.69407" lon="5.60274">
        <ele>482.24</ele>
        <time>2022-07-15T13:22:54Z</time>
      </trkpt>
      <trkpt lat="46.69424" lon="5.60251">
        <ele>481.28</ele>
        <time>2022-07-15T13:23:24Z</time>
      </trkpt>
      <trkpt lat="46.69416" lon="5.60257">
        <ele>481.76</ele>
        <time>2022-07-15T13:23:47Z</time>
      </trkpt>
      <trkpt lat="46.6941" lon="5.60255">
        <ele>481.76</ele>
        <time>2022-07-15T13:24:13Z</time>
      </trkpt>
      <trkpt lat="46.69408" lon="5.6026">
        <ele>481.76</ele>
        <time>2022-07-15T13:24:43Z</time>
      </trkpt>
      <trkpt lat="46.69413" lon="5.60261">
        <ele>482.24</ele>
        <time>2022-07-15T13:25:03Z</time>
      </trkpt>
      <trkpt lat="46.69422" lon="5.6026">
        <ele>481.28</ele>
        <time>2022-07-15T13:25:18Z</time>
      </trkpt>
      <trkpt lat="46.69431" lon="5.6026">
        <ele>479.35</ele>
        <time>2022-07-15T13:25:25Z</time>
      </trkpt>
      <trkpt lat="46.69437" lon="5.60261">
        <ele>479.84</ele>
        <time>2022-07-15T13:25:32Z</time>
      </trkpt>
      <trkpt lat="46.69456" lon="5.6026">
        <ele>477.91</ele>
        <time>2022-07-15T13:25:47Z</time>
      </trkpt>
      <trkpt lat="46.69475" lon="5.60266">
        <ele>475.51</ele>
        <time>2022-07-15T13:26:03Z</time>
      </trkpt>
      <trkpt lat="46.69496" lon="5.60267">
        <ele>474.07</ele>
        <time>2022-07-15T13:26:17Z</time>
      </trkpt>
      <trkpt lat="46.69508" lon="5.60278">
        <ele>473.11</ele>
        <time>2022-07-15T13:26:35Z</time>
      </trkpt>
      <trkpt lat="46.69524" lon="5.60288">
        <ele>471.66</ele>
        <time>2022-07-15T13:26:48Z</time>
      </trkpt>
      <trkpt lat="46.69528" lon="5.60292">
        <ele>471.66</ele>
        <time>2022-07-15T13:26:52Z</time>
      </trkpt>
      <trkpt lat="46.69529" lon="5.60293">
        <ele>471.66</ele>
        <time>2022-07-15T13:26:53Z</time>
      </trkpt>
      <trkpt lat="46.69532" lon="5.60308">
        <ele>472.14</ele>
        <time>2022-07-15T13:27:04Z</time>
      </trkpt>
      <trkpt lat="46.69527" lon="5.60319">
        <ele>472.63</ele>
        <time>2022-07-15T13:27:13Z</time>
      </trkpt>
      <trkpt lat="46.69525" lon="5.60328">
        <ele>472.14</ele>
        <time>2022-07-15T13:27:21Z</time>
      </trkpt>
      <trkpt lat="46.69519" lon="5.60347">
        <ele>474.55</ele>
        <time>2022-07-15T13:27:37Z</time>
      </trkpt>
      <trkpt lat="46.69515" lon="5.60368">
        <ele>476.47</ele>
        <time>2022-07-15T13:27:53Z</time>
      </trkpt>
      <trkpt lat="46.6951" lon="5.60387">
        <ele>477.91</ele>
        <time>2022-07-15T13:28:08Z</time>
      </trkpt>
      <trkpt lat="46.69509" lon="5.60414">
        <ele>478.87</ele>
        <time>2022-07-15T13:28:24Z</time>
      </trkpt>
      <trkpt lat="46.69511" lon="5.60433">
        <ele>479.35</ele>
        <time>2022-07-15T13:28:34Z</time>
      </trkpt>
      <trkpt lat="46.69518" lon="5.60446">
        <ele>478.87</ele>
        <time>2022-07-15T13:28:46Z</time>
      </trkpt>
      <trkpt lat="46.69521" lon="5.60456">
        <ele>478.39</ele>
        <time>2022-07-15T13:28:55Z</time>
      </trkpt>
      <trkpt lat="46.69519" lon="5.60473">
        <ele>478.87</ele>
        <time>2022-07-15T13:29:09Z</time>
      </trkpt>
      <trkpt lat="46.69523" lon="5.605">
        <ele>479.35</ele>
        <time>2022-07-15T13:29:24Z</time>
      </trkpt>
      <trkpt lat="46.69525" lon="5.6051">
        <ele>479.84</ele>
        <time>2022-07-15T13:29:29Z</time>
      </trkpt>
      <trkpt lat="46.69526" lon="5.60528">
        <ele>480.8</ele>
        <time>2022-07-15T13:29:44Z</time>
      </trkpt>
      <trkpt lat="46.69529" lon="5.60537">
        <ele>480.8</ele>
        <time>2022-07-15T13:29:50Z</time>
      </trkpt>
      <trkpt lat="46.6953" lon="5.60555">
        <ele>482.24</ele>
        <time>2022-07-15T13:30:04Z</time>
      </trkpt>
      <trkpt lat="46.69533" lon="5.6058">
        <ele>483.2</ele>
        <time>2022-07-15T13:30:19Z</time>
      </trkpt>
      <trkpt lat="46.69537" lon="5.60604">
        <ele>485.6</ele>
        <time>2022-07-15T13:30:33Z</time>
      </trkpt>
      <trkpt lat="46.69532" lon="5.60625">
        <ele>488.01</ele>
        <time>2022-07-15T13:30:45Z</time>
      </trkpt>
      <trkpt lat="46.69527" lon="5.60633">
        <ele>488.49</ele>
        <time>2022-07-15T13:30:50Z</time>
      </trkpt>
      <trkpt lat="46.69522" lon="5.6064">
        <ele>488.97</ele>
        <time>2022-07-15T13:30:56Z</time>
      </trkpt>
      <trkpt lat="46.69521" lon="5.60642">
        <ele>488.97</ele>
        <time>2022-07-15T13:30:57Z</time>
      </trkpt>
      <trkpt lat="46.69513" lon="5.60656">
        <ele>490.41</ele>
        <time>2022-07-15T13:31:09Z</time>
      </trkpt>
      <trkpt lat="46.69512" lon="5.60657">
        <ele>489.93</ele>
        <time>2022-07-15T13:31:10Z</time>
      </trkpt>
      <trkpt lat="46.695" lon="5.60669">
        <ele>491.85</ele>
        <time>2022-07-15T13:31:23Z</time>
      </trkpt>
      <trkpt lat="46.69495" lon="5.60673">
        <ele>492.33</ele>
        <time>2022-07-15T13:31:28Z</time>
      </trkpt>
      <trkpt lat="46.69488" lon="5.60679">
        <ele>493.77</ele>
        <time>2022-07-15T13:31:35Z</time>
      </trkpt>
      <trkpt lat="46.69476" lon="5.60689">
        <ele>495.7</ele>
        <time>2022-07-15T13:31:48Z</time>
      </trkpt>
      <trkpt lat="46.69466" lon="5.60696">
        <ele>496.18</ele>
        <time>2022-07-15T13:31:57Z</time>
      </trkpt>
      <trkpt lat="46.69465" lon="5.60697">
        <ele>496.18</ele>
        <time>2022-07-15T13:31:58Z</time>
      </trkpt>
      <trkpt lat="46.69451" lon="5.60711">
        <ele>496.18</ele>
        <time>2022-07-15T13:32:12Z</time>
      </trkpt>
      <trkpt lat="46.69438" lon="5.60724">
        <ele>495.7</ele>
        <time>2022-07-15T13:32:26Z</time>
      </trkpt>
      <trkpt lat="46.69428" lon="5.60736">
        <ele>494.74</ele>
        <time>2022-07-15T13:32:40Z</time>
      </trkpt>
      <trkpt lat="46.69408" lon="5.60752">
        <ele>492.33</ele>
        <time>2022-07-15T13:32:57Z</time>
      </trkpt>
      <trkpt lat="46.69404" lon="5.60755">
        <ele>491.37</ele>
        <time>2022-07-15T13:33:00Z</time>
      </trkpt>
      <trkpt lat="46.69387" lon="5.60769">
        <ele>488.97</ele>
        <time>2022-07-15T13:33:15Z</time>
      </trkpt>
      <trkpt lat="46.6937" lon="5.60785">
        <ele>487.53</ele>
        <time>2022-07-15T13:33:30Z</time>
      </trkpt>
      <trkpt lat="46.69355" lon="5.60804">
        <ele>487.05</ele>
        <time>2022-07-15T13:33:45Z</time>
      </trkpt>
      <trkpt lat="46.69342" lon="5.60815">
        <ele>486.56</ele>
        <time>2022-07-15T13:33:57Z</time>
      </trkpt>
      <trkpt lat="46.69339" lon="5.60822">
        <ele>487.05</ele>
        <time>2022-07-15T13:34:04Z</time>
      </trkpt>
      <trkpt lat="46.69338" lon="5.60824">
        <ele>486.56</ele>
        <time>2022-07-15T13:34:05Z</time>
      </trkpt>
      <trkpt lat="46.69338" lon="5.60825">
        <ele>487.05</ele>
        <time>2022-07-15T13:34:06Z</time>
      </trkpt>
      <trkpt lat="46.69333" lon="5.60831">
        <ele>487.53</ele>
        <time>2022-07-15T13:34:12Z</time>
      </trkpt>
      <trkpt lat="46.69329" lon="5.60836">
        <ele>487.05</ele>
        <time>2022-07-15T13:34:15Z</time>
      </trkpt>
      <trkpt lat="46.69325" lon="5.6084">
        <ele>487.53</ele>
        <time>2022-07-15T13:34:19Z</time>
      </trkpt>
      <trkpt lat="46.69326" lon="5.60844">
        <ele>488.49</ele>
        <time>2022-07-15T13:34:25Z</time>
      </trkpt>
      <trkpt lat="46.69327" lon="5.60846">
        <ele>488.97</ele>
        <time>2022-07-15T13:34:26Z</time>
      </trkpt>
      <trkpt lat="46.69328" lon="5.60847">
        <ele>488.49</ele>
        <time>2022-07-15T13:34:27Z</time>
      </trkpt>
      <trkpt lat="46.69341" lon="5.60849">
        <ele>489.45</ele>
        <time>2022-07-15T13:34:39Z</time>
      </trkpt>
      <trkpt lat="46.69343" lon="5.60849">
        <ele>489.93</ele>
        <time>2022-07-15T13:34:42Z</time>
      </trkpt>
      <trkpt lat="46.69358" lon="5.60852">
        <ele>491.37</ele>
        <time>2022-07-15T13:34:58Z</time>
      </trkpt>
      <trkpt lat="46.69374" lon="5.60857">
        <ele>492.33</ele>
        <time>2022-07-15T13:35:16Z</time>
      </trkpt>
      <trkpt lat="46.69397" lon="5.60869">
        <ele>494.26</ele>
        <time>2022-07-15T13:35:36Z</time>
      </trkpt>
      <trkpt lat="46.6942" lon="5.60894">
        <ele>495.22</ele>
        <time>2022-07-15T13:35:51Z</time>
      </trkpt>
      <trkpt lat="46.69429" lon="5.60906">
        <ele>496.18</ele>
        <time>2022-07-15T13:36:05Z</time>
      </trkpt>
      <trkpt lat="46.6943" lon="5.60911">
        <ele>496.66</ele>
        <time>2022-07-15T13:36:08Z</time>
      </trkpt>
      <trkpt lat="46.69437" lon="5.60926">
        <ele>498.1</ele>
        <time>2022-07-15T13:36:20Z</time>
      </trkpt>
      <trkpt lat="46.69451" lon="5.60933">
        <ele>499.06</ele>
        <time>2022-07-15T13:36:33Z</time>
      </trkpt>
      <trkpt lat="46.69454" lon="5.60933">
        <ele>499.06</ele>
        <time>2022-07-15T13:36:53Z</time>
      </trkpt>
      <trkpt lat="46.69459" lon="5.60936">
        <ele>499.06</ele>
        <time>2022-07-15T13:37:13Z</time>
      </trkpt>
      <trkpt lat="46.69461" lon="5.60932">
        <ele>499.06</ele>
        <time>2022-07-15T13:37:36Z</time>
      </trkpt>
      <trkpt lat="46.69466" lon="5.60933">
        <ele>498.58</ele>
        <time>2022-07-15T13:37:39Z</time>
      </trkpt>
      <trkpt lat="46.69474" lon="5.60943">
        <ele>496.66</ele>
        <time>2022-07-15T13:37:48Z</time>
      </trkpt>
      <trkpt lat="46.69485" lon="5.60953">
        <ele>495.22</ele>
        <time>2022-07-15T13:38:02Z</time>
      </trkpt>
      <trkpt lat="46.69498" lon="5.60959">
        <ele>494.74</ele>
        <time>2022-07-15T13:38:18Z</time>
      </trkpt>
      <trkpt lat="46.69512" lon="5.60963">
        <ele>493.77</ele>
        <time>2022-07-15T13:38:29Z</time>
      </trkpt>
      <trkpt lat="46.69538" lon="5.60964">
        <ele>493.77</ele>
        <time>2022-07-15T13:38:46Z</time>
      </trkpt>
      <trkpt lat="46.69555" lon="5.60966">
        <ele>493.29</ele>
        <time>2022-07-15T13:39:03Z</time>
      </trkpt>
      <trkpt lat="46.69573" lon="5.60969">
        <ele>493.29</ele>
        <time>2022-07-15T13:39:23Z</time>
      </trkpt>
      <trkpt lat="46.69585" lon="5.60952">
        <ele>492.81</ele>
        <time>2022-07-15T13:39:40Z</time>
      </trkpt>
      <trkpt lat="46.69594" lon="5.60939">
        <ele>492.81</ele>
        <time>2022-07-15T13:39:49Z</time>
      </trkpt>
      <trkpt lat="46.69606" lon="5.60935">
        <ele>493.77</ele>
        <time>2022-07-15T13:40:07Z</time>
      </trkpt>
      <trkpt lat="46.69608" lon="5.60934">
        <ele>494.26</ele>
        <time>2022-07-15T13:40:09Z</time>
      </trkpt>
      <trkpt lat="46.69631" lon="5.60938">
        <ele>494.74</ele>
        <time>2022-07-15T13:40:27Z</time>
      </trkpt>
      <trkpt lat="46.69647" lon="5.60944">
        <ele>493.29</ele>
        <time>2022-07-15T13:40:44Z</time>
      </trkpt>
      <trkpt lat="46.69669" lon="5.60955">
        <ele>492.33</ele>
        <time>2022-07-15T13:41:00Z</time>
      </trkpt>
      <trkpt lat="46.69693" lon="5.60967">
        <ele>491.37</ele>
        <time>2022-07-15T13:41:16Z</time>
      </trkpt>
      <trkpt lat="46.69701" lon="5.60981">
        <ele>492.33</ele>
        <time>2022-07-15T13:41:31Z</time>
      </trkpt>
      <trkpt lat="46.69701" lon="5.61004">
        <ele>493.29</ele>
        <time>2022-07-15T13:41:47Z</time>
      </trkpt>
      <trkpt lat="46.6969" lon="5.61028">
        <ele>491.85</ele>
        <time>2022-07-15T13:42:03Z</time>
      </trkpt>
      <trkpt lat="46.69685" lon="5.61042">
        <ele>492.33</ele>
        <time>2022-07-15T13:42:15Z</time>
      </trkpt>
      <trkpt lat="46.69676" lon="5.61068">
        <ele>493.29</ele>
        <time>2022-07-15T13:42:27Z</time>
      </trkpt>
      <trkpt lat="46.69669" lon="5.61089">
        <ele>494.74</ele>
        <time>2022-07-15T13:42:44Z</time>
      </trkpt>
      <trkpt lat="46.69666" lon="5.61092">
        <ele>494.74</ele>
        <time>2022-07-15T13:42:48Z</time>
      </trkpt>
      <trkpt lat="46.69654" lon="5.61108">
        <ele>494.74</ele>
        <time>2022-07-15T13:43:02Z</time>
      </trkpt>
      <trkpt lat="46.69661" lon="5.61128">
        <ele>495.22</ele>
        <time>2022-07-15T13:43:16Z</time>
      </trkpt>
      <trkpt lat="46.69671" lon="5.61137">
        <ele>494.26</ele>
        <time>2022-07-15T13:43:30Z</time>
      </trkpt>
      <trkpt lat="46.69678" lon="5.61138">
        <ele>494.74</ele>
        <time>2022-07-15T13:43:38Z</time>
      </trkpt>
      <trkpt lat="46.69694" lon="5.61146">
        <ele>495.22</ele>
        <time>2022-07-15T13:43:53Z</time>
      </trkpt>
      <trkpt lat="46.69708" lon="5.61152">
        <ele>494.74</ele>
        <time>2022-07-15T13:44:07Z</time>
      </trkpt>
      <trkpt lat="46.6972" lon="5.61155">
        <ele>495.7</ele>
        <time>2022-07-15T13:44:20Z</time>
      </trkpt>
      <trkpt lat="46.69743" lon="5.61157">
        <ele>496.66</ele>
        <time>2022-07-15T13:44:39Z</time>
      </trkpt>
      <trkpt lat="46.69768" lon="5.61161">
        <ele>497.14</ele>
        <time>2022-07-15T13:44:56Z</time>
      </trkpt>
      <trkpt lat="46.69786" lon="5.61176">
        <ele>497.14</ele>
        <time>2022-07-15T13:45:14Z</time>
      </trkpt>
      <trkpt lat="46.69808" lon="5.61182">
        <ele>497.62</ele>
        <time>2022-07-15T13:45:31Z</time>
      </trkpt>
      <trkpt lat="46.6982" lon="5.6119">
        <ele>497.62</ele>
        <time>2022-07-15T13:45:43Z</time>
      </trkpt>
      <trkpt lat="46.69835" lon="5.61194">
        <ele>498.1</ele>
        <time>2022-07-15T13:45:53Z</time>
      </trkpt>
      <trkpt lat="46.69853" lon="5.61192">
        <ele>498.58</ele>
        <time>2022-07-15T13:46:06Z</time>
      </trkpt>
      <trkpt lat="46.69865" lon="5.61196">
        <ele>499.06</ele>
        <time>2022-07-15T13:46:20Z</time>
      </trkpt>
      <trkpt lat="46.69882" lon="5.61195">
        <ele>499.54</ele>
        <time>2022-07-15T13:46:36Z</time>
      </trkpt>
      <trkpt lat="46.69897" lon="5.61203">
        <ele>500.5</ele>
        <time>2022-07-15T13:46:50Z</time>
      </trkpt>
      <trkpt lat="46.69912" lon="5.61208">
        <ele>499.54</ele>
        <time>2022-07-15T13:47:03Z</time>
      </trkpt>
      <trkpt lat="46.69927" lon="5.61213">
        <ele>499.54</ele>
        <time>2022-07-15T13:47:18Z</time>
      </trkpt>
      <trkpt lat="46.69944" lon="5.61217">
        <ele>500.02</ele>
        <time>2022-07-15T13:47:33Z</time>
      </trkpt>
      <trkpt lat="46.69963" lon="5.61227">
        <ele>499.54</ele>
        <time>2022-07-15T13:47:47Z</time>
      </trkpt>
      <trkpt lat="46.69982" lon="5.61237">
        <ele>500.5</ele>
        <time>2022-07-15T13:48:02Z</time>
      </trkpt>
      <trkpt lat="46.69989" lon="5.61237">
        <ele>500.98</ele>
        <time>2022-07-15T13:48:07Z</time>
      </trkpt>
      <trkpt lat="46.69992" lon="5.61238">
        <ele>500.5</ele>
        <time>2022-07-15T13:48:08Z</time>
      </trkpt>
      <trkpt lat="46.69994" lon="5.61238">
        <ele>500.5</ele>
        <time>2022-07-15T13:48:09Z</time>
      </trkpt>
      <trkpt lat="46.70011" lon="5.61243">
        <ele>500.98</ele>
        <time>2022-07-15T13:48:24Z</time>
      </trkpt>
      <trkpt lat="46.70026" lon="5.61241">
        <ele>501.95</ele>
        <time>2022-07-15T13:48:39Z</time>
      </trkpt>
      <trkpt lat="46.70035" lon="5.61243">
        <ele>501.95</ele>
        <time>2022-07-15T13:48:48Z</time>
      </trkpt>
      <trkpt lat="46.70037" lon="5.61244">
        <ele>501.95</ele>
        <time>2022-07-15T13:48:49Z</time>
      </trkpt>
      <trkpt lat="46.70039" lon="5.61244">
        <ele>501.95</ele>
        <time>2022-07-15T13:48:50Z</time>
      </trkpt>
      <trkpt lat="46.7004" lon="5.61244">
        <ele>501.95</ele>
        <time>2022-07-15T13:48:51Z</time>
      </trkpt>
      <trkpt lat="46.70042" lon="5.61245">
        <ele>501.95</ele>
        <time>2022-07-15T13:48:52Z</time>
      </trkpt>
      <trkpt lat="46.70043" lon="5.61246">
        <ele>501.95</ele>
        <time>2022-07-15T13:48:53Z</time>
      </trkpt>
      <trkpt lat="46.70069" lon="5.61265">
        <ele>502.43</ele>
        <time>2022-07-15T13:49:08Z</time>
      </trkpt>
      <trkpt lat="46.70077" lon="5.61268">
        <ele>502.91</ele>
        <time>2022-07-15T13:49:16Z</time>
      </trkpt>
      <trkpt lat="46.70096" lon="5.61275">
        <ele>502.91</ele>
        <time>2022-07-15T13:49:32Z</time>
      </trkpt>
      <trkpt lat="46.70097" lon="5.61275">
        <ele>502.43</ele>
        <time>2022-07-15T13:49:33Z</time>
      </trkpt>
      <trkpt lat="46.70101" lon="5.61277">
        <ele>502.43</ele>
        <time>2022-07-15T13:49:36Z</time>
      </trkpt>
      <trkpt lat="46.70103" lon="5.61277">
        <ele>502.91</ele>
        <time>2022-07-15T13:49:37Z</time>
      </trkpt>
      <trkpt lat="46.70128" lon="5.6128">
        <ele>503.39</ele>
        <time>2022-07-15T13:49:53Z</time>
      </trkpt>
      <trkpt lat="46.70141" lon="5.61288">
        <ele>502.43</ele>
        <time>2022-07-15T13:50:08Z</time>
      </trkpt>
      <trkpt lat="46.70142" lon="5.61286">
        <ele>502.91</ele>
        <time>2022-07-15T13:50:42Z</time>
      </trkpt>
      <trkpt lat="46.70148" lon="5.61283">
        <ele>503.39</ele>
        <time>2022-07-15T13:51:09Z</time>
      </trkpt>
      <trkpt lat="46.70151" lon="5.61283">
        <ele>502.91</ele>
        <time>2022-07-15T13:51:13Z</time>
      </trkpt>
      <trkpt lat="46.70158" lon="5.61286">
        <ele>502.91</ele>
        <time>2022-07-15T13:51:23Z</time>
      </trkpt>
      <trkpt lat="46.70166" lon="5.61287">
        <ele>502.43</ele>
        <time>2022-07-15T13:51:33Z</time>
      </trkpt>
      <trkpt lat="46.70176" lon="5.61294">
        <ele>502.91</ele>
        <time>2022-07-15T13:51:50Z</time>
      </trkpt>
      <trkpt lat="46.70182" lon="5.61298">
        <ele>503.39</ele>
        <time>2022-07-15T13:52:09Z</time>
      </trkpt>
      <trkpt lat="46.70191" lon="5.61303">
        <ele>503.39</ele>
        <time>2022-07-15T13:52:26Z</time>
      </trkpt>
      <trkpt lat="46.70189" lon="5.61305">
        <ele>502.91</ele>
        <time>2022-07-15T13:52:29Z</time>
      </trkpt>
      <trkpt lat="46.70189" lon="5.61306">
        <ele>502.91</ele>
        <time>2022-07-15T13:52:30Z</time>
      </trkpt>
      <trkpt lat="46.7018" lon="5.61322">
        <ele>501.95</ele>
        <time>2022-07-15T13:52:42Z</time>
      </trkpt>
      <trkpt lat="46.70179" lon="5.61339">
        <ele>501.95</ele>
        <time>2022-07-15T13:52:52Z</time>
      </trkpt>
      <trkpt lat="46.70181" lon="5.61336">
        <ele>502.43</ele>
        <time>2022-07-15T13:53:02Z</time>
      </trkpt>
      <trkpt lat="46.70182" lon="5.61339">
        <ele>500.98</ele>
        <time>2022-07-15T13:53:06Z</time>
      </trkpt>
      <trkpt lat="46.70182" lon="5.61341">
        <ele>501.46</ele>
        <time>2022-07-15T13:53:07Z</time>
      </trkpt>
      <trkpt lat="46.70181" lon="5.61344">
        <ele>501.95</ele>
        <time>2022-07-15T13:53:12Z</time>
      </trkpt>
      <trkpt lat="46.7018" lon="5.61346">
        <ele>501.46</ele>
        <time>2022-07-15T13:53:13Z</time>
      </trkpt>
      <trkpt lat="46.7018" lon="5.61348">
        <ele>501.46</ele>
        <time>2022-07-15T13:53:14Z</time>
      </trkpt>
      <trkpt lat="46.70179" lon="5.6135">
        <ele>501.46</ele>
        <time>2022-07-15T13:53:15Z</time>
      </trkpt>
      <trkpt lat="46.70179" lon="5.61352">
        <ele>501.46</ele>
        <time>2022-07-15T13:53:16Z</time>
      </trkpt>
      <trkpt lat="46.70173" lon="5.61368">
        <ele>500.98</ele>
        <time>2022-07-15T13:53:27Z</time>
      </trkpt>
      <trkpt lat="46.70169" lon="5.61389">
        <ele>500.5</ele>
        <time>2022-07-15T13:53:41Z</time>
      </trkpt>
      <trkpt lat="46.70173" lon="5.61398">
        <ele>501.46</ele>
        <time>2022-07-15T13:54:00Z</time>
      </trkpt>
      <trkpt lat="46.70175" lon="5.61404">
        <ele>501.46</ele>
        <time>2022-07-15T13:54:05Z</time>
      </trkpt>
      <trkpt lat="46.70174" lon="5.61406">
        <ele>500.98</ele>
        <time>2022-07-15T13:54:06Z</time>
      </trkpt>
      <trkpt lat="46.70173" lon="5.61408">
        <ele>500.98</ele>
        <time>2022-07-15T13:54:07Z</time>
      </trkpt>
      <trkpt lat="46.70171" lon="5.61429">
        <ele>500.98</ele>
        <time>2022-07-15T13:54:19Z</time>
      </trkpt>
      <trkpt lat="46.70178" lon="5.61441">
        <ele>502.43</ele>
        <time>2022-07-15T13:54:30Z</time>
      </trkpt>
      <trkpt lat="46.70179" lon="5.61442">
        <ele>501.95</ele>
        <time>2022-07-15T13:54:31Z</time>
      </trkpt>
      <trkpt lat="46.70197" lon="5.61445">
        <ele>502.43</ele>
        <time>2022-07-15T13:54:45Z</time>
      </trkpt>
      <trkpt lat="46.70214" lon="5.61452">
        <ele>502.43</ele>
        <time>2022-07-15T13:55:00Z</time>
      </trkpt>
      <trkpt lat="46.7022" lon="5.61458">
        <ele>502.43</ele>
        <time>2022-07-15T13:55:15Z</time>
      </trkpt>
      <trkpt lat="46.70228" lon="5.61459">
        <ele>503.39</ele>
        <time>2022-07-15T13:55:27Z</time>
      </trkpt>
      <trkpt lat="46.7024" lon="5.61457">
        <ele>503.39</ele>
        <time>2022-07-15T13:55:37Z</time>
      </trkpt>
      <trkpt lat="46.70241" lon="5.61457">
        <ele>503.39</ele>
        <time>2022-07-15T13:55:38Z</time>
      </trkpt>
      <trkpt lat="46.70243" lon="5.61457">
        <ele>503.39</ele>
        <time>2022-07-15T13:55:39Z</time>
      </trkpt>
      <trkpt lat="46.70244" lon="5.61456">
        <ele>503.87</ele>
        <time>2022-07-15T13:55:40Z</time>
      </trkpt>
      <trkpt lat="46.70244" lon="5.61453">
        <ele>503.87</ele>
        <time>2022-07-15T13:55:54Z</time>
      </trkpt>
      <trkpt lat="46.70252" lon="5.6145">
        <ele>503.39</ele>
        <time>2022-07-15T13:56:05Z</time>
      </trkpt>
      <trkpt lat="46.70254" lon="5.6145">
        <ele>504.35</ele>
        <time>2022-07-15T13:56:06Z</time>
      </trkpt>
      <trkpt lat="46.7028" lon="5.6145">
        <ele>505.31</ele>
        <time>2022-07-15T13:56:23Z</time>
      </trkpt>
      <trkpt lat="46.70301" lon="5.61458">
        <ele>506.27</ele>
        <time>2022-07-15T13:56:36Z</time>
      </trkpt>
      <trkpt lat="46.70305" lon="5.61461">
        <ele>506.27</ele>
        <time>2022-07-15T13:56:42Z</time>
      </trkpt>
      <trkpt lat="46.70314" lon="5.6147">
        <ele>507.71</ele>
        <time>2022-07-15T13:56:49Z</time>
      </trkpt>
      <trkpt lat="46.70315" lon="5.6147">
        <ele>507.23</ele>
        <time>2022-07-15T13:56:50Z</time>
      </trkpt>
      <trkpt lat="46.70317" lon="5.61473">
        <ele>507.71</ele>
        <time>2022-07-15T13:56:52Z</time>
      </trkpt>
      <trkpt lat="46.70325" lon="5.61491">
        <ele>507.71</ele>
        <time>2022-07-15T13:57:04Z</time>
      </trkpt>
      <trkpt lat="46.70333" lon="5.61508">
        <ele>508.19</ele>
        <time>2022-07-15T13:57:17Z</time>
      </trkpt>
      <trkpt lat="46.70342" lon="5.61523">
        <ele>509.64</ele>
        <time>2022-07-15T13:57:29Z</time>
      </trkpt>
      <trkpt lat="46.70345" lon="5.61528">
        <ele>510.12</ele>
        <time>2022-07-15T13:57:34Z</time>
      </trkpt>
      <trkpt lat="46.70346" lon="5.6153">
        <ele>510.12</ele>
        <time>2022-07-15T13:57:35Z</time>
      </trkpt>
      <trkpt lat="46.70347" lon="5.61532">
        <ele>510.12</ele>
        <time>2022-07-15T13:57:36Z</time>
      </trkpt>
      <trkpt lat="46.70348" lon="5.61534">
        <ele>509.64</ele>
        <time>2022-07-15T13:57:37Z</time>
      </trkpt>
      <trkpt lat="46.70349" lon="5.61535">
        <ele>510.12</ele>
        <time>2022-07-15T13:57:38Z</time>
      </trkpt>
      <trkpt lat="46.70358" lon="5.61551">
        <ele>510.6</ele>
        <time>2022-07-15T13:57:49Z</time>
      </trkpt>
      <trkpt lat="46.7037" lon="5.61567">
        <ele>511.56</ele>
        <time>2022-07-15T13:58:01Z</time>
      </trkpt>
      <trkpt lat="46.70379" lon="5.61577">
        <ele>511.56</ele>
        <time>2022-07-15T13:58:13Z</time>
      </trkpt>
      <trkpt lat="46.70392" lon="5.6159">
        <ele>512.52</ele>
        <time>2022-07-15T13:58:25Z</time>
      </trkpt>
      <trkpt lat="46.704" lon="5.61596">
        <ele>512.52</ele>
        <time>2022-07-15T13:58:32Z</time>
      </trkpt>
      <trkpt lat="46.70408" lon="5.616">
        <ele>513</ele>
        <time>2022-07-15T13:58:39Z</time>
      </trkpt>
      <trkpt lat="46.70431" lon="5.61623">
        <ele>512.04</ele>
        <time>2022-07-15T13:58:55Z</time>
      </trkpt>
      <trkpt lat="46.70445" lon="5.61632">
        <ele>511.08</ele>
        <time>2022-07-15T13:59:11Z</time>
      </trkpt>
      <trkpt lat="46.70466" lon="5.61639">
        <ele>510.6</ele>
        <time>2022-07-15T13:59:28Z</time>
      </trkpt>
      <trkpt lat="46.7049" lon="5.61647">
        <ele>510.6</ele>
        <time>2022-07-15T13:59:40Z</time>
      </trkpt>
      <trkpt lat="46.70513" lon="5.61654">
        <ele>510.6</ele>
        <time>2022-07-15T13:59:56Z</time>
      </trkpt>
      <trkpt lat="46.7053" lon="5.6166">
        <ele>512.04</ele>
        <time>2022-07-15T14:00:14Z</time>
      </trkpt>
      <trkpt lat="46.70544" lon="5.61663">
        <ele>512.52</ele>
        <time>2022-07-15T14:00:28Z</time>
      </trkpt>
      <trkpt lat="46.70546" lon="5.61663">
        <ele>513</ele>
        <time>2022-07-15T14:00:29Z</time>
      </trkpt>
      <trkpt lat="46.70578" lon="5.61674">
        <ele>514.44</ele>
        <time>2022-07-15T14:00:46Z</time>
      </trkpt>
      <trkpt lat="46.70593" lon="5.61676">
        <ele>514.92</ele>
        <time>2022-07-15T14:00:59Z</time>
      </trkpt>
      <trkpt lat="46.706" lon="5.61679">
        <ele>514.92</ele>
        <time>2022-07-15T14:01:07Z</time>
      </trkpt>
      <trkpt lat="46.70601" lon="5.6168">
        <ele>515.4</ele>
        <time>2022-07-15T14:01:08Z</time>
      </trkpt>
      <trkpt lat="46.70624" lon="5.61696">
        <ele>515.88</ele>
        <time>2022-07-15T14:01:24Z</time>
      </trkpt>
      <trkpt lat="46.70636" lon="5.61709">
        <ele>516.85</ele>
        <time>2022-07-15T14:01:36Z</time>
      </trkpt>
      <trkpt lat="46.70646" lon="5.61738">
        <ele>517.81</ele>
        <time>2022-07-15T14:01:52Z</time>
      </trkpt>
      <trkpt lat="46.70648" lon="5.61744">
        <ele>519.25</ele>
        <time>2022-07-15T14:01:57Z</time>
      </trkpt>
      <trkpt lat="46.70661" lon="5.61775">
        <ele>518.77</ele>
        <time>2022-07-15T14:02:12Z</time>
      </trkpt>
      <trkpt lat="46.70668" lon="5.61795">
        <ele>516.85</ele>
        <time>2022-07-15T14:02:27Z</time>
      </trkpt>
      <trkpt lat="46.70672" lon="5.61833">
        <ele>515.4</ele>
        <time>2022-07-15T14:02:43Z</time>
      </trkpt>
      <trkpt lat="46.70673" lon="5.61852">
        <ele>514.92</ele>
        <time>2022-07-15T14:02:56Z</time>
      </trkpt>
      <trkpt lat="46.70674" lon="5.61872">
        <ele>514.92</ele>
        <time>2022-07-15T14:03:08Z</time>
      </trkpt>
      <trkpt lat="46.70675" lon="5.61874">
        <ele>513.96</ele>
        <time>2022-07-15T14:03:09Z</time>
      </trkpt>
      <trkpt lat="46.70683" lon="5.61901">
        <ele>513.48</ele>
        <time>2022-07-15T14:03:20Z</time>
      </trkpt>
      <trkpt lat="46.70691" lon="5.61911">
        <ele>513</ele>
        <time>2022-07-15T14:03:32Z</time>
      </trkpt>
      <trkpt lat="46.70692" lon="5.61913">
        <ele>513</ele>
        <time>2022-07-15T14:03:33Z</time>
      </trkpt>
      <trkpt lat="46.70694" lon="5.61915">
        <ele>513.48</ele>
        <time>2022-07-15T14:03:34Z</time>
      </trkpt>
      <trkpt lat="46.70696" lon="5.61917">
        <ele>513.48</ele>
        <time>2022-07-15T14:03:35Z</time>
      </trkpt>
      <trkpt lat="46.70697" lon="5.61919">
        <ele>513</ele>
        <time>2022-07-15T14:03:36Z</time>
      </trkpt>
      <trkpt lat="46.70699" lon="5.61921">
        <ele>513</ele>
        <time>2022-07-15T14:03:37Z</time>
      </trkpt>
      <trkpt lat="46.70714" lon="5.61936">
        <ele>513.48</ele>
        <time>2022-07-15T14:03:50Z</time>
      </trkpt>
      <trkpt lat="46.70726" lon="5.61949">
        <ele>513</ele>
        <time>2022-07-15T14:04:02Z</time>
      </trkpt>
      <trkpt lat="46.70727" lon="5.6195">
        <ele>513.48</ele>
        <time>2022-07-15T14:04:03Z</time>
      </trkpt>
      <trkpt lat="46.70743" lon="5.61967">
        <ele>512.52</ele>
        <time>2022-07-15T14:04:18Z</time>
      </trkpt>
      <trkpt lat="46.70744" lon="5.61968">
        <ele>514.44</ele>
        <time>2022-07-15T14:04:20Z</time>
      </trkpt>
      <trkpt lat="46.70745" lon="5.61969">
        <ele>513.96</ele>
        <time>2022-07-15T14:04:21Z</time>
      </trkpt>
      <trkpt lat="46.70746" lon="5.61971">
        <ele>513.96</ele>
        <time>2022-07-15T14:04:22Z</time>
      </trkpt>
      <trkpt lat="46.70747" lon="5.61973">
        <ele>513.48</ele>
        <time>2022-07-15T14:04:23Z</time>
      </trkpt>
      <trkpt lat="46.70748" lon="5.61974">
        <ele>512.52</ele>
        <time>2022-07-15T14:04:24Z</time>
      </trkpt>
      <trkpt lat="46.70754" lon="5.61981">
        <ele>513.48</ele>
        <time>2022-07-15T14:04:35Z</time>
      </trkpt>
      <trkpt lat="46.70758" lon="5.61986">
        <ele>514.44</ele>
        <time>2022-07-15T14:04:51Z</time>
      </trkpt>
      <trkpt lat="46.70768" lon="5.62008">
        <ele>514.44</ele>
        <time>2022-07-15T14:05:06Z</time>
      </trkpt>
      <trkpt lat="46.70776" lon="5.62025">
        <ele>514.92</ele>
        <time>2022-07-15T14:05:19Z</time>
      </trkpt>
      <trkpt lat="46.70786" lon="5.62044">
        <ele>514.92</ele>
        <time>2022-07-15T14:05:33Z</time>
      </trkpt>
      <trkpt lat="46.70796" lon="5.62062">
        <ele>514.92</ele>
        <time>2022-07-15T14:05:46Z</time>
      </trkpt>
      <trkpt lat="46.70807" lon="5.62075">
        <ele>515.88</ele>
        <time>2022-07-15T14:05:59Z</time>
      </trkpt>
      <trkpt lat="46.70812" lon="5.62077">
        <ele>515.88</ele>
        <time>2022-07-15T14:06:04Z</time>
      </trkpt>
      <trkpt lat="46.70813" lon="5.62082">
        <ele>516.37</ele>
        <time>2022-07-15T14:06:18Z</time>
      </trkpt>
      <trkpt lat="46.70819" lon="5.62084">
        <ele>515.88</ele>
        <time>2022-07-15T14:06:35Z</time>
      </trkpt>
      <trkpt lat="46.70826" lon="5.62087">
        <ele>515.88</ele>
        <time>2022-07-15T14:06:49Z</time>
      </trkpt>
      <trkpt lat="46.70827" lon="5.62088">
        <ele>515.88</ele>
        <time>2022-07-15T14:06:50Z</time>
      </trkpt>
      <trkpt lat="46.70829" lon="5.62089">
        <ele>515.88</ele>
        <time>2022-07-15T14:06:51Z</time>
      </trkpt>
      <trkpt lat="46.70839" lon="5.62089">
        <ele>517.81</ele>
        <time>2022-07-15T14:07:01Z</time>
      </trkpt>
      <trkpt lat="46.70837" lon="5.62089">
        <ele>517.33</ele>
        <time>2022-07-15T14:07:11Z</time>
      </trkpt>
      <trkpt lat="46.70836" lon="5.62089">
        <ele>516.85</ele>
        <time>2022-07-15T14:07:12Z</time>
      </trkpt>
      <trkpt lat="46.70835" lon="5.6209">
        <ele>516.85</ele>
        <time>2022-07-15T14:07:13Z</time>
      </trkpt>
      <trkpt lat="46.70834" lon="5.62091">
        <ele>517.81</ele>
        <time>2022-07-15T14:07:14Z</time>
      </trkpt>
      <trkpt lat="46.70832" lon="5.62092">
        <ele>517.81</ele>
        <time>2022-07-15T14:07:15Z</time>
      </trkpt>
      <trkpt lat="46.70833" lon="5.62098">
        <ele>518.29</ele>
        <time>2022-07-15T14:07:25Z</time>
      </trkpt>
      <trkpt lat="46.70843" lon="5.62105">
        <ele>519.73</ele>
        <time>2022-07-15T14:07:41Z</time>
      </trkpt>
      <trkpt lat="46.70854" lon="5.62106">
        <ele>521.17</ele>
        <time>2022-07-15T14:07:55Z</time>
      </trkpt>
      <trkpt lat="46.7087" lon="5.62109">
        <ele>522.61</ele>
        <time>2022-07-15T14:08:13Z</time>
      </trkpt>
      <trkpt lat="46.70885" lon="5.62113">
        <ele>521.65</ele>
        <time>2022-07-15T14:08:29Z</time>
      </trkpt>
      <trkpt lat="46.70886" lon="5.62113">
        <ele>522.13</ele>
        <time>2022-07-15T14:08:30Z</time>
      </trkpt>
      <trkpt lat="46.70891" lon="5.62118">
        <ele>523.09</ele>
        <time>2022-07-15T14:08:36Z</time>
      </trkpt>
      <trkpt lat="46.70907" lon="5.62131">
        <ele>523.58</ele>
        <time>2022-07-15T14:08:50Z</time>
      </trkpt>
      <trkpt lat="46.7092" lon="5.6214">
        <ele>524.06</ele>
        <time>2022-07-15T14:09:11Z</time>
      </trkpt>
      <trkpt lat="46.70934" lon="5.62144">
        <ele>524.54</ele>
        <time>2022-07-15T14:09:30Z</time>
      </trkpt>
      <trkpt lat="46.70949" lon="5.62143">
        <ele>525.5</ele>
        <time>2022-07-15T14:09:47Z</time>
      </trkpt>
      <trkpt lat="46.70964" lon="5.6215">
        <ele>526.46</ele>
        <time>2022-07-15T14:10:05Z</time>
      </trkpt>
      <trkpt lat="46.7098" lon="5.62148">
        <ele>527.42</ele>
        <time>2022-07-15T14:10:22Z</time>
      </trkpt>
      <trkpt lat="46.70997" lon="5.62149">
        <ele>526.94</ele>
        <time>2022-07-15T14:10:39Z</time>
      </trkpt>
      <trkpt lat="46.71015" lon="5.6215">
        <ele>527.9</ele>
        <time>2022-07-15T14:10:55Z</time>
      </trkpt>
      <trkpt lat="46.71031" lon="5.62151">
        <ele>528.38</ele>
        <time>2022-07-15T14:11:11Z</time>
      </trkpt>
      <trkpt lat="46.7105" lon="5.62155">
        <ele>528.38</ele>
        <time>2022-07-15T14:11:27Z</time>
      </trkpt>
      <trkpt lat="46.71073" lon="5.62154">
        <ele>528.86</ele>
        <time>2022-07-15T14:11:45Z</time>
      </trkpt>
      <trkpt lat="46.71087" lon="5.62153">
        <ele>527.42</ele>
        <time>2022-07-15T14:12:00Z</time>
      </trkpt>
      <trkpt lat="46.71101" lon="5.62151">
        <ele>526.46</ele>
        <time>2022-07-15T14:12:17Z</time>
      </trkpt>
      <trkpt lat="46.71103" lon="5.62145">
        <ele>525.5</ele>
        <time>2022-07-15T14:12:41Z</time>
      </trkpt>
      <trkpt lat="46.71112" lon="5.62145">
        <ele>525.5</ele>
        <time>2022-07-15T14:13:06Z</time>
      </trkpt>
      <trkpt lat="46.71128" lon="5.62156">
        <ele>525.5</ele>
        <time>2022-07-15T14:13:20Z</time>
      </trkpt>
      <trkpt lat="46.71145" lon="5.62163">
        <ele>525.5</ele>
        <time>2022-07-15T14:13:33Z</time>
      </trkpt>
      <trkpt lat="46.71161" lon="5.62165">
        <ele>523.09</ele>
        <time>2022-07-15T14:13:50Z</time>
      </trkpt>
      <trkpt lat="46.71174" lon="5.62166">
        <ele>521.65</ele>
        <time>2022-07-15T14:14:06Z</time>
      </trkpt>
      <trkpt lat="46.71187" lon="5.62159">
        <ele>519.25</ele>
        <time>2022-07-15T14:14:21Z</time>
      </trkpt>
      <trkpt lat="46.71203" lon="5.62159">
        <ele>519.25</ele>
        <time>2022-07-15T14:14:31Z</time>
      </trkpt>
      <trkpt lat="46.71218" lon="5.62151">
        <ele>516.85</ele>
        <time>2022-07-15T14:14:48Z</time>
      </trkpt>
      <trkpt lat="46.71235" lon="5.62146">
        <ele>515.4</ele>
        <time>2022-07-15T14:15:11Z</time>
      </trkpt>
      <trkpt lat="46.71248" lon="5.62141">
        <ele>514.44</ele>
        <time>2022-07-15T14:15:34Z</time>
      </trkpt>
      <trkpt lat="46.71256" lon="5.62131">
        <ele>511.56</ele>
        <time>2022-07-15T14:15:50Z</time>
      </trkpt>
      <trkpt lat="46.71268" lon="5.62128">
        <ele>510.12</ele>
        <time>2022-07-15T14:16:07Z</time>
      </trkpt>
      <trkpt lat="46.71272" lon="5.62143">
        <ele>510.6</ele>
        <time>2022-07-15T14:16:25Z</time>
      </trkpt>
      <trkpt lat="46.71272" lon="5.62141">
        <ele>511.08</ele>
        <time>2022-07-15T14:16:30Z</time>
      </trkpt>
      <trkpt lat="46.71274" lon="5.62117">
        <ele>509.64</ele>
        <time>2022-07-15T14:16:46Z</time>
      </trkpt>
      <trkpt lat="46.71295" lon="5.62111">
        <ele>508.19</ele>
        <time>2022-07-15T14:17:01Z</time>
      </trkpt>
      <trkpt lat="46.71317" lon="5.62114">
        <ele>507.71</ele>
        <time>2022-07-15T14:17:16Z</time>
      </trkpt>
      <trkpt lat="46.71328" lon="5.62115">
        <ele>506.75</ele>
        <time>2022-07-15T14:17:26Z</time>
      </trkpt>
      <trkpt lat="46.71349" lon="5.62114">
        <ele>505.31</ele>
        <time>2022-07-15T14:17:40Z</time>
      </trkpt>
      <trkpt lat="46.71369" lon="5.62108">
        <ele>503.87</ele>
        <time>2022-07-15T14:17:55Z</time>
      </trkpt>
      <trkpt lat="46.71375" lon="5.62107">
        <ele>503.39</ele>
        <time>2022-07-15T14:18:00Z</time>
      </trkpt>
      <trkpt lat="46.71391" lon="5.62096">
        <ele>503.39</ele>
        <time>2022-07-15T14:18:13Z</time>
      </trkpt>
      <trkpt lat="46.71397" lon="5.62095">
        <ele>504.35</ele>
        <time>2022-07-15T14:18:27Z</time>
      </trkpt>
      <trkpt lat="46.71398" lon="5.62096">
        <ele>503.39</ele>
        <time>2022-07-15T14:18:28Z</time>
      </trkpt>
      <trkpt lat="46.71399" lon="5.62096">
        <ele>502.91</ele>
        <time>2022-07-15T14:18:29Z</time>
      </trkpt>
      <trkpt lat="46.71401" lon="5.62096">
        <ele>502.91</ele>
        <time>2022-07-15T14:18:30Z</time>
      </trkpt>
      <trkpt lat="46.71402" lon="5.62096">
        <ele>503.87</ele>
        <time>2022-07-15T14:18:31Z</time>
      </trkpt>
      <trkpt lat="46.71404" lon="5.62096">
        <ele>503.39</ele>
        <time>2022-07-15T14:18:32Z</time>
      </trkpt>
      <trkpt lat="46.71413" lon="5.62095">
        <ele>502.43</ele>
        <time>2022-07-15T14:18:43Z</time>
      </trkpt>
      <trkpt lat="46.71434" lon="5.62089">
        <ele>502.43</ele>
        <time>2022-07-15T14:18:55Z</time>
      </trkpt>
      <trkpt lat="46.71442" lon="5.62091">
        <ele>501.46</ele>
        <time>2022-07-15T14:18:59Z</time>
      </trkpt>
      <trkpt lat="46.71444" lon="5.62091">
        <ele>501.95</ele>
        <time>2022-07-15T14:19:00Z</time>
      </trkpt>
      <trkpt lat="46.71446" lon="5.62091">
        <ele>501.46</ele>
        <time>2022-07-15T14:19:01Z</time>
      </trkpt>
      <trkpt lat="46.71447" lon="5.62091">
        <ele>501.46</ele>
        <time>2022-07-15T14:19:02Z</time>
      </trkpt>
      <trkpt lat="46.71449" lon="5.6209">
        <ele>501.46</ele>
        <time>2022-07-15T14:19:03Z</time>
      </trkpt>
      <trkpt lat="46.71469" lon="5.62095">
        <ele>500.02</ele>
        <time>2022-07-15T14:19:16Z</time>
      </trkpt>
      <trkpt lat="46.71487" lon="5.62103">
        <ele>500.02</ele>
        <time>2022-07-15T14:19:30Z</time>
      </trkpt>
      <trkpt lat="46.71506" lon="5.62114">
        <ele>499.54</ele>
        <time>2022-07-15T14:19:45Z</time>
      </trkpt>
      <trkpt lat="46.71521" lon="5.62115">
        <ele>498.1</ele>
        <time>2022-07-15T14:19:55Z</time>
      </trkpt>
      <trkpt lat="46.71523" lon="5.62115">
        <ele>499.06</ele>
        <time>2022-07-15T14:19:56Z</time>
      </trkpt>
      <trkpt lat="46.71526" lon="5.62115">
        <ele>498.58</ele>
        <time>2022-07-15T14:19:57Z</time>
      </trkpt>
      <trkpt lat="46.71528" lon="5.62115">
        <ele>499.06</ele>
        <time>2022-07-15T14:19:58Z</time>
      </trkpt>
      <trkpt lat="46.7153" lon="5.6212">
        <ele>499.06</ele>
        <time>2022-07-15T14:20:10Z</time>
      </trkpt>
      <trkpt lat="46.71529" lon="5.62121">
        <ele>499.06</ele>
        <time>2022-07-15T14:20:12Z</time>
      </trkpt>
      <trkpt lat="46.71518" lon="5.62129">
        <ele>496.66</ele>
        <time>2022-07-15T14:20:27Z</time>
      </trkpt>
      <trkpt lat="46.71506" lon="5.62129">
        <ele>496.18</ele>
        <time>2022-07-15T14:20:47Z</time>
      </trkpt>
      <trkpt lat="46.71502" lon="5.62133">
        <ele>493.29</ele>
        <time>2022-07-15T14:21:05Z</time>
      </trkpt>
      <trkpt lat="46.71491" lon="5.62138">
        <ele>490.89</ele>
        <time>2022-07-15T14:21:20Z</time>
      </trkpt>
      <trkpt lat="46.71479" lon="5.62139">
        <ele>488.49</ele>
        <time>2022-07-15T14:21:30Z</time>
      </trkpt>
      <trkpt lat="46.71465" lon="5.62143">
        <ele>488.01</ele>
        <time>2022-07-15T14:21:43Z</time>
      </trkpt>
      <trkpt lat="46.71462" lon="5.62146">
        <ele>487.05</ele>
        <time>2022-07-15T14:22:07Z</time>
      </trkpt>
      <trkpt lat="46.71454" lon="5.62146">
        <ele>484.64</ele>
        <time>2022-07-15T14:22:21Z</time>
      </trkpt>
      <trkpt lat="46.71442" lon="5.62151">
        <ele>482.72</ele>
        <time>2022-07-15T14:22:36Z</time>
      </trkpt>
      <trkpt lat="46.71429" lon="5.62152">
        <ele>482.24</ele>
        <time>2022-07-15T14:22:52Z</time>
      </trkpt>
      <trkpt lat="46.71421" lon="5.62152">
        <ele>482.24</ele>
        <time>2022-07-15T14:23:08Z</time>
      </trkpt>
      <trkpt lat="46.71415" lon="5.62159">
        <ele>480.8</ele>
        <time>2022-07-15T14:23:19Z</time>
      </trkpt>
      <trkpt lat="46.71409" lon="5.62173">
        <ele>479.35</ele>
        <time>2022-07-15T14:23:34Z</time>
      </trkpt>
      <trkpt lat="46.714" lon="5.62192">
        <ele>479.35</ele>
        <time>2022-07-15T14:23:49Z</time>
      </trkpt>
      <trkpt lat="46.71398" lon="5.62198">
        <ele>478.87</ele>
        <time>2022-07-15T14:23:52Z</time>
      </trkpt>
      <trkpt lat="46.71397" lon="5.622">
        <ele>478.87</ele>
        <time>2022-07-15T14:23:53Z</time>
      </trkpt>
      <trkpt lat="46.71396" lon="5.62202">
        <ele>478.87</ele>
        <time>2022-07-15T14:23:54Z</time>
      </trkpt>
      <trkpt lat="46.71395" lon="5.62205">
        <ele>478.87</ele>
        <time>2022-07-15T14:23:55Z</time>
      </trkpt>
      <trkpt lat="46.71395" lon="5.62207">
        <ele>478.39</ele>
        <time>2022-07-15T14:23:56Z</time>
      </trkpt>
      <trkpt lat="46.71391" lon="5.62215">
        <ele>479.35</ele>
        <time>2022-07-15T14:24:04Z</time>
      </trkpt>
      <trkpt lat="46.71389" lon="5.62216">
        <ele>479.84</ele>
        <time>2022-07-15T14:24:05Z</time>
      </trkpt>
      <trkpt lat="46.7138" lon="5.62226">
        <ele>479.35</ele>
        <time>2022-07-15T14:24:13Z</time>
      </trkpt>
      <trkpt lat="46.71374" lon="5.62238">
        <ele>479.84</ele>
        <time>2022-07-15T14:24:29Z</time>
      </trkpt>
      <trkpt lat="46.71371" lon="5.6225">
        <ele>479.84</ele>
        <time>2022-07-15T14:24:57Z</time>
      </trkpt>
      <trkpt lat="46.71365" lon="5.62263">
        <ele>478.87</ele>
        <time>2022-07-15T14:25:10Z</time>
      </trkpt>
      <trkpt lat="46.71352" lon="5.62275">
        <ele>477.91</ele>
        <time>2022-07-15T14:25:26Z</time>
      </trkpt>
      <trkpt lat="46.71334" lon="5.62285">
        <ele>475.03</ele>
        <time>2022-07-15T14:25:48Z</time>
      </trkpt>
      <trkpt lat="46.71326" lon="5.62296">
        <ele>472.14</ele>
        <time>2022-07-15T14:26:00Z</time>
      </trkpt>
      <trkpt lat="46.7132" lon="5.6231">
        <ele>468.78</ele>
        <time>2022-07-15T14:26:11Z</time>
      </trkpt>
      <trkpt lat="46.71311" lon="5.62321">
        <ele>467.34</ele>
        <time>2022-07-15T14:26:29Z</time>
      </trkpt>
      <trkpt lat="46.71304" lon="5.62338">
        <ele>463.97</ele>
        <time>2022-07-15T14:26:43Z</time>
      </trkpt>
      <trkpt lat="46.71297" lon="5.6235">
        <ele>460.61</ele>
        <time>2022-07-15T14:26:56Z</time>
      </trkpt>
      <trkpt lat="46.71295" lon="5.62359">
        <ele>459.17</ele>
        <time>2022-07-15T14:27:03Z</time>
      </trkpt>
      <trkpt lat="46.71292" lon="5.62378">
        <ele>455.8</ele>
        <time>2022-07-15T14:27:18Z</time>
      </trkpt>
      <trkpt lat="46.71287" lon="5.62389">
        <ele>452.92</ele>
        <time>2022-07-15T14:27:28Z</time>
      </trkpt>
      <trkpt lat="46.7128" lon="5.62405">
        <ele>449.55</ele>
        <time>2022-07-15T14:27:45Z</time>
      </trkpt>
      <trkpt lat="46.71273" lon="5.6242">
        <ele>446.67</ele>
        <time>2022-07-15T14:28:00Z</time>
      </trkpt>
      <trkpt lat="46.7127" lon="5.62428">
        <ele>446.19</ele>
        <time>2022-07-15T14:28:07Z</time>
      </trkpt>
      <trkpt lat="46.71265" lon="5.62456">
        <ele>443.31</ele>
        <time>2022-07-15T14:28:21Z</time>
      </trkpt>
      <trkpt lat="46.71263" lon="5.62467">
        <ele>440.9</ele>
        <time>2022-07-15T14:28:36Z</time>
      </trkpt>
      <trkpt lat="46.71259" lon="5.62471">
        <ele>440.9</ele>
        <time>2022-07-15T14:29:02Z</time>
      </trkpt>
      <trkpt lat="46.71253" lon="5.62476">
        <ele>438.98</ele>
        <time>2022-07-15T14:29:25Z</time>
      </trkpt>
      <trkpt lat="46.7125" lon="5.62488">
        <ele>437.06</ele>
        <time>2022-07-15T14:29:37Z</time>
      </trkpt>
      <trkpt lat="46.7125" lon="5.62496">
        <ele>436.1</ele>
        <time>2022-07-15T14:29:52Z</time>
      </trkpt>
      <trkpt lat="46.71247" lon="5.62511">
        <ele>434.17</ele>
        <time>2022-07-15T14:30:07Z</time>
      </trkpt>
      <trkpt lat="46.71244" lon="5.62519">
        <ele>432.25</ele>
        <time>2022-07-15T14:30:22Z</time>
      </trkpt>
      <trkpt lat="46.71239" lon="5.62532">
        <ele>429.37</ele>
        <time>2022-07-15T14:30:38Z</time>
      </trkpt>
      <trkpt lat="46.71239" lon="5.62538">
        <ele>428.4</ele>
        <time>2022-07-15T14:30:52Z</time>
      </trkpt>
      <trkpt lat="46.71239" lon="5.62557">
        <ele>425.04</ele>
        <time>2022-07-15T14:31:06Z</time>
      </trkpt>
      <trkpt lat="46.71238" lon="5.62573">
        <ele>422.64</ele>
        <time>2022-07-15T14:31:22Z</time>
      </trkpt>
      <trkpt lat="46.71237" lon="5.62587">
        <ele>420.71</ele>
        <time>2022-07-15T14:31:36Z</time>
      </trkpt>
      <trkpt lat="46.71237" lon="5.62602">
        <ele>418.31</ele>
        <time>2022-07-15T14:31:51Z</time>
      </trkpt>
      <trkpt lat="46.71231" lon="5.62622">
        <ele>414.95</ele>
        <time>2022-07-15T14:32:07Z</time>
      </trkpt>
      <trkpt lat="46.7123" lon="5.62649">
        <ele>411.58</ele>
        <time>2022-07-15T14:32:25Z</time>
      </trkpt>
      <trkpt lat="46.71222" lon="5.62672">
        <ele>409.66</ele>
        <time>2022-07-15T14:32:40Z</time>
      </trkpt>
      <trkpt lat="46.71215" lon="5.62693">
        <ele>408.22</ele>
        <time>2022-07-15T14:32:55Z</time>
      </trkpt>
      <trkpt lat="46.71214" lon="5.62699">
        <ele>407.26</ele>
        <time>2022-07-15T14:33:11Z</time>
      </trkpt>
      <trkpt lat="46.71216" lon="5.62708">
        <ele>406.29</ele>
        <time>2022-07-15T14:33:23Z</time>
      </trkpt>
      <trkpt lat="46.71216" lon="5.6271">
        <ele>405.81</ele>
        <time>2022-07-15T14:33:24Z</time>
      </trkpt>
      <trkpt lat="46.71216" lon="5.62713">
        <ele>406.29</ele>
        <time>2022-07-15T14:33:25Z</time>
      </trkpt>
      <trkpt lat="46.71216" lon="5.62715">
        <ele>406.29</ele>
        <time>2022-07-15T14:33:26Z</time>
      </trkpt>
      <trkpt lat="46.71217" lon="5.62718">
        <ele>406.29</ele>
        <time>2022-07-15T14:33:27Z</time>
      </trkpt>
      <trkpt lat="46.71218" lon="5.62729">
        <ele>405.33</ele>
        <time>2022-07-15T14:33:39Z</time>
      </trkpt>
      <trkpt lat="46.71224" lon="5.62739">
        <ele>403.41</ele>
        <time>2022-07-15T14:33:50Z</time>
      </trkpt>
      <trkpt lat="46.7123" lon="5.62744">
        <ele>401.97</ele>
        <time>2022-07-15T14:33:57Z</time>
      </trkpt>
      <trkpt lat="46.71232" lon="5.62745">
        <ele>401.01</ele>
        <time>2022-07-15T14:34:00Z</time>
      </trkpt>
      <trkpt lat="46.71233" lon="5.62746">
        <ele>400.53</ele>
        <time>2022-07-15T14:34:01Z</time>
      </trkpt>
      <trkpt lat="46.71237" lon="5.62751">
        <ele>399.57</ele>
        <time>2022-07-15T14:34:07Z</time>
      </trkpt>
      <trkpt lat="46.7124" lon="5.62764">
        <ele>397.16</ele>
        <time>2022-07-15T14:34:19Z</time>
      </trkpt>
      <trkpt lat="46.71243" lon="5.62774">
        <ele>394.28</ele>
        <time>2022-07-15T14:34:31Z</time>
      </trkpt>
      <trkpt lat="46.71242" lon="5.62794">
        <ele>390.91</ele>
        <time>2022-07-15T14:34:44Z</time>
      </trkpt>
      <trkpt lat="46.71241" lon="5.62796">
        <ele>390.91</ele>
        <time>2022-07-15T14:34:45Z</time>
      </trkpt>
      <trkpt lat="46.71241" lon="5.62798">
        <ele>390.91</ele>
        <time>2022-07-15T14:34:46Z</time>
      </trkpt>
      <trkpt lat="46.71241" lon="5.62801">
        <ele>390.43</ele>
        <time>2022-07-15T14:34:47Z</time>
      </trkpt>
      <trkpt lat="46.71241" lon="5.62803">
        <ele>389.95</ele>
        <time>2022-07-15T14:34:48Z</time>
      </trkpt>
      <trkpt lat="46.71241" lon="5.62805">
        <ele>390.43</ele>
        <time>2022-07-15T14:34:49Z</time>
      </trkpt>
      <trkpt lat="46.71242" lon="5.62819">
        <ele>387.07</ele>
        <time>2022-07-15T14:34:58Z</time>
      </trkpt>
      <trkpt lat="46.71235" lon="5.62842">
        <ele>384.66</ele>
        <time>2022-07-15T14:35:11Z</time>
      </trkpt>
      <trkpt lat="46.71229" lon="5.62851">
        <ele>381.78</ele>
        <time>2022-07-15T14:35:26Z</time>
      </trkpt>
      <trkpt lat="46.71225" lon="5.62868">
        <ele>378.42</ele>
        <time>2022-07-15T14:35:40Z</time>
      </trkpt>
      <trkpt lat="46.71219" lon="5.62889">
        <ele>375.53</ele>
        <time>2022-07-15T14:35:59Z</time>
      </trkpt>
      <trkpt lat="46.71219" lon="5.62904">
        <ele>372.17</ele>
        <time>2022-07-15T14:36:14Z</time>
      </trkpt>
      <trkpt lat="46.71218" lon="5.62921">
        <ele>369.76</ele>
        <time>2022-07-15T14:36:30Z</time>
      </trkpt>
      <trkpt lat="46.71217" lon="5.62953">
        <ele>367.36</ele>
        <time>2022-07-15T14:36:51Z</time>
      </trkpt>
      <trkpt lat="46.71218" lon="5.62971">
        <ele>364.48</ele>
        <time>2022-07-15T14:37:05Z</time>
      </trkpt>
      <trkpt lat="46.71218" lon="5.62998">
        <ele>362.55</ele>
        <time>2022-07-15T14:37:24Z</time>
      </trkpt>
      <trkpt lat="46.71213" lon="5.63023">
        <ele>359.19</ele>
        <time>2022-07-15T14:37:40Z</time>
      </trkpt>
      <trkpt lat="46.71208" lon="5.6303">
        <ele>357.75</ele>
        <time>2022-07-15T14:37:52Z</time>
      </trkpt>
      <trkpt lat="46.71199" lon="5.63039">
        <ele>355.34</ele>
        <time>2022-07-15T14:38:10Z</time>
      </trkpt>
      <trkpt lat="46.71198" lon="5.63049">
        <ele>352.46</ele>
        <time>2022-07-15T14:38:25Z</time>
      </trkpt>
      <trkpt lat="46.71204" lon="5.63057">
        <ele>349.1</ele>
        <time>2022-07-15T14:38:42Z</time>
      </trkpt>
      <trkpt lat="46.71213" lon="5.63068">
        <ele>345.73</ele>
        <time>2022-07-15T14:39:00Z</time>
      </trkpt>
      <trkpt lat="46.71211" lon="5.63076">
        <ele>344.29</ele>
        <time>2022-07-15T14:39:28Z</time>
      </trkpt>
      <trkpt lat="46.71216" lon="5.63086">
        <ele>341.41</ele>
        <time>2022-07-15T14:39:43Z</time>
      </trkpt>
      <trkpt lat="46.7121" lon="5.63093">
        <ele>339</ele>
        <time>2022-07-15T14:39:59Z</time>
      </trkpt>
      <trkpt lat="46.71205" lon="5.63095">
        <ele>336.6</ele>
        <time>2022-07-15T14:40:19Z</time>
      </trkpt>
      <trkpt lat="46.71197" lon="5.63101">
        <ele>333.71</ele>
        <time>2022-07-15T14:40:36Z</time>
      </trkpt>
      <trkpt lat="46.71187" lon="5.63113">
        <ele>330.83</ele>
        <time>2022-07-15T14:40:52Z</time>
      </trkpt>
      <trkpt lat="46.71181" lon="5.63125">
        <ele>327.47</ele>
        <time>2022-07-15T14:41:08Z</time>
      </trkpt>
      <trkpt lat="46.71173" lon="5.63136">
        <ele>324.1</ele>
        <time>2022-07-15T14:41:23Z</time>
      </trkpt>
      <trkpt lat="46.71166" lon="5.63147">
        <ele>322.66</ele>
        <time>2022-07-15T14:41:40Z</time>
      </trkpt>
      <trkpt lat="46.71172" lon="5.63186">
        <ele>303.43</ele>
        <time>2022-07-15T14:43:22Z</time>
      </trkpt>
      <trkpt lat="46.71174" lon="5.63185">
        <ele>303.43</ele>
        <time>2022-07-15T14:43:23Z</time>
      </trkpt>
      <trkpt lat="46.71176" lon="5.6319">
        <ele>304.39</ele>
        <time>2022-07-15T14:43:27Z</time>
      </trkpt>
      <trkpt lat="46.71192" lon="5.63211">
        <ele>303.43</ele>
        <time>2022-07-15T14:43:46Z</time>
      </trkpt>
      <trkpt lat="46.71198" lon="5.63219">
        <ele>302.47</ele>
        <time>2022-07-15T14:43:53Z</time>
      </trkpt>
      <trkpt lat="46.71201" lon="5.63225">
        <ele>301.99</ele>
        <time>2022-07-15T14:43:57Z</time>
      </trkpt>
      <trkpt lat="46.71209" lon="5.63251">
        <ele>301.03</ele>
        <time>2022-07-15T14:44:13Z</time>
      </trkpt>
      <trkpt lat="46.71213" lon="5.63275">
        <ele>301.03</ele>
        <time>2022-07-15T14:44:27Z</time>
      </trkpt>
      <trkpt lat="46.71211" lon="5.63302">
        <ele>300.07</ele>
        <time>2022-07-15T14:44:43Z</time>
      </trkpt>
      <trkpt lat="46.71208" lon="5.63333">
        <ele>300.07</ele>
        <time>2022-07-15T14:45:01Z</time>
      </trkpt>
      <trkpt lat="46.7121" lon="5.63365">
        <ele>299.11</ele>
        <time>2022-07-15T14:45:19Z</time>
      </trkpt>
      <trkpt lat="46.71216" lon="5.6339">
        <ele>299.59</ele>
        <time>2022-07-15T14:45:34Z</time>
      </trkpt>
      <trkpt lat="46.71224" lon="5.63412">
        <ele>299.11</ele>
        <time>2022-07-15T14:45:47Z</time>
      </trkpt>
      <trkpt lat="46.7123" lon="5.63423">
        <ele>299.11</ele>
        <time>2022-07-15T14:45:55Z</time>
      </trkpt>
      <trkpt lat="46.71232" lon="5.63432">
        <ele>298.63</ele>
        <time>2022-07-15T14:46:03Z</time>
      </trkpt>
      <trkpt lat="46.71233" lon="5.63433">
        <ele>298.63</ele>
        <time>2022-07-15T14:46:04Z</time>
      </trkpt>
      <trkpt lat="46.71234" lon="5.63435">
        <ele>299.11</ele>
        <time>2022-07-15T14:46:05Z</time>
      </trkpt>
      <trkpt lat="46.71243" lon="5.63468">
        <ele>298.63</ele>
        <time>2022-07-15T14:46:24Z</time>
      </trkpt>
      <trkpt lat="46.71243" lon="5.63476">
        <ele>298.63</ele>
        <time>2022-07-15T14:46:30Z</time>
      </trkpt>
      <trkpt lat="46.71243" lon="5.63478">
        <ele>298.63</ele>
        <time>2022-07-15T14:46:31Z</time>
      </trkpt>
      <trkpt lat="46.71243" lon="5.63481">
        <ele>298.63</ele>
        <time>2022-07-15T14:46:32Z</time>
      </trkpt>
      <trkpt lat="46.71243" lon="5.63483">
        <ele>299.11</ele>
        <time>2022-07-15T14:46:33Z</time>
      </trkpt>
      <trkpt lat="46.71243" lon="5.63485">
        <ele>299.11</ele>
        <time>2022-07-15T14:46:34Z</time>
      </trkpt>
      <trkpt lat="46.71241" lon="5.63492">
        <ele>298.63</ele>
        <time>2022-07-15T14:46:38Z</time>
      </trkpt>
      <trkpt lat="46.71236" lon="5.63518">
        <ele>299.11</ele>
        <time>2022-07-15T14:46:54Z</time>
      </trkpt>
      <trkpt lat="46.71235" lon="5.6352">
        <ele>298.63</ele>
        <time>2022-07-15T14:46:59Z</time>
      </trkpt>
      <trkpt lat="46.7123" lon="5.63515">
        <ele>298.15</ele>
        <time>2022-07-15T14:47:18Z</time>
      </trkpt>
      <trkpt lat="46.71233" lon="5.63517">
        <ele>299.59</ele>
        <time>2022-07-15T14:47:21Z</time>
      </trkpt>
      <trkpt lat="46.71237" lon="5.63518">
        <ele>299.11</ele>
        <time>2022-07-15T14:47:38Z</time>
      </trkpt>
      <trkpt lat="46.71237" lon="5.63518">
        <ele>297.67</ele>
        <time>2022-07-15T14:47:48Z</time>
      </trkpt>
      <trkpt lat="46.71237" lon="5.63515">
        <ele>299.11</ele>
        <time>2022-07-15T14:48:03Z</time>
      </trkpt>
      <trkpt lat="46.71237" lon="5.63518">
        <ele>298.63</ele>
        <time>2022-07-15T14:48:16Z</time>
      </trkpt>
      <trkpt lat="46.71235" lon="5.63521">
        <ele>298.63</ele>
        <time>2022-07-15T14:48:17Z</time>
      </trkpt>
      <trkpt lat="46.71234" lon="5.63524">
        <ele>298.15</ele>
        <time>2022-07-15T14:48:19Z</time>
      </trkpt>
      <trkpt lat="46.71234" lon="5.63526">
        <ele>298.15</ele>
        <time>2022-07-15T14:48:20Z</time>
      </trkpt>
      <trkpt lat="46.71236" lon="5.63533">
        <ele>299.11</ele>
        <time>2022-07-15T14:48:26Z</time>
      </trkpt>
      <trkpt lat="46.71235" lon="5.63536">
        <ele>298.63</ele>
        <time>2022-07-15T14:48:27Z</time>
      </trkpt>
      <trkpt lat="46.71235" lon="5.63538">
        <ele>299.11</ele>
        <time>2022-07-15T14:48:28Z</time>
      </trkpt>
      <trkpt lat="46.71235" lon="5.6354">
        <ele>299.11</ele>
        <time>2022-07-15T14:48:29Z</time>
      </trkpt>
      <trkpt lat="46.71235" lon="5.63542">
        <ele>299.59</ele>
        <time>2022-07-15T14:48:30Z</time>
      </trkpt>
      <trkpt lat="46.71234" lon="5.63548">
        <ele>299.11</ele>
        <time>2022-07-15T14:48:35Z</time>
      </trkpt>
      <trkpt lat="46.71234" lon="5.6355">
        <ele>299.11</ele>
        <time>2022-07-15T14:48:36Z</time>
      </trkpt>
      <trkpt lat="46.71238" lon="5.63574">
        <ele>300.07</ele>
        <time>2022-07-15T14:48:52Z</time>
      </trkpt>
      <trkpt lat="46.71237" lon="5.63586">
        <ele>301.03</ele>
        <time>2022-07-15T14:49:01Z</time>
      </trkpt>
      <trkpt lat="46.7124" lon="5.63586">
        <ele>301.03</ele>
        <time>2022-07-15T14:49:03Z</time>
      </trkpt>
      <trkpt lat="46.7125" lon="5.63592">
        <ele>300.55</ele>
        <time>2022-07-15T14:49:16Z</time>
      </trkpt>
      <trkpt lat="46.71251" lon="5.63593">
        <ele>300.55</ele>
        <time>2022-07-15T14:49:17Z</time>
      </trkpt>
      <trkpt lat="46.71252" lon="5.63595">
        <ele>300.55</ele>
        <time>2022-07-15T14:49:18Z</time>
      </trkpt>
      <trkpt lat="46.71253" lon="5.63596">
        <ele>300.55</ele>
        <time>2022-07-15T14:49:19Z</time>
      </trkpt>
      <trkpt lat="46.71253" lon="5.63598">
        <ele>300.55</ele>
        <time>2022-07-15T14:49:20Z</time>
      </trkpt>
      <trkpt lat="46.71253" lon="5.63599">
        <ele>300.55</ele>
        <time>2022-07-15T14:49:21Z</time>
      </trkpt>
      <trkpt lat="46.7125" lon="5.63613">
        <ele>300.07</ele>
        <time>2022-07-15T14:49:31Z</time>
      </trkpt>
      <trkpt lat="46.7125" lon="5.63622">
        <ele>300.07</ele>
        <time>2022-07-15T14:49:37Z</time>
      </trkpt>
      <trkpt lat="46.7125" lon="5.63624">
        <ele>299.59</ele>
        <time>2022-07-15T14:49:38Z</time>
      </trkpt>
      <trkpt lat="46.7125" lon="5.63626">
        <ele>300.07</ele>
        <time>2022-07-15T14:49:39Z</time>
      </trkpt>
      <trkpt lat="46.71246" lon="5.63646">
        <ele>300.55</ele>
        <time>2022-07-15T14:49:51Z</time>
      </trkpt>
      <trkpt lat="46.71246" lon="5.63647">
        <ele>300.55</ele>
        <time>2022-07-15T14:49:52Z</time>
      </trkpt>
      <trkpt lat="46.71239" lon="5.63663">
        <ele>300.07</ele>
        <time>2022-07-15T14:50:06Z</time>
      </trkpt>
      <trkpt lat="46.71236" lon="5.63679">
        <ele>300.55</ele>
        <time>2022-07-15T14:50:15Z</time>
      </trkpt>
      <trkpt lat="46.71236" lon="5.63681">
        <ele>301.03</ele>
        <time>2022-07-15T14:50:16Z</time>
      </trkpt>
      <trkpt lat="46.71236" lon="5.63683">
        <ele>300.55</ele>
        <time>2022-07-15T14:50:17Z</time>
      </trkpt>
      <trkpt lat="46.71233" lon="5.63704">
        <ele>300.07</ele>
        <time>2022-07-15T14:50:28Z</time>
      </trkpt>
      <trkpt lat="46.7123" lon="5.63722">
        <ele>300.55</ele>
        <time>2022-07-15T14:50:39Z</time>
      </trkpt>
      <trkpt lat="46.71224" lon="5.63747">
        <ele>301.03</ele>
        <time>2022-07-15T14:50:53Z</time>
      </trkpt>
      <trkpt lat="46.71218" lon="5.63767">
        <ele>301.03</ele>
        <time>2022-07-15T14:51:04Z</time>
      </trkpt>
      <trkpt lat="46.71212" lon="5.63787">
        <ele>301.51</ele>
        <time>2022-07-15T14:51:16Z</time>
      </trkpt>
      <trkpt lat="46.71212" lon="5.63788">
        <ele>301.03</ele>
        <time>2022-07-15T14:51:17Z</time>
      </trkpt>
      <trkpt lat="46.71211" lon="5.6379">
        <ele>300.55</ele>
        <time>2022-07-15T14:51:18Z</time>
      </trkpt>
      <trkpt lat="46.7121" lon="5.63792">
        <ele>300.55</ele>
        <time>2022-07-15T14:51:19Z</time>
      </trkpt>
      <trkpt lat="46.7121" lon="5.63794">
        <ele>301.03</ele>
        <time>2022-07-15T14:51:20Z</time>
      </trkpt>
      <trkpt lat="46.71209" lon="5.63796">
        <ele>301.51</ele>
        <time>2022-07-15T14:51:21Z</time>
      </trkpt>
      <trkpt lat="46.71208" lon="5.63797">
        <ele>301.03</ele>
        <time>2022-07-15T14:51:22Z</time>
      </trkpt>
      <trkpt lat="46.71204" lon="5.63807">
        <ele>301.03</ele>
        <time>2022-07-15T14:51:34Z</time>
      </trkpt>
      <trkpt lat="46.71199" lon="5.63808">
        <ele>301.03</ele>
        <time>2022-07-15T14:51:54Z</time>
      </trkpt>
      <trkpt lat="46.71202" lon="5.63808">
        <ele>301.99</ele>
        <time>2022-07-15T14:52:23Z</time>
      </trkpt>
    </trkseg>
  </trk>
</gpx>